<?xml version="1.0" encoding="UTF-8" standalone="no" ?>
<gpx xmlns="http://www.topografix.com/GPX/1/1" xmlns:xsi="http://www.w3.org/2001/XMLSchema-instance" xsi:schemaLocation="http://www.topografix.com/GPX/1/1 http://www.topografix.com/GPX/1/1/gpx.xsd" version="1.1" creator="VisuGPX - https://www.visugpx.com">
  <metadata>
    <name>zz009-zz020-40-1200</name>
  </metadata>
  <trk>
    <name><![CDATA[04-JUIN-14 13:11:21]]></name>
    <trkseg>
      <trkpt lat="42.4159" lon="0.13988">
        <ele>589.43</ele>
        <time>2014-06-04T06:12:13Z</time>
      </trkpt>
      <trkpt lat="42.4159" lon="0.13989">
        <ele>588.95</ele>
        <time>2014-06-04T06:12:15Z</time>
      </trkpt>
      <trkpt lat="42.41591" lon="0.13989">
        <ele>587.98</ele>
        <time>2014-06-04T06:12:23Z</time>
      </trkpt>
      <trkpt lat="42.41593" lon="0.13986">
        <ele>577.89</ele>
        <time>2014-06-04T06:12:41Z</time>
      </trkpt>
      <trkpt lat="42.41593" lon="0.13986">
        <ele>590.87</ele>
        <time>2014-06-04T06:12:42Z</time>
      </trkpt>
      <trkpt lat="42.41593" lon="0.13986">
        <ele>578.37</ele>
        <time>2014-06-04T06:12:45Z</time>
      </trkpt>
      <trkpt lat="42.41593" lon="0.13986">
        <ele>591.35</ele>
        <time>2014-06-04T06:12:46Z</time>
      </trkpt>
      <trkpt lat="42.41593" lon="0.13987">
        <ele>587.02</ele>
        <time>2014-06-04T06:12:52Z</time>
      </trkpt>
      <trkpt lat="42.41593" lon="0.13987">
        <ele>590.39</ele>
        <time>2014-06-04T06:12:56Z</time>
      </trkpt>
      <trkpt lat="42.41592" lon="0.13987">
        <ele>582.22</ele>
        <time>2014-06-04T06:13:12Z</time>
      </trkpt>
      <trkpt lat="42.41592" lon="0.13986">
        <ele>585.1</ele>
        <time>2014-06-04T06:13:13Z</time>
      </trkpt>
      <trkpt lat="42.41591" lon="0.13985">
        <ele>590.39</ele>
        <time>2014-06-04T06:13:14Z</time>
      </trkpt>
      <trkpt lat="42.41591" lon="0.13985">
        <ele>589.43</ele>
        <time>2014-06-04T06:13:15Z</time>
      </trkpt>
      <trkpt lat="42.41591" lon="0.13985">
        <ele>589.91</ele>
        <time>2014-06-04T06:13:43Z</time>
      </trkpt>
      <trkpt lat="42.41591" lon="0.13985">
        <ele>588.95</ele>
        <time>2014-06-04T06:13:53Z</time>
      </trkpt>
      <trkpt lat="42.41592" lon="0.13985">
        <ele>589.91</ele>
        <time>2014-06-04T06:14:14Z</time>
      </trkpt>
      <trkpt lat="42.41592" lon="0.13986">
        <ele>590.39</ele>
        <time>2014-06-04T06:14:31Z</time>
      </trkpt>
      <trkpt lat="42.41592" lon="0.13985">
        <ele>590.39</ele>
        <time>2014-06-04T06:14:44Z</time>
      </trkpt>
      <trkpt lat="42.41591" lon="0.13987">
        <ele>589.91</ele>
        <time>2014-06-04T06:14:58Z</time>
      </trkpt>
      <trkpt lat="42.41595" lon="0.13984">
        <ele>590.87</ele>
        <time>2014-06-04T06:15:02Z</time>
      </trkpt>
      <trkpt lat="42.41603" lon="0.13978">
        <ele>590.87</ele>
        <time>2014-06-04T06:15:13Z</time>
      </trkpt>
      <trkpt lat="42.416" lon="0.13978">
        <ele>590.87</ele>
        <time>2014-06-04T06:15:24Z</time>
      </trkpt>
      <trkpt lat="42.416" lon="0.13979">
        <ele>590.39</ele>
        <time>2014-06-04T06:15:38Z</time>
      </trkpt>
      <trkpt lat="42.416" lon="0.13979">
        <ele>587.02</ele>
        <time>2014-06-04T06:15:39Z</time>
      </trkpt>
      <trkpt lat="42.416" lon="0.13979">
        <ele>587.98</ele>
        <time>2014-06-04T06:15:40Z</time>
      </trkpt>
      <trkpt lat="42.416" lon="0.13979">
        <ele>589.91</ele>
        <time>2014-06-04T06:15:42Z</time>
      </trkpt>
      <trkpt lat="42.416" lon="0.13979">
        <ele>591.83</ele>
        <time>2014-06-04T06:15:46Z</time>
      </trkpt>
      <trkpt lat="42.416" lon="0.13979">
        <ele>590.87</ele>
        <time>2014-06-04T06:15:48Z</time>
      </trkpt>
      <trkpt lat="42.416" lon="0.13979">
        <ele>590.39</ele>
        <time>2014-06-04T06:16:15Z</time>
      </trkpt>
      <trkpt lat="42.416" lon="0.13979">
        <ele>590.39</ele>
        <time>2014-06-04T06:16:41Z</time>
      </trkpt>
      <trkpt lat="42.416" lon="0.13979">
        <ele>590.39</ele>
        <time>2014-06-04T06:17:08Z</time>
      </trkpt>
      <trkpt lat="42.416" lon="0.13979">
        <ele>590.87</ele>
        <time>2014-06-04T06:17:29Z</time>
      </trkpt>
      <trkpt lat="42.416" lon="0.13979">
        <ele>590.39</ele>
        <time>2014-06-04T06:17:50Z</time>
      </trkpt>
      <trkpt lat="42.416" lon="0.13979">
        <ele>589.91</ele>
        <time>2014-06-04T06:18:15Z</time>
      </trkpt>
      <trkpt lat="42.41599" lon="0.13979">
        <ele>589.91</ele>
        <time>2014-06-04T06:18:44Z</time>
      </trkpt>
      <trkpt lat="42.416" lon="0.13979">
        <ele>590.39</ele>
        <time>2014-06-04T06:19:03Z</time>
      </trkpt>
      <trkpt lat="42.41599" lon="0.13979">
        <ele>590.39</ele>
        <time>2014-06-04T06:19:21Z</time>
      </trkpt>
      <trkpt lat="42.41599" lon="0.13979">
        <ele>590.39</ele>
        <time>2014-06-04T06:19:41Z</time>
      </trkpt>
      <trkpt lat="42.41599" lon="0.1398">
        <ele>589.91</ele>
        <time>2014-06-04T06:20:00Z</time>
      </trkpt>
      <trkpt lat="42.41598" lon="0.13983">
        <ele>589.91</ele>
        <time>2014-06-04T06:20:21Z</time>
      </trkpt>
      <trkpt lat="42.41595" lon="0.13984">
        <ele>589.43</ele>
        <time>2014-06-04T06:20:25Z</time>
      </trkpt>
      <trkpt lat="42.41594" lon="0.13983">
        <ele>589.43</ele>
        <time>2014-06-04T06:20:42Z</time>
      </trkpt>
      <trkpt lat="42.41596" lon="0.13983">
        <ele>589.43</ele>
        <time>2014-06-04T06:21:02Z</time>
      </trkpt>
      <trkpt lat="42.41595" lon="0.13984">
        <ele>588.46</ele>
        <time>2014-06-04T06:21:25Z</time>
      </trkpt>
      <trkpt lat="42.41595" lon="0.13984">
        <ele>588.95</ele>
        <time>2014-06-04T06:21:49Z</time>
      </trkpt>
      <trkpt lat="42.41575" lon="0.13993">
        <ele>586.54</ele>
        <time>2014-06-04T06:21:57Z</time>
      </trkpt>
      <trkpt lat="42.4157" lon="0.13988">
        <ele>585.58</ele>
        <time>2014-06-04T06:21:59Z</time>
      </trkpt>
      <trkpt lat="42.41564" lon="0.13985">
        <ele>584.14</ele>
        <time>2014-06-04T06:22:01Z</time>
      </trkpt>
      <trkpt lat="42.41553" lon="0.13957">
        <ele>580.77</ele>
        <time>2014-06-04T06:22:07Z</time>
      </trkpt>
      <trkpt lat="42.41562" lon="0.13938">
        <ele>579.33</ele>
        <time>2014-06-04T06:22:10Z</time>
      </trkpt>
      <trkpt lat="42.41564" lon="0.13913">
        <ele>578.85</ele>
        <time>2014-06-04T06:22:15Z</time>
      </trkpt>
      <trkpt lat="42.41567" lon="0.13881">
        <ele>572.6</ele>
        <time>2014-06-04T06:22:20Z</time>
      </trkpt>
      <trkpt lat="42.41581" lon="0.13852">
        <ele>566.35</ele>
        <time>2014-06-04T06:22:23Z</time>
      </trkpt>
      <trkpt lat="42.41586" lon="0.13842">
        <ele>564.91</ele>
        <time>2014-06-04T06:22:24Z</time>
      </trkpt>
      <trkpt lat="42.41595" lon="0.13825">
        <ele>562.03</ele>
        <time>2014-06-04T06:22:26Z</time>
      </trkpt>
      <trkpt lat="42.416" lon="0.13811">
        <ele>559.62</ele>
        <time>2014-06-04T06:22:28Z</time>
      </trkpt>
      <trkpt lat="42.41604" lon="0.13793">
        <ele>557.22</ele>
        <time>2014-06-04T06:22:35Z</time>
      </trkpt>
      <trkpt lat="42.41602" lon="0.13798">
        <ele>557.22</ele>
        <time>2014-06-04T06:22:37Z</time>
      </trkpt>
      <trkpt lat="42.41587" lon="0.1381">
        <ele>556.26</ele>
        <time>2014-06-04T06:22:43Z</time>
      </trkpt>
      <trkpt lat="42.41574" lon="0.13813">
        <ele>553.86</ele>
        <time>2014-06-04T06:22:46Z</time>
      </trkpt>
      <trkpt lat="42.41563" lon="0.13816">
        <ele>552.41</ele>
        <time>2014-06-04T06:22:48Z</time>
      </trkpt>
      <trkpt lat="42.41555" lon="0.1382">
        <ele>550.01</ele>
        <time>2014-06-04T06:22:50Z</time>
      </trkpt>
      <trkpt lat="42.41544" lon="0.13823">
        <ele>547.61</ele>
        <time>2014-06-04T06:22:53Z</time>
      </trkpt>
      <trkpt lat="42.41541" lon="0.13822">
        <ele>546.65</ele>
        <time>2014-06-04T06:22:54Z</time>
      </trkpt>
      <trkpt lat="42.41526" lon="0.13827">
        <ele>545.69</ele>
        <time>2014-06-04T06:22:59Z</time>
      </trkpt>
      <trkpt lat="42.4148" lon="0.13886">
        <ele>544.72</ele>
        <time>2014-06-04T06:23:13Z</time>
      </trkpt>
      <trkpt lat="42.41454" lon="0.13926">
        <ele>543.76</ele>
        <time>2014-06-04T06:23:21Z</time>
      </trkpt>
      <trkpt lat="42.4145" lon="0.13964">
        <ele>544.24</ele>
        <time>2014-06-04T06:23:27Z</time>
      </trkpt>
      <trkpt lat="42.41452" lon="0.13977">
        <ele>543.76</ele>
        <time>2014-06-04T06:23:29Z</time>
      </trkpt>
      <trkpt lat="42.41458" lon="0.14007">
        <ele>542.32</ele>
        <time>2014-06-04T06:23:34Z</time>
      </trkpt>
      <trkpt lat="42.41458" lon="0.14014">
        <ele>542.32</ele>
        <time>2014-06-04T06:23:35Z</time>
      </trkpt>
      <trkpt lat="42.41454" lon="0.14021">
        <ele>542.32</ele>
        <time>2014-06-04T06:23:37Z</time>
      </trkpt>
      <trkpt lat="42.41451" lon="0.14023">
        <ele>542.32</ele>
        <time>2014-06-04T06:23:38Z</time>
      </trkpt>
      <trkpt lat="42.41376" lon="0.14035">
        <ele>541.36</ele>
        <time>2014-06-04T06:23:53Z</time>
      </trkpt>
      <trkpt lat="42.41307" lon="0.14037">
        <ele>541.84</ele>
        <time>2014-06-04T06:24:09Z</time>
      </trkpt>
      <trkpt lat="42.41285" lon="0.14039">
        <ele>538.96</ele>
        <time>2014-06-04T06:24:14Z</time>
      </trkpt>
      <trkpt lat="42.41281" lon="0.14039">
        <ele>543.28</ele>
        <time>2014-06-04T06:24:15Z</time>
      </trkpt>
      <trkpt lat="42.41255" lon="0.14032">
        <ele>542.8</ele>
        <time>2014-06-04T06:24:22Z</time>
      </trkpt>
      <trkpt lat="42.41253" lon="0.14008">
        <ele>541.84</ele>
        <time>2014-06-04T06:24:26Z</time>
      </trkpt>
      <trkpt lat="42.4124" lon="0.13993">
        <ele>540.88</ele>
        <time>2014-06-04T06:24:30Z</time>
      </trkpt>
      <trkpt lat="42.41237" lon="0.13974">
        <ele>540.88</ele>
        <time>2014-06-04T06:24:37Z</time>
      </trkpt>
      <trkpt lat="42.41237" lon="0.13974">
        <ele>541.84</ele>
        <time>2014-06-04T06:24:41Z</time>
      </trkpt>
      <trkpt lat="42.41264" lon="0.13961">
        <ele>540.88</ele>
        <time>2014-06-04T06:24:51Z</time>
      </trkpt>
      <trkpt lat="42.41271" lon="0.13945">
        <ele>540.88</ele>
        <time>2014-06-04T06:24:55Z</time>
      </trkpt>
      <trkpt lat="42.41275" lon="0.1389">
        <ele>540.88</ele>
        <time>2014-06-04T06:25:05Z</time>
      </trkpt>
      <trkpt lat="42.41278" lon="0.13847">
        <ele>540.88</ele>
        <time>2014-06-04T06:25:12Z</time>
      </trkpt>
      <trkpt lat="42.41279" lon="0.13834">
        <ele>540.88</ele>
        <time>2014-06-04T06:25:14Z</time>
      </trkpt>
      <trkpt lat="42.41299" lon="0.13762">
        <ele>541.36</ele>
        <time>2014-06-04T06:25:27Z</time>
      </trkpt>
      <trkpt lat="42.41307" lon="0.13741">
        <ele>541.36</ele>
        <time>2014-06-04T06:25:31Z</time>
      </trkpt>
      <trkpt lat="42.41352" lon="0.13648">
        <ele>541.84</ele>
        <time>2014-06-04T06:25:50Z</time>
      </trkpt>
      <trkpt lat="42.4137" lon="0.13614">
        <ele>541.84</ele>
        <time>2014-06-04T06:25:57Z</time>
      </trkpt>
      <trkpt lat="42.41398" lon="0.13564">
        <ele>542.32</ele>
        <time>2014-06-04T06:26:07Z</time>
      </trkpt>
      <trkpt lat="42.41407" lon="0.13543">
        <ele>542.32</ele>
        <time>2014-06-04T06:26:11Z</time>
      </trkpt>
      <trkpt lat="42.4143" lon="0.13485">
        <ele>542.8</ele>
        <time>2014-06-04T06:26:22Z</time>
      </trkpt>
      <trkpt lat="42.41449" lon="0.13418">
        <ele>542.8</ele>
        <time>2014-06-04T06:26:37Z</time>
      </trkpt>
      <trkpt lat="42.41463" lon="0.1334">
        <ele>543.28</ele>
        <time>2014-06-04T06:26:54Z</time>
      </trkpt>
      <trkpt lat="42.41471" lon="0.13264">
        <ele>544.72</ele>
        <time>2014-06-04T06:27:10Z</time>
      </trkpt>
      <trkpt lat="42.41459" lon="0.13184">
        <ele>545.2</ele>
        <time>2014-06-04T06:27:26Z</time>
      </trkpt>
      <trkpt lat="42.41447" lon="0.13137">
        <ele>545.2</ele>
        <time>2014-06-04T06:27:35Z</time>
      </trkpt>
      <trkpt lat="42.41432" lon="0.13055">
        <ele>546.17</ele>
        <time>2014-06-04T06:27:50Z</time>
      </trkpt>
      <trkpt lat="42.41416" lon="0.12957">
        <ele>547.61</ele>
        <time>2014-06-04T06:28:08Z</time>
      </trkpt>
      <trkpt lat="42.41413" lon="0.12937">
        <ele>547.13</ele>
        <time>2014-06-04T06:28:12Z</time>
      </trkpt>
      <trkpt lat="42.41399" lon="0.12854">
        <ele>547.61</ele>
        <time>2014-06-04T06:28:28Z</time>
      </trkpt>
      <trkpt lat="42.41385" lon="0.12772">
        <ele>549.05</ele>
        <time>2014-06-04T06:28:44Z</time>
      </trkpt>
      <trkpt lat="42.41383" lon="0.12762">
        <ele>549.05</ele>
        <time>2014-06-04T06:28:46Z</time>
      </trkpt>
      <trkpt lat="42.41364" lon="0.12697">
        <ele>549.53</ele>
        <time>2014-06-04T06:28:59Z</time>
      </trkpt>
      <trkpt lat="42.41379" lon="0.1266">
        <ele>550.49</ele>
        <time>2014-06-04T06:29:08Z</time>
      </trkpt>
      <trkpt lat="42.41401" lon="0.12628">
        <ele>551.93</ele>
        <time>2014-06-04T06:29:16Z</time>
      </trkpt>
      <trkpt lat="42.41411" lon="0.12632">
        <ele>550.01</ele>
        <time>2014-06-04T06:29:19Z</time>
      </trkpt>
      <trkpt lat="42.41414" lon="0.12638">
        <ele>549.53</ele>
        <time>2014-06-04T06:29:20Z</time>
      </trkpt>
      <trkpt lat="42.41438" lon="0.12733">
        <ele>548.09</ele>
        <time>2014-06-04T06:29:34Z</time>
      </trkpt>
      <trkpt lat="42.41462" lon="0.12778">
        <ele>543.76</ele>
        <time>2014-06-04T06:29:40Z</time>
      </trkpt>
      <trkpt lat="42.4149" lon="0.12784">
        <ele>544.24</ele>
        <time>2014-06-04T06:29:44Z</time>
      </trkpt>
      <trkpt lat="42.4151" lon="0.12782">
        <ele>543.76</ele>
        <time>2014-06-04T06:29:47Z</time>
      </trkpt>
      <trkpt lat="42.41534" lon="0.12792">
        <ele>543.28</ele>
        <time>2014-06-04T06:29:51Z</time>
      </trkpt>
      <trkpt lat="42.41571" lon="0.12838">
        <ele>542.8</ele>
        <time>2014-06-04T06:29:59Z</time>
      </trkpt>
      <trkpt lat="42.41582" lon="0.12845">
        <ele>542.8</ele>
        <time>2014-06-04T06:30:01Z</time>
      </trkpt>
      <trkpt lat="42.41667" lon="0.12874">
        <ele>541.36</ele>
        <time>2014-06-04T06:30:16Z</time>
      </trkpt>
      <trkpt lat="42.41684" lon="0.12882">
        <ele>542.32</ele>
        <time>2014-06-04T06:30:19Z</time>
      </trkpt>
      <trkpt lat="42.4171" lon="0.1287">
        <ele>542.32</ele>
        <time>2014-06-04T06:30:24Z</time>
      </trkpt>
      <trkpt lat="42.41724" lon="0.12839">
        <ele>542.32</ele>
        <time>2014-06-04T06:30:29Z</time>
      </trkpt>
      <trkpt lat="42.41729" lon="0.12818">
        <ele>542.32</ele>
        <time>2014-06-04T06:30:32Z</time>
      </trkpt>
      <trkpt lat="42.41736" lon="0.12799">
        <ele>542.8</ele>
        <time>2014-06-04T06:30:35Z</time>
      </trkpt>
      <trkpt lat="42.41746" lon="0.12782">
        <ele>542.32</ele>
        <time>2014-06-04T06:30:38Z</time>
      </trkpt>
      <trkpt lat="42.41765" lon="0.12759">
        <ele>542.32</ele>
        <time>2014-06-04T06:30:43Z</time>
      </trkpt>
      <trkpt lat="42.41824" lon="0.12687">
        <ele>543.76</ele>
        <time>2014-06-04T06:30:59Z</time>
      </trkpt>
      <trkpt lat="42.41844" lon="0.12645">
        <ele>544.72</ele>
        <time>2014-06-04T06:31:07Z</time>
      </trkpt>
      <trkpt lat="42.41851" lon="0.12636">
        <ele>544.72</ele>
        <time>2014-06-04T06:31:09Z</time>
      </trkpt>
      <trkpt lat="42.41859" lon="0.12629">
        <ele>545.2</ele>
        <time>2014-06-04T06:31:11Z</time>
      </trkpt>
      <trkpt lat="42.41886" lon="0.12603">
        <ele>545.69</ele>
        <time>2014-06-04T06:31:18Z</time>
      </trkpt>
      <trkpt lat="42.41904" lon="0.12594">
        <ele>545.69</ele>
        <time>2014-06-04T06:31:22Z</time>
      </trkpt>
      <trkpt lat="42.41934" lon="0.12571">
        <ele>547.13</ele>
        <time>2014-06-04T06:31:30Z</time>
      </trkpt>
      <trkpt lat="42.41962" lon="0.1252">
        <ele>548.09</ele>
        <time>2014-06-04T06:31:43Z</time>
      </trkpt>
      <trkpt lat="42.41989" lon="0.12475">
        <ele>548.09</ele>
        <time>2014-06-04T06:31:55Z</time>
      </trkpt>
      <trkpt lat="42.42014" lon="0.12431">
        <ele>548.09</ele>
        <time>2014-06-04T06:32:06Z</time>
      </trkpt>
      <trkpt lat="42.42019" lon="0.12422">
        <ele>548.09</ele>
        <time>2014-06-04T06:32:08Z</time>
      </trkpt>
      <trkpt lat="42.42054" lon="0.12362">
        <ele>549.05</ele>
        <time>2014-06-04T06:32:22Z</time>
      </trkpt>
      <trkpt lat="42.42071" lon="0.12334">
        <ele>549.05</ele>
        <time>2014-06-04T06:32:29Z</time>
      </trkpt>
      <trkpt lat="42.4209" lon="0.12302">
        <ele>549.05</ele>
        <time>2014-06-04T06:32:36Z</time>
      </trkpt>
      <trkpt lat="42.42104" lon="0.12275">
        <ele>550.01</ele>
        <time>2014-06-04T06:32:42Z</time>
      </trkpt>
      <trkpt lat="42.42114" lon="0.12257">
        <ele>549.53</ele>
        <time>2014-06-04T06:32:46Z</time>
      </trkpt>
      <trkpt lat="42.4213" lon="0.12231">
        <ele>550.01</ele>
        <time>2014-06-04T06:32:52Z</time>
      </trkpt>
      <trkpt lat="42.42155" lon="0.12188">
        <ele>550.49</ele>
        <time>2014-06-04T06:33:02Z</time>
      </trkpt>
      <trkpt lat="42.42204" lon="0.12105">
        <ele>550.97</ele>
        <time>2014-06-04T06:33:21Z</time>
      </trkpt>
      <trkpt lat="42.42224" lon="0.12069">
        <ele>551.93</ele>
        <time>2014-06-04T06:33:29Z</time>
      </trkpt>
      <trkpt lat="42.42229" lon="0.1206">
        <ele>551.45</ele>
        <time>2014-06-04T06:33:31Z</time>
      </trkpt>
      <trkpt lat="42.42272" lon="0.11982">
        <ele>551.93</ele>
        <time>2014-06-04T06:33:48Z</time>
      </trkpt>
      <trkpt lat="42.4228" lon="0.11968">
        <ele>552.9</ele>
        <time>2014-06-04T06:33:51Z</time>
      </trkpt>
      <trkpt lat="42.42307" lon="0.11918">
        <ele>552.9</ele>
        <time>2014-06-04T06:34:02Z</time>
      </trkpt>
      <trkpt lat="42.42344" lon="0.11858">
        <ele>553.38</ele>
        <time>2014-06-04T06:34:16Z</time>
      </trkpt>
      <trkpt lat="42.42352" lon="0.11846">
        <ele>553.38</ele>
        <time>2014-06-04T06:34:19Z</time>
      </trkpt>
      <trkpt lat="42.42399" lon="0.11798">
        <ele>553.86</ele>
        <time>2014-06-04T06:34:33Z</time>
      </trkpt>
      <trkpt lat="42.42402" lon="0.11795">
        <ele>553.38</ele>
        <time>2014-06-04T06:34:34Z</time>
      </trkpt>
      <trkpt lat="42.42466" lon="0.11741">
        <ele>554.34</ele>
        <time>2014-06-04T06:34:52Z</time>
      </trkpt>
      <trkpt lat="42.42473" lon="0.11736">
        <ele>553.38</ele>
        <time>2014-06-04T06:34:54Z</time>
      </trkpt>
      <trkpt lat="42.42481" lon="0.11728">
        <ele>554.82</ele>
        <time>2014-06-04T06:34:56Z</time>
      </trkpt>
      <trkpt lat="42.42534" lon="0.11678">
        <ele>555.3</ele>
        <time>2014-06-04T06:35:11Z</time>
      </trkpt>
      <trkpt lat="42.42576" lon="0.1163">
        <ele>556.74</ele>
        <time>2014-06-04T06:35:24Z</time>
      </trkpt>
      <trkpt lat="42.42639" lon="0.11557">
        <ele>556.74</ele>
        <time>2014-06-04T06:35:43Z</time>
      </trkpt>
      <trkpt lat="42.4269" lon="0.115">
        <ele>557.7</ele>
        <time>2014-06-04T06:35:58Z</time>
      </trkpt>
      <trkpt lat="42.42703" lon="0.11484">
        <ele>558.18</ele>
        <time>2014-06-04T06:36:02Z</time>
      </trkpt>
      <trkpt lat="42.42771" lon="0.11407">
        <ele>558.18</ele>
        <time>2014-06-04T06:36:22Z</time>
      </trkpt>
      <trkpt lat="42.42797" lon="0.11366">
        <ele>561.55</ele>
        <time>2014-06-04T06:36:31Z</time>
      </trkpt>
      <trkpt lat="42.42846" lon="0.11268">
        <ele>559.14</ele>
        <time>2014-06-04T06:36:50Z</time>
      </trkpt>
      <trkpt lat="42.42864" lon="0.11194">
        <ele>560.59</ele>
        <time>2014-06-04T06:37:03Z</time>
      </trkpt>
      <trkpt lat="42.42876" lon="0.1114">
        <ele>560.59</ele>
        <time>2014-06-04T06:37:12Z</time>
      </trkpt>
      <trkpt lat="42.42882" lon="0.11078">
        <ele>561.07</ele>
        <time>2014-06-04T06:37:22Z</time>
      </trkpt>
      <trkpt lat="42.42874" lon="0.11043">
        <ele>561.07</ele>
        <time>2014-06-04T06:37:28Z</time>
      </trkpt>
      <trkpt lat="42.42868" lon="0.11032">
        <ele>561.07</ele>
        <time>2014-06-04T06:37:30Z</time>
      </trkpt>
      <trkpt lat="42.4284" lon="0.10947">
        <ele>561.55</ele>
        <time>2014-06-04T06:37:45Z</time>
      </trkpt>
      <trkpt lat="42.42838" lon="0.10918">
        <ele>562.51</ele>
        <time>2014-06-04T06:37:50Z</time>
      </trkpt>
      <trkpt lat="42.42837" lon="0.10906">
        <ele>562.03</ele>
        <time>2014-06-04T06:37:52Z</time>
      </trkpt>
      <trkpt lat="42.42838" lon="0.10894">
        <ele>562.51</ele>
        <time>2014-06-04T06:37:54Z</time>
      </trkpt>
      <trkpt lat="42.42837" lon="0.10869">
        <ele>562.99</ele>
        <time>2014-06-04T06:37:58Z</time>
      </trkpt>
      <trkpt lat="42.42833" lon="0.10758">
        <ele>563.47</ele>
        <time>2014-06-04T06:38:16Z</time>
      </trkpt>
      <trkpt lat="42.42834" lon="0.10739">
        <ele>562.99</ele>
        <time>2014-06-04T06:38:19Z</time>
      </trkpt>
      <trkpt lat="42.42833" lon="0.10681">
        <ele>563.47</ele>
        <time>2014-06-04T06:38:28Z</time>
      </trkpt>
      <trkpt lat="42.42833" lon="0.10591">
        <ele>564.43</ele>
        <time>2014-06-04T06:38:42Z</time>
      </trkpt>
      <trkpt lat="42.42838" lon="0.10561">
        <ele>564.43</ele>
        <time>2014-06-04T06:38:47Z</time>
      </trkpt>
      <trkpt lat="42.42851" lon="0.10454">
        <ele>565.87</ele>
        <time>2014-06-04T06:39:04Z</time>
      </trkpt>
      <trkpt lat="42.42855" lon="0.10411">
        <ele>565.87</ele>
        <time>2014-06-04T06:39:11Z</time>
      </trkpt>
      <trkpt lat="42.42866" lon="0.10331">
        <ele>566.83</ele>
        <time>2014-06-04T06:39:24Z</time>
      </trkpt>
      <trkpt lat="42.42875" lon="0.10255">
        <ele>567.32</ele>
        <time>2014-06-04T06:39:36Z</time>
      </trkpt>
      <trkpt lat="42.42856" lon="0.10217">
        <ele>567.8</ele>
        <time>2014-06-04T06:39:44Z</time>
      </trkpt>
      <trkpt lat="42.42853" lon="0.10202">
        <ele>567.8</ele>
        <time>2014-06-04T06:39:47Z</time>
      </trkpt>
      <trkpt lat="42.4286" lon="0.10185">
        <ele>568.28</ele>
        <time>2014-06-04T06:39:50Z</time>
      </trkpt>
      <trkpt lat="42.4286" lon="0.10154">
        <ele>567.8</ele>
        <time>2014-06-04T06:39:55Z</time>
      </trkpt>
      <trkpt lat="42.42832" lon="0.10105">
        <ele>567.8</ele>
        <time>2014-06-04T06:40:05Z</time>
      </trkpt>
      <trkpt lat="42.42829" lon="0.10087">
        <ele>568.28</ele>
        <time>2014-06-04T06:40:08Z</time>
      </trkpt>
      <trkpt lat="42.42824" lon="0.10061">
        <ele>567.32</ele>
        <time>2014-06-04T06:40:12Z</time>
      </trkpt>
      <trkpt lat="42.42822" lon="0.10048">
        <ele>567.32</ele>
        <time>2014-06-04T06:40:14Z</time>
      </trkpt>
      <trkpt lat="42.42825" lon="0.0999">
        <ele>568.28</ele>
        <time>2014-06-04T06:40:23Z</time>
      </trkpt>
      <trkpt lat="42.42823" lon="0.09965">
        <ele>568.28</ele>
        <time>2014-06-04T06:40:27Z</time>
      </trkpt>
      <trkpt lat="42.42823" lon="0.09947">
        <ele>568.28</ele>
        <time>2014-06-04T06:40:30Z</time>
      </trkpt>
      <trkpt lat="42.42819" lon="0.09929">
        <ele>568.28</ele>
        <time>2014-06-04T06:40:33Z</time>
      </trkpt>
      <trkpt lat="42.42819" lon="0.09903">
        <ele>568.76</ele>
        <time>2014-06-04T06:40:37Z</time>
      </trkpt>
      <trkpt lat="42.42819" lon="0.09826">
        <ele>568.76</ele>
        <time>2014-06-04T06:40:49Z</time>
      </trkpt>
      <trkpt lat="42.42817" lon="0.09795">
        <ele>569.72</ele>
        <time>2014-06-04T06:40:54Z</time>
      </trkpt>
      <trkpt lat="42.42813" lon="0.09752">
        <ele>571.64</ele>
        <time>2014-06-04T06:41:02Z</time>
      </trkpt>
      <trkpt lat="42.42816" lon="0.09741">
        <ele>572.12</ele>
        <time>2014-06-04T06:41:04Z</time>
      </trkpt>
      <trkpt lat="42.42821" lon="0.09725">
        <ele>571.64</ele>
        <time>2014-06-04T06:41:07Z</time>
      </trkpt>
      <trkpt lat="42.42819" lon="0.09701">
        <ele>571.64</ele>
        <time>2014-06-04T06:41:11Z</time>
      </trkpt>
      <trkpt lat="42.42808" lon="0.09672">
        <ele>572.12</ele>
        <time>2014-06-04T06:41:16Z</time>
      </trkpt>
      <trkpt lat="42.42803" lon="0.09649">
        <ele>573.08</ele>
        <time>2014-06-04T06:41:20Z</time>
      </trkpt>
      <trkpt lat="42.4279" lon="0.09615">
        <ele>574.53</ele>
        <time>2014-06-04T06:41:27Z</time>
      </trkpt>
      <trkpt lat="42.42785" lon="0.09583">
        <ele>575.01</ele>
        <time>2014-06-04T06:41:33Z</time>
      </trkpt>
      <trkpt lat="42.42776" lon="0.09533">
        <ele>574.53</ele>
        <time>2014-06-04T06:41:41Z</time>
      </trkpt>
      <trkpt lat="42.42765" lon="0.09453">
        <ele>575.01</ele>
        <time>2014-06-04T06:41:56Z</time>
      </trkpt>
      <trkpt lat="42.42765" lon="0.09392">
        <ele>577.41</ele>
        <time>2014-06-04T06:42:11Z</time>
      </trkpt>
      <trkpt lat="42.42772" lon="0.09326">
        <ele>578.37</ele>
        <time>2014-06-04T06:42:26Z</time>
      </trkpt>
      <trkpt lat="42.42776" lon="0.09311">
        <ele>577.89</ele>
        <time>2014-06-04T06:42:29Z</time>
      </trkpt>
      <trkpt lat="42.42801" lon="0.09256">
        <ele>576.93</ele>
        <time>2014-06-04T06:42:40Z</time>
      </trkpt>
      <trkpt lat="42.42824" lon="0.09226">
        <ele>575.97</ele>
        <time>2014-06-04T06:42:47Z</time>
      </trkpt>
      <trkpt lat="42.42876" lon="0.09149">
        <ele>576.45</ele>
        <time>2014-06-04T06:43:04Z</time>
      </trkpt>
      <trkpt lat="42.42895" lon="0.09124">
        <ele>575.97</ele>
        <time>2014-06-04T06:43:10Z</time>
      </trkpt>
      <trkpt lat="42.42931" lon="0.09088">
        <ele>575.49</ele>
        <time>2014-06-04T06:43:20Z</time>
      </trkpt>
      <trkpt lat="42.4298" lon="0.09027">
        <ele>574.04</ele>
        <time>2014-06-04T06:43:34Z</time>
      </trkpt>
      <trkpt lat="42.42988" lon="0.09019">
        <ele>574.53</ele>
        <time>2014-06-04T06:43:36Z</time>
      </trkpt>
      <trkpt lat="42.43" lon="0.09001">
        <ele>574.53</ele>
        <time>2014-06-04T06:43:40Z</time>
      </trkpt>
      <trkpt lat="42.43041" lon="0.08913">
        <ele>575.01</ele>
        <time>2014-06-04T06:43:57Z</time>
      </trkpt>
      <trkpt lat="42.43066" lon="0.08856">
        <ele>576.93</ele>
        <time>2014-06-04T06:44:11Z</time>
      </trkpt>
      <trkpt lat="42.43072" lon="0.08845">
        <ele>575.97</ele>
        <time>2014-06-04T06:44:16Z</time>
      </trkpt>
      <trkpt lat="42.43075" lon="0.08842">
        <ele>575.01</ele>
        <time>2014-06-04T06:44:19Z</time>
      </trkpt>
      <trkpt lat="42.4308" lon="0.08835">
        <ele>575.49</ele>
        <time>2014-06-04T06:44:29Z</time>
      </trkpt>
      <trkpt lat="42.43084" lon="0.08826">
        <ele>575.01</ele>
        <time>2014-06-04T06:44:37Z</time>
      </trkpt>
      <trkpt lat="42.43087" lon="0.08826">
        <ele>575.01</ele>
        <time>2014-06-04T06:44:43Z</time>
      </trkpt>
      <trkpt lat="42.43099" lon="0.08826">
        <ele>575.97</ele>
        <time>2014-06-04T06:44:53Z</time>
      </trkpt>
      <trkpt lat="42.43103" lon="0.0882">
        <ele>576.45</ele>
        <time>2014-06-04T06:44:57Z</time>
      </trkpt>
      <trkpt lat="42.43124" lon="0.0878">
        <ele>576.45</ele>
        <time>2014-06-04T06:45:10Z</time>
      </trkpt>
      <trkpt lat="42.43163" lon="0.08757">
        <ele>577.41</ele>
        <time>2014-06-04T06:45:22Z</time>
      </trkpt>
      <trkpt lat="42.43197" lon="0.08717">
        <ele>577.89</ele>
        <time>2014-06-04T06:45:35Z</time>
      </trkpt>
      <trkpt lat="42.43217" lon="0.08678">
        <ele>578.37</ele>
        <time>2014-06-04T06:45:44Z</time>
      </trkpt>
      <trkpt lat="42.43227" lon="0.08659">
        <ele>578.37</ele>
        <time>2014-06-04T06:45:48Z</time>
      </trkpt>
      <trkpt lat="42.43267" lon="0.08584">
        <ele>579.33</ele>
        <time>2014-06-04T06:46:05Z</time>
      </trkpt>
      <trkpt lat="42.43299" lon="0.08525">
        <ele>579.33</ele>
        <time>2014-06-04T06:46:19Z</time>
      </trkpt>
      <trkpt lat="42.43329" lon="0.08473">
        <ele>579.81</ele>
        <time>2014-06-04T06:46:33Z</time>
      </trkpt>
      <trkpt lat="42.43329" lon="0.08468">
        <ele>579.81</ele>
        <time>2014-06-04T06:46:34Z</time>
      </trkpt>
      <trkpt lat="42.43286" lon="0.0843">
        <ele>580.77</ele>
        <time>2014-06-04T06:46:48Z</time>
      </trkpt>
      <trkpt lat="42.43267" lon="0.08398">
        <ele>581.73</ele>
        <time>2014-06-04T06:47:01Z</time>
      </trkpt>
      <trkpt lat="42.4326" lon="0.08385">
        <ele>582.22</ele>
        <time>2014-06-04T06:47:07Z</time>
      </trkpt>
      <trkpt lat="42.43222" lon="0.08365">
        <ele>581.73</ele>
        <time>2014-06-04T06:47:22Z</time>
      </trkpt>
      <trkpt lat="42.43176" lon="0.08338">
        <ele>582.7</ele>
        <time>2014-06-04T06:47:38Z</time>
      </trkpt>
      <trkpt lat="42.43108" lon="0.08297">
        <ele>583.18</ele>
        <time>2014-06-04T06:47:58Z</time>
      </trkpt>
      <trkpt lat="42.43053" lon="0.08263">
        <ele>584.14</ele>
        <time>2014-06-04T06:48:14Z</time>
      </trkpt>
      <trkpt lat="42.43003" lon="0.08234">
        <ele>585.1</ele>
        <time>2014-06-04T06:48:28Z</time>
      </trkpt>
      <trkpt lat="42.42946" lon="0.082">
        <ele>586.54</ele>
        <time>2014-06-04T06:48:44Z</time>
      </trkpt>
      <trkpt lat="42.42932" lon="0.08191">
        <ele>586.54</ele>
        <time>2014-06-04T06:48:48Z</time>
      </trkpt>
      <trkpt lat="42.42877" lon="0.08158">
        <ele>588.95</ele>
        <time>2014-06-04T06:49:04Z</time>
      </trkpt>
      <trkpt lat="42.42835" lon="0.08133">
        <ele>590.39</ele>
        <time>2014-06-04T06:49:17Z</time>
      </trkpt>
      <trkpt lat="42.42807" lon="0.0812">
        <ele>591.83</ele>
        <time>2014-06-04T06:49:28Z</time>
      </trkpt>
      <trkpt lat="42.42807" lon="0.0812">
        <ele>591.35</ele>
        <time>2014-06-04T06:49:46Z</time>
      </trkpt>
      <trkpt lat="42.42805" lon="0.08117">
        <ele>591.83</ele>
        <time>2014-06-04T06:49:49Z</time>
      </trkpt>
      <trkpt lat="42.428" lon="0.08115">
        <ele>590.87</ele>
        <time>2014-06-04T06:49:53Z</time>
      </trkpt>
      <trkpt lat="42.42788" lon="0.08103">
        <ele>591.35</ele>
        <time>2014-06-04T06:50:01Z</time>
      </trkpt>
      <trkpt lat="42.42742" lon="0.0806">
        <ele>592.79</ele>
        <time>2014-06-04T06:50:18Z</time>
      </trkpt>
      <trkpt lat="42.42718" lon="0.07998">
        <ele>594.71</ele>
        <time>2014-06-04T06:50:33Z</time>
      </trkpt>
      <trkpt lat="42.42699" lon="0.07936">
        <ele>597.12</ele>
        <time>2014-06-04T06:50:48Z</time>
      </trkpt>
      <trkpt lat="42.42689" lon="0.0791">
        <ele>597.12</ele>
        <time>2014-06-04T06:50:56Z</time>
      </trkpt>
      <trkpt lat="42.42672" lon="0.07889">
        <ele>593.75</ele>
        <time>2014-06-04T06:51:01Z</time>
      </trkpt>
      <trkpt lat="42.42648" lon="0.07866">
        <ele>593.75</ele>
        <time>2014-06-04T06:51:10Z</time>
      </trkpt>
      <trkpt lat="42.42627" lon="0.07837">
        <ele>593.75</ele>
        <time>2014-06-04T06:51:22Z</time>
      </trkpt>
      <trkpt lat="42.42605" lon="0.07827">
        <ele>594.23</ele>
        <time>2014-06-04T06:51:31Z</time>
      </trkpt>
      <trkpt lat="42.42576" lon="0.0781">
        <ele>595.19</ele>
        <time>2014-06-04T06:51:42Z</time>
      </trkpt>
      <trkpt lat="42.42564" lon="0.078">
        <ele>594.71</ele>
        <time>2014-06-04T06:51:47Z</time>
      </trkpt>
      <trkpt lat="42.42542" lon="0.07762">
        <ele>595.19</ele>
        <time>2014-06-04T06:52:01Z</time>
      </trkpt>
      <trkpt lat="42.4253" lon="0.0773">
        <ele>596.15</ele>
        <time>2014-06-04T06:52:12Z</time>
      </trkpt>
      <trkpt lat="42.4253" lon="0.07726">
        <ele>595.67</ele>
        <time>2014-06-04T06:52:13Z</time>
      </trkpt>
      <trkpt lat="42.42529" lon="0.07707">
        <ele>596.15</ele>
        <time>2014-06-04T06:52:20Z</time>
      </trkpt>
      <trkpt lat="42.4253" lon="0.07703">
        <ele>596.64</ele>
        <time>2014-06-04T06:52:22Z</time>
      </trkpt>
      <trkpt lat="42.42533" lon="0.07689">
        <ele>596.64</ele>
        <time>2014-06-04T06:52:27Z</time>
      </trkpt>
      <trkpt lat="42.42539" lon="0.07676">
        <ele>597.6</ele>
        <time>2014-06-04T06:52:32Z</time>
      </trkpt>
      <trkpt lat="42.42537" lon="0.07667">
        <ele>597.6</ele>
        <time>2014-06-04T06:52:36Z</time>
      </trkpt>
      <trkpt lat="42.42531" lon="0.07661">
        <ele>598.08</ele>
        <time>2014-06-04T06:52:41Z</time>
      </trkpt>
      <trkpt lat="42.42527" lon="0.07638">
        <ele>598.08</ele>
        <time>2014-06-04T06:52:51Z</time>
      </trkpt>
      <trkpt lat="42.42524" lon="0.0763">
        <ele>598.08</ele>
        <time>2014-06-04T06:52:54Z</time>
      </trkpt>
      <trkpt lat="42.42517" lon="0.07626">
        <ele>598.56</ele>
        <time>2014-06-04T06:52:58Z</time>
      </trkpt>
      <trkpt lat="42.42488" lon="0.07626">
        <ele>600</ele>
        <time>2014-06-04T06:53:14Z</time>
      </trkpt>
      <trkpt lat="42.42476" lon="0.0763">
        <ele>601.44</ele>
        <time>2014-06-04T06:53:20Z</time>
      </trkpt>
      <trkpt lat="42.42472" lon="0.07626">
        <ele>601.44</ele>
        <time>2014-06-04T06:53:23Z</time>
      </trkpt>
      <trkpt lat="42.42462" lon="0.07615">
        <ele>601.92</ele>
        <time>2014-06-04T06:53:31Z</time>
      </trkpt>
      <trkpt lat="42.42448" lon="0.07602">
        <ele>602.88</ele>
        <time>2014-06-04T06:53:41Z</time>
      </trkpt>
      <trkpt lat="42.42441" lon="0.07603">
        <ele>603.85</ele>
        <time>2014-06-04T06:53:46Z</time>
      </trkpt>
      <trkpt lat="42.42421" lon="0.0761">
        <ele>607.69</ele>
        <time>2014-06-04T06:53:58Z</time>
      </trkpt>
      <trkpt lat="42.4242" lon="0.07611">
        <ele>607.69</ele>
        <time>2014-06-04T06:53:59Z</time>
      </trkpt>
      <trkpt lat="42.42401" lon="0.07613">
        <ele>611.06</ele>
        <time>2014-06-04T06:54:11Z</time>
      </trkpt>
      <trkpt lat="42.42396" lon="0.07612">
        <ele>612.5</ele>
        <time>2014-06-04T06:54:14Z</time>
      </trkpt>
      <trkpt lat="42.42384" lon="0.07608">
        <ele>614.9</ele>
        <time>2014-06-04T06:54:23Z</time>
      </trkpt>
      <trkpt lat="42.42376" lon="0.07595">
        <ele>617.3</ele>
        <time>2014-06-04T06:54:32Z</time>
      </trkpt>
      <trkpt lat="42.42361" lon="0.07577">
        <ele>621.15</ele>
        <time>2014-06-04T06:54:46Z</time>
      </trkpt>
      <trkpt lat="42.42354" lon="0.07568">
        <ele>622.11</ele>
        <time>2014-06-04T06:54:52Z</time>
      </trkpt>
      <trkpt lat="42.42349" lon="0.07562">
        <ele>623.55</ele>
        <time>2014-06-04T06:54:57Z</time>
      </trkpt>
      <trkpt lat="42.42345" lon="0.0756">
        <ele>624.51</ele>
        <time>2014-06-04T06:55:00Z</time>
      </trkpt>
      <trkpt lat="42.42336" lon="0.07552">
        <ele>627.88</ele>
        <time>2014-06-04T06:55:09Z</time>
      </trkpt>
      <trkpt lat="42.42326" lon="0.07539">
        <ele>630.76</ele>
        <time>2014-06-04T06:55:19Z</time>
      </trkpt>
      <trkpt lat="42.42319" lon="0.07526">
        <ele>633.17</ele>
        <time>2014-06-04T06:55:27Z</time>
      </trkpt>
      <trkpt lat="42.42309" lon="0.07509">
        <ele>636.53</ele>
        <time>2014-06-04T06:55:39Z</time>
      </trkpt>
      <trkpt lat="42.42295" lon="0.07493">
        <ele>639.41</ele>
        <time>2014-06-04T06:55:52Z</time>
      </trkpt>
      <trkpt lat="42.42283" lon="0.07484">
        <ele>641.34</ele>
        <time>2014-06-04T06:56:02Z</time>
      </trkpt>
      <trkpt lat="42.4228" lon="0.07478">
        <ele>641.82</ele>
        <time>2014-06-04T06:56:06Z</time>
      </trkpt>
      <trkpt lat="42.42277" lon="0.07474">
        <ele>642.78</ele>
        <time>2014-06-04T06:56:09Z</time>
      </trkpt>
      <trkpt lat="42.42272" lon="0.07463">
        <ele>644.7</ele>
        <time>2014-06-04T06:56:16Z</time>
      </trkpt>
      <trkpt lat="42.4227" lon="0.07456">
        <ele>645.66</ele>
        <time>2014-06-04T06:56:20Z</time>
      </trkpt>
      <trkpt lat="42.4227" lon="0.07454">
        <ele>646.14</ele>
        <time>2014-06-04T06:56:21Z</time>
      </trkpt>
      <trkpt lat="42.42267" lon="0.07449">
        <ele>647.1</ele>
        <time>2014-06-04T06:56:25Z</time>
      </trkpt>
      <trkpt lat="42.42261" lon="0.07434">
        <ele>649.03</ele>
        <time>2014-06-04T06:56:35Z</time>
      </trkpt>
      <trkpt lat="42.42258" lon="0.0743">
        <ele>649.99</ele>
        <time>2014-06-04T06:56:39Z</time>
      </trkpt>
      <trkpt lat="42.42245" lon="0.07417">
        <ele>653.35</ele>
        <time>2014-06-04T06:56:51Z</time>
      </trkpt>
      <trkpt lat="42.42244" lon="0.07417">
        <ele>653.35</ele>
        <time>2014-06-04T06:56:52Z</time>
      </trkpt>
      <trkpt lat="42.4224" lon="0.07411">
        <ele>654.31</ele>
        <time>2014-06-04T06:56:59Z</time>
      </trkpt>
      <trkpt lat="42.4224" lon="0.07397">
        <ele>656.24</ele>
        <time>2014-06-04T06:57:10Z</time>
      </trkpt>
      <trkpt lat="42.42238" lon="0.07384">
        <ele>658.16</ele>
        <time>2014-06-04T06:57:21Z</time>
      </trkpt>
      <trkpt lat="42.42237" lon="0.0738">
        <ele>659.12</ele>
        <time>2014-06-04T06:57:24Z</time>
      </trkpt>
      <trkpt lat="42.42237" lon="0.07377">
        <ele>659.6</ele>
        <time>2014-06-04T06:57:27Z</time>
      </trkpt>
      <trkpt lat="42.42236" lon="0.07361">
        <ele>661.52</ele>
        <time>2014-06-04T06:57:41Z</time>
      </trkpt>
      <trkpt lat="42.42237" lon="0.07354">
        <ele>662.49</ele>
        <time>2014-06-04T06:57:53Z</time>
      </trkpt>
      <trkpt lat="42.4224" lon="0.07335">
        <ele>664.41</ele>
        <time>2014-06-04T06:58:05Z</time>
      </trkpt>
      <trkpt lat="42.42242" lon="0.07324">
        <ele>665.85</ele>
        <time>2014-06-04T06:58:11Z</time>
      </trkpt>
      <trkpt lat="42.42243" lon="0.0731">
        <ele>667.29</ele>
        <time>2014-06-04T06:58:20Z</time>
      </trkpt>
      <trkpt lat="42.42237" lon="0.07301">
        <ele>668.25</ele>
        <time>2014-06-04T06:58:26Z</time>
      </trkpt>
      <trkpt lat="42.4222" lon="0.07278">
        <ele>670.66</ele>
        <time>2014-06-04T06:58:40Z</time>
      </trkpt>
      <trkpt lat="42.42218" lon="0.07277">
        <ele>670.66</ele>
        <time>2014-06-04T06:58:41Z</time>
      </trkpt>
      <trkpt lat="42.42208" lon="0.07248">
        <ele>672.58</ele>
        <time>2014-06-04T06:58:54Z</time>
      </trkpt>
      <trkpt lat="42.42198" lon="0.07223">
        <ele>674.98</ele>
        <time>2014-06-04T06:59:06Z</time>
      </trkpt>
      <trkpt lat="42.42173" lon="0.07197">
        <ele>676.42</ele>
        <time>2014-06-04T06:59:22Z</time>
      </trkpt>
      <trkpt lat="42.42148" lon="0.07182">
        <ele>678.35</ele>
        <time>2014-06-04T06:59:36Z</time>
      </trkpt>
      <trkpt lat="42.42117" lon="0.0716">
        <ele>678.83</ele>
        <time>2014-06-04T06:59:51Z</time>
      </trkpt>
      <trkpt lat="42.42113" lon="0.07151">
        <ele>679.31</ele>
        <time>2014-06-04T06:59:54Z</time>
      </trkpt>
      <trkpt lat="42.42117" lon="0.07131">
        <ele>680.75</ele>
        <time>2014-06-04T07:00:01Z</time>
      </trkpt>
      <trkpt lat="42.42124" lon="0.07113">
        <ele>681.71</ele>
        <time>2014-06-04T07:00:08Z</time>
      </trkpt>
      <trkpt lat="42.42137" lon="0.0708">
        <ele>684.12</ele>
        <time>2014-06-04T07:00:22Z</time>
      </trkpt>
      <trkpt lat="42.42138" lon="0.07075">
        <ele>684.6</ele>
        <time>2014-06-04T07:00:24Z</time>
      </trkpt>
      <trkpt lat="42.42137" lon="0.07067">
        <ele>686.04</ele>
        <time>2014-06-04T07:00:28Z</time>
      </trkpt>
      <trkpt lat="42.42126" lon="0.07057">
        <ele>688.44</ele>
        <time>2014-06-04T07:00:35Z</time>
      </trkpt>
      <trkpt lat="42.42124" lon="0.07056">
        <ele>688.44</ele>
        <time>2014-06-04T07:00:36Z</time>
      </trkpt>
      <trkpt lat="42.42115" lon="0.07048">
        <ele>689.88</ele>
        <time>2014-06-04T07:00:43Z</time>
      </trkpt>
      <trkpt lat="42.42111" lon="0.07044">
        <ele>690.84</ele>
        <time>2014-06-04T07:00:46Z</time>
      </trkpt>
      <trkpt lat="42.42107" lon="0.07036">
        <ele>691.81</ele>
        <time>2014-06-04T07:00:51Z</time>
      </trkpt>
      <trkpt lat="42.42093" lon="0.07009">
        <ele>694.21</ele>
        <time>2014-06-04T07:01:05Z</time>
      </trkpt>
      <trkpt lat="42.4208" lon="0.06985">
        <ele>696.13</ele>
        <time>2014-06-04T07:01:20Z</time>
      </trkpt>
      <trkpt lat="42.42064" lon="0.06964">
        <ele>698.05</ele>
        <time>2014-06-04T07:01:33Z</time>
      </trkpt>
      <trkpt lat="42.42056" lon="0.06947">
        <ele>699.02</ele>
        <time>2014-06-04T07:01:42Z</time>
      </trkpt>
      <trkpt lat="42.42051" lon="0.06939">
        <ele>699.98</ele>
        <time>2014-06-04T07:01:56Z</time>
      </trkpt>
      <trkpt lat="42.42051" lon="0.06939">
        <ele>700.46</ele>
        <time>2014-06-04T07:02:17Z</time>
      </trkpt>
      <trkpt lat="42.42052" lon="0.06939">
        <ele>700.46</ele>
        <time>2014-06-04T07:02:34Z</time>
      </trkpt>
      <trkpt lat="42.42052" lon="0.06939">
        <ele>700.94</ele>
        <time>2014-06-04T07:02:53Z</time>
      </trkpt>
      <trkpt lat="42.42052" lon="0.06939">
        <ele>700.46</ele>
        <time>2014-06-04T07:03:12Z</time>
      </trkpt>
      <trkpt lat="42.42052" lon="0.06939">
        <ele>699.98</ele>
        <time>2014-06-04T07:03:38Z</time>
      </trkpt>
      <trkpt lat="42.42053" lon="0.06939">
        <ele>700.46</ele>
        <time>2014-06-04T07:04:16Z</time>
      </trkpt>
      <trkpt lat="42.42053" lon="0.06939">
        <ele>699.98</ele>
        <time>2014-06-04T07:04:50Z</time>
      </trkpt>
      <trkpt lat="42.42053" lon="0.06939">
        <ele>699.98</ele>
        <time>2014-06-04T07:05:22Z</time>
      </trkpt>
      <trkpt lat="42.42053" lon="0.06939">
        <ele>700.46</ele>
        <time>2014-06-04T07:05:58Z</time>
      </trkpt>
      <trkpt lat="42.42053" lon="0.06939">
        <ele>700.94</ele>
        <time>2014-06-04T07:06:17Z</time>
      </trkpt>
      <trkpt lat="42.42053" lon="0.06939">
        <ele>700.94</ele>
        <time>2014-06-04T07:06:43Z</time>
      </trkpt>
      <trkpt lat="42.42053" lon="0.06939">
        <ele>700.94</ele>
        <time>2014-06-04T07:07:13Z</time>
      </trkpt>
      <trkpt lat="42.42053" lon="0.06939">
        <ele>700.46</ele>
        <time>2014-06-04T07:07:36Z</time>
      </trkpt>
      <trkpt lat="42.42053" lon="0.06939">
        <ele>699.98</ele>
        <time>2014-06-04T07:07:57Z</time>
      </trkpt>
      <trkpt lat="42.42053" lon="0.06939">
        <ele>700.46</ele>
        <time>2014-06-04T07:08:32Z</time>
      </trkpt>
      <trkpt lat="42.42053" lon="0.06938">
        <ele>700.46</ele>
        <time>2014-06-04T07:09:06Z</time>
      </trkpt>
      <trkpt lat="42.42053" lon="0.06938">
        <ele>700.46</ele>
        <time>2014-06-04T07:09:43Z</time>
      </trkpt>
      <trkpt lat="42.42049" lon="0.06937">
        <ele>700.46</ele>
        <time>2014-06-04T07:09:47Z</time>
      </trkpt>
      <trkpt lat="42.42035" lon="0.06927">
        <ele>700.46</ele>
        <time>2014-06-04T07:09:55Z</time>
      </trkpt>
      <trkpt lat="42.42005" lon="0.06908">
        <ele>702.86</ele>
        <time>2014-06-04T07:10:10Z</time>
      </trkpt>
      <trkpt lat="42.4199" lon="0.06891">
        <ele>706.23</ele>
        <time>2014-06-04T07:10:20Z</time>
      </trkpt>
      <trkpt lat="42.41985" lon="0.06885">
        <ele>706.23</ele>
        <time>2014-06-04T07:10:24Z</time>
      </trkpt>
      <trkpt lat="42.4198" lon="0.06876">
        <ele>707.67</ele>
        <time>2014-06-04T07:10:29Z</time>
      </trkpt>
      <trkpt lat="42.41971" lon="0.06861">
        <ele>710.07</ele>
        <time>2014-06-04T07:10:38Z</time>
      </trkpt>
      <trkpt lat="42.41966" lon="0.06841">
        <ele>713.44</ele>
        <time>2014-06-04T07:10:49Z</time>
      </trkpt>
      <trkpt lat="42.41964" lon="0.06831">
        <ele>715.84</ele>
        <time>2014-06-04T07:10:55Z</time>
      </trkpt>
      <trkpt lat="42.41961" lon="0.06822">
        <ele>717.28</ele>
        <time>2014-06-04T07:11:01Z</time>
      </trkpt>
      <trkpt lat="42.41956" lon="0.06796">
        <ele>720.16</ele>
        <time>2014-06-04T07:11:16Z</time>
      </trkpt>
      <trkpt lat="42.41948" lon="0.06775">
        <ele>720.16</ele>
        <time>2014-06-04T07:11:27Z</time>
      </trkpt>
      <trkpt lat="42.41942" lon="0.06774">
        <ele>719.68</ele>
        <time>2014-06-04T07:11:31Z</time>
      </trkpt>
      <trkpt lat="42.41921" lon="0.06775">
        <ele>720.65</ele>
        <time>2014-06-04T07:11:43Z</time>
      </trkpt>
      <trkpt lat="42.41914" lon="0.06773">
        <ele>722.09</ele>
        <time>2014-06-04T07:11:47Z</time>
      </trkpt>
      <trkpt lat="42.41893" lon="0.0676">
        <ele>724.97</ele>
        <time>2014-06-04T07:12:01Z</time>
      </trkpt>
      <trkpt lat="42.41871" lon="0.06739">
        <ele>726.89</ele>
        <time>2014-06-04T07:12:15Z</time>
      </trkpt>
      <trkpt lat="42.41851" lon="0.06719">
        <ele>727.86</ele>
        <time>2014-06-04T07:12:28Z</time>
      </trkpt>
      <trkpt lat="42.41842" lon="0.06708">
        <ele>729.78</ele>
        <time>2014-06-04T07:12:36Z</time>
      </trkpt>
      <trkpt lat="42.41842" lon="0.06706">
        <ele>730.26</ele>
        <time>2014-06-04T07:12:38Z</time>
      </trkpt>
      <trkpt lat="42.41822" lon="0.06696">
        <ele>731.7</ele>
        <time>2014-06-04T07:12:51Z</time>
      </trkpt>
      <trkpt lat="42.41806" lon="0.06688">
        <ele>732.66</ele>
        <time>2014-06-04T07:13:02Z</time>
      </trkpt>
      <trkpt lat="42.41805" lon="0.06687">
        <ele>733.14</ele>
        <time>2014-06-04T07:13:03Z</time>
      </trkpt>
      <trkpt lat="42.41792" lon="0.06683">
        <ele>734.58</ele>
        <time>2014-06-04T07:13:13Z</time>
      </trkpt>
      <trkpt lat="42.41789" lon="0.06676">
        <ele>735.55</ele>
        <time>2014-06-04T07:13:17Z</time>
      </trkpt>
      <trkpt lat="42.41784" lon="0.06671">
        <ele>736.51</ele>
        <time>2014-06-04T07:13:20Z</time>
      </trkpt>
      <trkpt lat="42.41775" lon="0.06666">
        <ele>738.43</ele>
        <time>2014-06-04T07:13:27Z</time>
      </trkpt>
      <trkpt lat="42.41767" lon="0.06661">
        <ele>739.87</ele>
        <time>2014-06-04T07:13:33Z</time>
      </trkpt>
      <trkpt lat="42.41755" lon="0.06647">
        <ele>741.79</ele>
        <time>2014-06-04T07:13:45Z</time>
      </trkpt>
      <trkpt lat="42.4175" lon="0.06648">
        <ele>743.24</ele>
        <time>2014-06-04T07:13:48Z</time>
      </trkpt>
      <trkpt lat="42.41734" lon="0.06654">
        <ele>746.6</ele>
        <time>2014-06-04T07:13:59Z</time>
      </trkpt>
      <trkpt lat="42.41731" lon="0.06655">
        <ele>747.56</ele>
        <time>2014-06-04T07:14:02Z</time>
      </trkpt>
      <trkpt lat="42.4172" lon="0.06654">
        <ele>749</ele>
        <time>2014-06-04T07:14:09Z</time>
      </trkpt>
      <trkpt lat="42.41696" lon="0.06654">
        <ele>749</ele>
        <time>2014-06-04T07:14:22Z</time>
      </trkpt>
      <trkpt lat="42.41685" lon="0.0665">
        <ele>750.93</ele>
        <time>2014-06-04T07:14:29Z</time>
      </trkpt>
      <trkpt lat="42.41681" lon="0.0665">
        <ele>751.89</ele>
        <time>2014-06-04T07:14:32Z</time>
      </trkpt>
      <trkpt lat="42.4168" lon="0.0665">
        <ele>752.37</ele>
        <time>2014-06-04T07:14:33Z</time>
      </trkpt>
      <trkpt lat="42.41672" lon="0.06649">
        <ele>754.77</ele>
        <time>2014-06-04T07:14:40Z</time>
      </trkpt>
      <trkpt lat="42.41664" lon="0.06644">
        <ele>755.25</ele>
        <time>2014-06-04T07:14:45Z</time>
      </trkpt>
      <trkpt lat="42.4165" lon="0.06624">
        <ele>756.21</ele>
        <time>2014-06-04T07:14:56Z</time>
      </trkpt>
      <trkpt lat="42.41643" lon="0.06604">
        <ele>759.58</ele>
        <time>2014-06-04T07:15:07Z</time>
      </trkpt>
      <trkpt lat="42.4164" lon="0.06598">
        <ele>759.1</ele>
        <time>2014-06-04T07:15:10Z</time>
      </trkpt>
      <trkpt lat="42.41641" lon="0.06591">
        <ele>760.06</ele>
        <time>2014-06-04T07:15:14Z</time>
      </trkpt>
      <trkpt lat="42.41634" lon="0.06578">
        <ele>761.5</ele>
        <time>2014-06-04T07:15:24Z</time>
      </trkpt>
      <trkpt lat="42.4163" lon="0.06568">
        <ele>763.9</ele>
        <time>2014-06-04T07:15:36Z</time>
      </trkpt>
      <trkpt lat="42.4163" lon="0.06558">
        <ele>766.79</ele>
        <time>2014-06-04T07:15:47Z</time>
      </trkpt>
      <trkpt lat="42.41623" lon="0.06549">
        <ele>768.71</ele>
        <time>2014-06-04T07:15:58Z</time>
      </trkpt>
      <trkpt lat="42.41621" lon="0.06544">
        <ele>769.67</ele>
        <time>2014-06-04T07:16:02Z</time>
      </trkpt>
      <trkpt lat="42.41615" lon="0.0653">
        <ele>771.6</ele>
        <time>2014-06-04T07:16:15Z</time>
      </trkpt>
      <trkpt lat="42.41605" lon="0.0651">
        <ele>774</ele>
        <time>2014-06-04T07:16:27Z</time>
      </trkpt>
      <trkpt lat="42.41601" lon="0.06503">
        <ele>774.96</ele>
        <time>2014-06-04T07:16:31Z</time>
      </trkpt>
      <trkpt lat="42.41596" lon="0.06497">
        <ele>775.92</ele>
        <time>2014-06-04T07:16:35Z</time>
      </trkpt>
      <trkpt lat="42.41592" lon="0.06491">
        <ele>776.4</ele>
        <time>2014-06-04T07:16:39Z</time>
      </trkpt>
      <trkpt lat="42.41584" lon="0.06484">
        <ele>777.84</ele>
        <time>2014-06-04T07:16:45Z</time>
      </trkpt>
      <trkpt lat="42.41577" lon="0.06476">
        <ele>778.81</ele>
        <time>2014-06-04T07:16:52Z</time>
      </trkpt>
      <trkpt lat="42.41572" lon="0.0647">
        <ele>780.25</ele>
        <time>2014-06-04T07:16:57Z</time>
      </trkpt>
      <trkpt lat="42.41558" lon="0.06449">
        <ele>783.13</ele>
        <time>2014-06-04T07:17:10Z</time>
      </trkpt>
      <trkpt lat="42.41553" lon="0.06431">
        <ele>786.02</ele>
        <time>2014-06-04T07:17:21Z</time>
      </trkpt>
      <trkpt lat="42.4155" lon="0.06418">
        <ele>787.94</ele>
        <time>2014-06-04T07:17:30Z</time>
      </trkpt>
      <trkpt lat="42.41549" lon="0.06414">
        <ele>787.94</ele>
        <time>2014-06-04T07:17:32Z</time>
      </trkpt>
      <trkpt lat="42.41537" lon="0.06389">
        <ele>789.86</ele>
        <time>2014-06-04T07:17:44Z</time>
      </trkpt>
      <trkpt lat="42.4153" lon="0.06374">
        <ele>791.3</ele>
        <time>2014-06-04T07:17:52Z</time>
      </trkpt>
      <trkpt lat="42.41519" lon="0.06364">
        <ele>792.74</ele>
        <time>2014-06-04T07:18:04Z</time>
      </trkpt>
      <trkpt lat="42.41519" lon="0.06363">
        <ele>792.26</ele>
        <time>2014-06-04T07:18:09Z</time>
      </trkpt>
      <trkpt lat="42.41519" lon="0.06361">
        <ele>792.74</ele>
        <time>2014-06-04T07:18:11Z</time>
      </trkpt>
      <trkpt lat="42.41511" lon="0.06356">
        <ele>792.74</ele>
        <time>2014-06-04T07:18:17Z</time>
      </trkpt>
      <trkpt lat="42.41506" lon="0.06352">
        <ele>793.71</ele>
        <time>2014-06-04T07:18:21Z</time>
      </trkpt>
      <trkpt lat="42.4149" lon="0.06345">
        <ele>794.67</ele>
        <time>2014-06-04T07:18:31Z</time>
      </trkpt>
      <trkpt lat="42.41465" lon="0.0633">
        <ele>797.55</ele>
        <time>2014-06-04T07:18:45Z</time>
      </trkpt>
      <trkpt lat="42.41451" lon="0.06331">
        <ele>798.99</ele>
        <time>2014-06-04T07:18:53Z</time>
      </trkpt>
      <trkpt lat="42.41444" lon="0.06329">
        <ele>799.47</ele>
        <time>2014-06-04T07:18:57Z</time>
      </trkpt>
      <trkpt lat="42.41427" lon="0.06325">
        <ele>800.44</ele>
        <time>2014-06-04T07:19:07Z</time>
      </trkpt>
      <trkpt lat="42.41409" lon="0.06318">
        <ele>800.44</ele>
        <time>2014-06-04T07:19:16Z</time>
      </trkpt>
      <trkpt lat="42.414" lon="0.06316">
        <ele>799.95</ele>
        <time>2014-06-04T07:19:26Z</time>
      </trkpt>
      <trkpt lat="42.41398" lon="0.06317">
        <ele>799.95</ele>
        <time>2014-06-04T07:19:39Z</time>
      </trkpt>
      <trkpt lat="42.41378" lon="0.06299">
        <ele>800.92</ele>
        <time>2014-06-04T07:19:49Z</time>
      </trkpt>
      <trkpt lat="42.41356" lon="0.06276">
        <ele>802.36</ele>
        <time>2014-06-04T07:20:00Z</time>
      </trkpt>
      <trkpt lat="42.41351" lon="0.06273">
        <ele>802.84</ele>
        <time>2014-06-04T07:20:02Z</time>
      </trkpt>
      <trkpt lat="42.41335" lon="0.06269">
        <ele>803.32</ele>
        <time>2014-06-04T07:20:09Z</time>
      </trkpt>
      <trkpt lat="42.41328" lon="0.06263">
        <ele>804.28</ele>
        <time>2014-06-04T07:20:13Z</time>
      </trkpt>
      <trkpt lat="42.4131" lon="0.06237">
        <ele>805.24</ele>
        <time>2014-06-04T07:20:25Z</time>
      </trkpt>
      <trkpt lat="42.41296" lon="0.06224">
        <ele>806.68</ele>
        <time>2014-06-04T07:20:33Z</time>
      </trkpt>
      <trkpt lat="42.41287" lon="0.06214">
        <ele>807.64</ele>
        <time>2014-06-04T07:20:39Z</time>
      </trkpt>
      <trkpt lat="42.41277" lon="0.06211">
        <ele>808.61</ele>
        <time>2014-06-04T07:20:44Z</time>
      </trkpt>
      <trkpt lat="42.41262" lon="0.06221">
        <ele>808.13</ele>
        <time>2014-06-04T07:20:50Z</time>
      </trkpt>
      <trkpt lat="42.4123" lon="0.06219">
        <ele>807.16</ele>
        <time>2014-06-04T07:21:00Z</time>
      </trkpt>
      <trkpt lat="42.41205" lon="0.06218">
        <ele>809.57</ele>
        <time>2014-06-04T07:21:08Z</time>
      </trkpt>
      <trkpt lat="42.41197" lon="0.06215">
        <ele>809.57</ele>
        <time>2014-06-04T07:21:12Z</time>
      </trkpt>
      <trkpt lat="42.41193" lon="0.06214">
        <ele>810.53</ele>
        <time>2014-06-04T07:21:14Z</time>
      </trkpt>
      <trkpt lat="42.4118" lon="0.06193">
        <ele>811.01</ele>
        <time>2014-06-04T07:21:24Z</time>
      </trkpt>
      <trkpt lat="42.41176" lon="0.06183">
        <ele>810.53</ele>
        <time>2014-06-04T07:21:26Z</time>
      </trkpt>
      <trkpt lat="42.41169" lon="0.06173">
        <ele>812.45</ele>
        <time>2014-06-04T07:21:29Z</time>
      </trkpt>
      <trkpt lat="42.41163" lon="0.06142">
        <ele>810.53</ele>
        <time>2014-06-04T07:21:35Z</time>
      </trkpt>
      <trkpt lat="42.4116" lon="0.06131">
        <ele>810.53</ele>
        <time>2014-06-04T07:21:37Z</time>
      </trkpt>
      <trkpt lat="42.41158" lon="0.06112">
        <ele>810.05</ele>
        <time>2014-06-04T07:21:42Z</time>
      </trkpt>
      <trkpt lat="42.41142" lon="0.06101">
        <ele>809.09</ele>
        <time>2014-06-04T07:21:49Z</time>
      </trkpt>
      <trkpt lat="42.41126" lon="0.06094">
        <ele>807.64</ele>
        <time>2014-06-04T07:21:53Z</time>
      </trkpt>
      <trkpt lat="42.41112" lon="0.0609">
        <ele>806.2</ele>
        <time>2014-06-04T07:21:56Z</time>
      </trkpt>
      <trkpt lat="42.41104" lon="0.06086">
        <ele>804.28</ele>
        <time>2014-06-04T07:21:58Z</time>
      </trkpt>
      <trkpt lat="42.4109" lon="0.06082">
        <ele>803.32</ele>
        <time>2014-06-04T07:22:00Z</time>
      </trkpt>
      <trkpt lat="42.41076" lon="0.06073">
        <ele>801.4</ele>
        <time>2014-06-04T07:22:03Z</time>
      </trkpt>
      <trkpt lat="42.41061" lon="0.06059">
        <ele>802.84</ele>
        <time>2014-06-04T07:22:12Z</time>
      </trkpt>
      <trkpt lat="42.41055" lon="0.06057">
        <ele>804.28</ele>
        <time>2014-06-04T07:22:17Z</time>
      </trkpt>
      <trkpt lat="42.41041" lon="0.06056">
        <ele>806.68</ele>
        <time>2014-06-04T07:22:29Z</time>
      </trkpt>
      <trkpt lat="42.41014" lon="0.06049">
        <ele>806.2</ele>
        <time>2014-06-04T07:22:39Z</time>
      </trkpt>
      <trkpt lat="42.41006" lon="0.06048">
        <ele>805.24</ele>
        <time>2014-06-04T07:22:41Z</time>
      </trkpt>
      <trkpt lat="42.40983" lon="0.06053">
        <ele>805.72</ele>
        <time>2014-06-04T07:22:47Z</time>
      </trkpt>
      <trkpt lat="42.4097" lon="0.06053">
        <ele>803.8</ele>
        <time>2014-06-04T07:22:51Z</time>
      </trkpt>
      <trkpt lat="42.4095" lon="0.06037">
        <ele>806.68</ele>
        <time>2014-06-04T07:23:01Z</time>
      </trkpt>
      <trkpt lat="42.4095" lon="0.06037">
        <ele>806.68</ele>
        <time>2014-06-04T07:23:19Z</time>
      </trkpt>
      <trkpt lat="42.40947" lon="0.06037">
        <ele>806.2</ele>
        <time>2014-06-04T07:23:43Z</time>
      </trkpt>
      <trkpt lat="42.40946" lon="0.06036">
        <ele>806.2</ele>
        <time>2014-06-04T07:23:56Z</time>
      </trkpt>
      <trkpt lat="42.40938" lon="0.06031">
        <ele>806.2</ele>
        <time>2014-06-04T07:24:27Z</time>
      </trkpt>
      <trkpt lat="42.40914" lon="0.06025">
        <ele>804.28</ele>
        <time>2014-06-04T07:24:36Z</time>
      </trkpt>
      <trkpt lat="42.40891" lon="0.06003">
        <ele>802.84</ele>
        <time>2014-06-04T07:24:45Z</time>
      </trkpt>
      <trkpt lat="42.40882" lon="0.05992">
        <ele>804.28</ele>
        <time>2014-06-04T07:24:50Z</time>
      </trkpt>
      <trkpt lat="42.40873" lon="0.05987">
        <ele>804.76</ele>
        <time>2014-06-04T07:24:54Z</time>
      </trkpt>
      <trkpt lat="42.40861" lon="0.05983">
        <ele>803.32</ele>
        <time>2014-06-04T07:24:57Z</time>
      </trkpt>
      <trkpt lat="42.40841" lon="0.05973">
        <ele>800.92</ele>
        <time>2014-06-04T07:25:03Z</time>
      </trkpt>
      <trkpt lat="42.40832" lon="0.05968">
        <ele>797.55</ele>
        <time>2014-06-04T07:25:06Z</time>
      </trkpt>
      <trkpt lat="42.40822" lon="0.05966">
        <ele>796.59</ele>
        <time>2014-06-04T07:25:08Z</time>
      </trkpt>
      <trkpt lat="42.40808" lon="0.05961">
        <ele>794.19</ele>
        <time>2014-06-04T07:25:11Z</time>
      </trkpt>
      <trkpt lat="42.40793" lon="0.05952">
        <ele>791.78</ele>
        <time>2014-06-04T07:25:15Z</time>
      </trkpt>
      <trkpt lat="42.40786" lon="0.0595">
        <ele>790.34</ele>
        <time>2014-06-04T07:25:17Z</time>
      </trkpt>
      <trkpt lat="42.40772" lon="0.05943">
        <ele>790.34</ele>
        <time>2014-06-04T07:25:21Z</time>
      </trkpt>
      <trkpt lat="42.40755" lon="0.0592">
        <ele>790.34</ele>
        <time>2014-06-04T07:25:30Z</time>
      </trkpt>
      <trkpt lat="42.40738" lon="0.05903">
        <ele>793.22</ele>
        <time>2014-06-04T07:25:40Z</time>
      </trkpt>
      <trkpt lat="42.4072" lon="0.05889">
        <ele>796.59</ele>
        <time>2014-06-04T07:25:51Z</time>
      </trkpt>
      <trkpt lat="42.40718" lon="0.05889">
        <ele>796.59</ele>
        <time>2014-06-04T07:25:52Z</time>
      </trkpt>
      <trkpt lat="42.40713" lon="0.05886">
        <ele>797.55</ele>
        <time>2014-06-04T07:25:56Z</time>
      </trkpt>
      <trkpt lat="42.40706" lon="0.05881">
        <ele>798.51</ele>
        <time>2014-06-04T07:26:01Z</time>
      </trkpt>
      <trkpt lat="42.407" lon="0.0588">
        <ele>798.51</ele>
        <time>2014-06-04T07:26:05Z</time>
      </trkpt>
      <trkpt lat="42.40674" lon="0.05879">
        <ele>798.99</ele>
        <time>2014-06-04T07:26:16Z</time>
      </trkpt>
      <trkpt lat="42.40659" lon="0.05878">
        <ele>800.92</ele>
        <time>2014-06-04T07:26:23Z</time>
      </trkpt>
      <trkpt lat="42.40646" lon="0.05886">
        <ele>801.88</ele>
        <time>2014-06-04T07:26:33Z</time>
      </trkpt>
      <trkpt lat="42.40636" lon="0.05883">
        <ele>800.92</ele>
        <time>2014-06-04T07:26:37Z</time>
      </trkpt>
      <trkpt lat="42.40633" lon="0.05878">
        <ele>800.44</ele>
        <time>2014-06-04T07:26:39Z</time>
      </trkpt>
      <trkpt lat="42.4063" lon="0.0587">
        <ele>801.4</ele>
        <time>2014-06-04T07:26:42Z</time>
      </trkpt>
      <trkpt lat="42.40619" lon="0.05852">
        <ele>802.84</ele>
        <time>2014-06-04T07:26:53Z</time>
      </trkpt>
      <trkpt lat="42.40618" lon="0.05849">
        <ele>803.32</ele>
        <time>2014-06-04T07:26:55Z</time>
      </trkpt>
      <trkpt lat="42.40612" lon="0.05841">
        <ele>803.8</ele>
        <time>2014-06-04T07:27:01Z</time>
      </trkpt>
      <trkpt lat="42.40604" lon="0.05829">
        <ele>804.76</ele>
        <time>2014-06-04T07:27:07Z</time>
      </trkpt>
      <trkpt lat="42.40603" lon="0.05823">
        <ele>805.72</ele>
        <time>2014-06-04T07:27:11Z</time>
      </trkpt>
      <trkpt lat="42.40595" lon="0.05806">
        <ele>807.16</ele>
        <time>2014-06-04T07:27:20Z</time>
      </trkpt>
      <trkpt lat="42.40591" lon="0.05796">
        <ele>807.64</ele>
        <time>2014-06-04T07:27:24Z</time>
      </trkpt>
      <trkpt lat="42.40572" lon="0.05769">
        <ele>806.2</ele>
        <time>2014-06-04T07:27:32Z</time>
      </trkpt>
      <trkpt lat="42.40548" lon="0.05748">
        <ele>804.28</ele>
        <time>2014-06-04T07:27:38Z</time>
      </trkpt>
      <trkpt lat="42.40529" lon="0.05736">
        <ele>800.92</ele>
        <time>2014-06-04T07:27:43Z</time>
      </trkpt>
      <trkpt lat="42.40523" lon="0.0573">
        <ele>797.55</ele>
        <time>2014-06-04T07:27:51Z</time>
      </trkpt>
      <trkpt lat="42.40523" lon="0.05726">
        <ele>797.07</ele>
        <time>2014-06-04T07:27:53Z</time>
      </trkpt>
      <trkpt lat="42.40516" lon="0.0572">
        <ele>797.07</ele>
        <time>2014-06-04T07:27:58Z</time>
      </trkpt>
      <trkpt lat="42.40509" lon="0.05709">
        <ele>798.99</ele>
        <time>2014-06-04T07:28:03Z</time>
      </trkpt>
      <trkpt lat="42.40494" lon="0.0568">
        <ele>800.92</ele>
        <time>2014-06-04T07:28:16Z</time>
      </trkpt>
      <trkpt lat="42.40479" lon="0.05651">
        <ele>799.47</ele>
        <time>2014-06-04T07:28:27Z</time>
      </trkpt>
      <trkpt lat="42.40464" lon="0.05642">
        <ele>796.59</ele>
        <time>2014-06-04T07:28:32Z</time>
      </trkpt>
      <trkpt lat="42.40448" lon="0.05638">
        <ele>792.74</ele>
        <time>2014-06-04T07:28:36Z</time>
      </trkpt>
      <trkpt lat="42.40441" lon="0.05634">
        <ele>790.82</ele>
        <time>2014-06-04T07:28:39Z</time>
      </trkpt>
      <trkpt lat="42.40438" lon="0.05623">
        <ele>787.46</ele>
        <time>2014-06-04T07:28:42Z</time>
      </trkpt>
      <trkpt lat="42.40436" lon="0.05611">
        <ele>785.53</ele>
        <time>2014-06-04T07:28:45Z</time>
      </trkpt>
      <trkpt lat="42.40444" lon="0.05589">
        <ele>781.21</ele>
        <time>2014-06-04T07:28:52Z</time>
      </trkpt>
      <trkpt lat="42.40446" lon="0.05587">
        <ele>780.73</ele>
        <time>2014-06-04T07:28:53Z</time>
      </trkpt>
      <trkpt lat="42.4046" lon="0.05567">
        <ele>775.92</ele>
        <time>2014-06-04T07:28:59Z</time>
      </trkpt>
      <trkpt lat="42.40464" lon="0.05551">
        <ele>773.04</ele>
        <time>2014-06-04T07:29:02Z</time>
      </trkpt>
      <trkpt lat="42.40466" lon="0.05544">
        <ele>771.6</ele>
        <time>2014-06-04T07:29:04Z</time>
      </trkpt>
      <trkpt lat="42.40461" lon="0.05503">
        <ele>770.15</ele>
        <time>2014-06-04T07:29:07Z</time>
      </trkpt>
      <trkpt lat="42.40454" lon="0.05467">
        <ele>771.11</ele>
        <time>2014-06-04T07:29:12Z</time>
      </trkpt>
      <trkpt lat="42.40451" lon="0.05446">
        <ele>771.11</ele>
        <time>2014-06-04T07:29:22Z</time>
      </trkpt>
      <trkpt lat="42.40451" lon="0.05446">
        <ele>771.11</ele>
        <time>2014-06-04T07:29:33Z</time>
      </trkpt>
      <trkpt lat="42.40435" lon="0.05419">
        <ele>770.15</ele>
        <time>2014-06-04T07:29:43Z</time>
      </trkpt>
      <trkpt lat="42.4043" lon="0.0541">
        <ele>769.19</ele>
        <time>2014-06-04T07:29:46Z</time>
      </trkpt>
      <trkpt lat="42.40424" lon="0.05382">
        <ele>766.31</ele>
        <time>2014-06-04T07:29:51Z</time>
      </trkpt>
      <trkpt lat="42.40421" lon="0.05359">
        <ele>764.39</ele>
        <time>2014-06-04T07:29:54Z</time>
      </trkpt>
      <trkpt lat="42.40412" lon="0.05331">
        <ele>762.46</ele>
        <time>2014-06-04T07:29:58Z</time>
      </trkpt>
      <trkpt lat="42.40412" lon="0.05322">
        <ele>762.46</ele>
        <time>2014-06-04T07:30:02Z</time>
      </trkpt>
      <trkpt lat="42.40389" lon="0.0531">
        <ele>761.02</ele>
        <time>2014-06-04T07:30:09Z</time>
      </trkpt>
      <trkpt lat="42.40372" lon="0.05285">
        <ele>758.62</ele>
        <time>2014-06-04T07:30:14Z</time>
      </trkpt>
      <trkpt lat="42.40347" lon="0.05203">
        <ele>757.18</ele>
        <time>2014-06-04T07:30:24Z</time>
      </trkpt>
      <trkpt lat="42.40343" lon="0.05161">
        <ele>758.14</ele>
        <time>2014-06-04T07:30:31Z</time>
      </trkpt>
      <trkpt lat="42.40335" lon="0.05136">
        <ele>753.81</ele>
        <time>2014-06-04T07:30:34Z</time>
      </trkpt>
      <trkpt lat="42.40327" lon="0.05104">
        <ele>751.89</ele>
        <time>2014-06-04T07:30:37Z</time>
      </trkpt>
      <trkpt lat="42.40313" lon="0.05032">
        <ele>751.41</ele>
        <time>2014-06-04T07:30:44Z</time>
      </trkpt>
      <trkpt lat="42.40312" lon="0.05023">
        <ele>751.89</ele>
        <time>2014-06-04T07:30:45Z</time>
      </trkpt>
      <trkpt lat="42.403" lon="0.04978">
        <ele>755.25</ele>
        <time>2014-06-04T07:30:52Z</time>
      </trkpt>
      <trkpt lat="42.40299" lon="0.04973">
        <ele>754.77</ele>
        <time>2014-06-04T07:30:53Z</time>
      </trkpt>
      <trkpt lat="42.40298" lon="0.04956">
        <ele>755.73</ele>
        <time>2014-06-04T07:30:57Z</time>
      </trkpt>
      <trkpt lat="42.4029" lon="0.04916">
        <ele>759.58</ele>
        <time>2014-06-04T07:31:09Z</time>
      </trkpt>
      <trkpt lat="42.40281" lon="0.04887">
        <ele>762.46</ele>
        <time>2014-06-04T07:31:21Z</time>
      </trkpt>
      <trkpt lat="42.4027" lon="0.04866">
        <ele>763.42</ele>
        <time>2014-06-04T07:31:32Z</time>
      </trkpt>
      <trkpt lat="42.40265" lon="0.04849">
        <ele>763.9</ele>
        <time>2014-06-04T07:31:37Z</time>
      </trkpt>
      <trkpt lat="42.40249" lon="0.0481">
        <ele>765.83</ele>
        <time>2014-06-04T07:31:50Z</time>
      </trkpt>
      <trkpt lat="42.40232" lon="0.04776">
        <ele>767.27</ele>
        <time>2014-06-04T07:32:05Z</time>
      </trkpt>
      <trkpt lat="42.40222" lon="0.04746">
        <ele>766.31</ele>
        <time>2014-06-04T07:32:14Z</time>
      </trkpt>
      <trkpt lat="42.40234" lon="0.04687">
        <ele>767.27</ele>
        <time>2014-06-04T07:32:28Z</time>
      </trkpt>
      <trkpt lat="42.40234" lon="0.04649">
        <ele>770.15</ele>
        <time>2014-06-04T07:32:39Z</time>
      </trkpt>
      <trkpt lat="42.4023" lon="0.04635">
        <ele>772.08</ele>
        <time>2014-06-04T07:32:45Z</time>
      </trkpt>
      <trkpt lat="42.4025" lon="0.04622">
        <ele>774.96</ele>
        <time>2014-06-04T07:32:55Z</time>
      </trkpt>
      <trkpt lat="42.40255" lon="0.04622">
        <ele>775.44</ele>
        <time>2014-06-04T07:32:57Z</time>
      </trkpt>
      <trkpt lat="42.40292" lon="0.0462">
        <ele>776.4</ele>
        <time>2014-06-04T07:33:10Z</time>
      </trkpt>
      <trkpt lat="42.40323" lon="0.04629">
        <ele>775.92</ele>
        <time>2014-06-04T07:33:20Z</time>
      </trkpt>
      <trkpt lat="42.40355" lon="0.04648">
        <ele>776.4</ele>
        <time>2014-06-04T07:33:33Z</time>
      </trkpt>
      <trkpt lat="42.40366" lon="0.04646">
        <ele>775.44</ele>
        <time>2014-06-04T07:33:36Z</time>
      </trkpt>
      <trkpt lat="42.40373" lon="0.04642">
        <ele>774.96</ele>
        <time>2014-06-04T07:33:38Z</time>
      </trkpt>
      <trkpt lat="42.40392" lon="0.04643">
        <ele>775.92</ele>
        <time>2014-06-04T07:33:43Z</time>
      </trkpt>
      <trkpt lat="42.40431" lon="0.04639">
        <ele>775.92</ele>
        <time>2014-06-04T07:33:56Z</time>
      </trkpt>
      <trkpt lat="42.40462" lon="0.04618">
        <ele>776.88</ele>
        <time>2014-06-04T07:34:08Z</time>
      </trkpt>
      <trkpt lat="42.4047" lon="0.04583">
        <ele>777.84</ele>
        <time>2014-06-04T07:34:19Z</time>
      </trkpt>
      <trkpt lat="42.40474" lon="0.04578">
        <ele>777.84</ele>
        <time>2014-06-04T07:34:21Z</time>
      </trkpt>
      <trkpt lat="42.40483" lon="0.04576">
        <ele>777.84</ele>
        <time>2014-06-04T07:34:25Z</time>
      </trkpt>
      <trkpt lat="42.40506" lon="0.04597">
        <ele>778.81</ele>
        <time>2014-06-04T07:34:36Z</time>
      </trkpt>
      <trkpt lat="42.40507" lon="0.04637">
        <ele>777.84</ele>
        <time>2014-06-04T07:34:46Z</time>
      </trkpt>
      <trkpt lat="42.40507" lon="0.04643">
        <ele>777.84</ele>
        <time>2014-06-04T07:34:48Z</time>
      </trkpt>
      <trkpt lat="42.40512" lon="0.0465">
        <ele>779.29</ele>
        <time>2014-06-04T07:34:52Z</time>
      </trkpt>
      <trkpt lat="42.40531" lon="0.0466">
        <ele>781.21</ele>
        <time>2014-06-04T07:35:04Z</time>
      </trkpt>
      <trkpt lat="42.40544" lon="0.0466">
        <ele>782.65</ele>
        <time>2014-06-04T07:35:12Z</time>
      </trkpt>
      <trkpt lat="42.40562" lon="0.04652">
        <ele>785.05</ele>
        <time>2014-06-04T07:35:23Z</time>
      </trkpt>
      <trkpt lat="42.40589" lon="0.04637">
        <ele>786.02</ele>
        <time>2014-06-04T07:35:40Z</time>
      </trkpt>
      <trkpt lat="42.40618" lon="0.04623">
        <ele>787.94</ele>
        <time>2014-06-04T07:35:56Z</time>
      </trkpt>
      <trkpt lat="42.40644" lon="0.04621">
        <ele>790.82</ele>
        <time>2014-06-04T07:36:10Z</time>
      </trkpt>
      <trkpt lat="42.40669" lon="0.04633">
        <ele>793.71</ele>
        <time>2014-06-04T07:36:24Z</time>
      </trkpt>
      <trkpt lat="42.40688" lon="0.04631">
        <ele>795.15</ele>
        <time>2014-06-04T07:36:36Z</time>
      </trkpt>
      <trkpt lat="42.40689" lon="0.04628">
        <ele>795.63</ele>
        <time>2014-06-04T07:36:39Z</time>
      </trkpt>
      <trkpt lat="42.4069" lon="0.04618">
        <ele>796.59</ele>
        <time>2014-06-04T07:36:45Z</time>
      </trkpt>
      <trkpt lat="42.4068" lon="0.04603">
        <ele>798.51</ele>
        <time>2014-06-04T07:36:55Z</time>
      </trkpt>
      <trkpt lat="42.40675" lon="0.04599">
        <ele>798.51</ele>
        <time>2014-06-04T07:36:59Z</time>
      </trkpt>
      <trkpt lat="42.40649" lon="0.04579">
        <ele>800.92</ele>
        <time>2014-06-04T07:37:17Z</time>
      </trkpt>
      <trkpt lat="42.40627" lon="0.0457">
        <ele>803.8</ele>
        <time>2014-06-04T07:37:32Z</time>
      </trkpt>
      <trkpt lat="42.40606" lon="0.04559">
        <ele>806.2</ele>
        <time>2014-06-04T07:37:47Z</time>
      </trkpt>
      <trkpt lat="42.40602" lon="0.04556">
        <ele>806.68</ele>
        <time>2014-06-04T07:37:50Z</time>
      </trkpt>
      <trkpt lat="42.40587" lon="0.04534">
        <ele>809.09</ele>
        <time>2014-06-04T07:38:05Z</time>
      </trkpt>
      <trkpt lat="42.40582" lon="0.04525">
        <ele>810.53</ele>
        <time>2014-06-04T07:38:11Z</time>
      </trkpt>
      <trkpt lat="42.40565" lon="0.04503">
        <ele>813.41</ele>
        <time>2014-06-04T07:38:26Z</time>
      </trkpt>
      <trkpt lat="42.40556" lon="0.04482">
        <ele>815.34</ele>
        <time>2014-06-04T07:38:40Z</time>
      </trkpt>
      <trkpt lat="42.40555" lon="0.0448">
        <ele>815.34</ele>
        <time>2014-06-04T07:38:41Z</time>
      </trkpt>
      <trkpt lat="42.40549" lon="0.04448">
        <ele>817.74</ele>
        <time>2014-06-04T07:38:57Z</time>
      </trkpt>
      <trkpt lat="42.40543" lon="0.04427">
        <ele>819.66</ele>
        <time>2014-06-04T07:39:10Z</time>
      </trkpt>
      <trkpt lat="42.4054" lon="0.04408">
        <ele>822.55</ele>
        <time>2014-06-04T07:39:21Z</time>
      </trkpt>
      <trkpt lat="42.40548" lon="0.04391">
        <ele>825.43</ele>
        <time>2014-06-04T07:39:35Z</time>
      </trkpt>
      <trkpt lat="42.40565" lon="0.04389">
        <ele>827.83</ele>
        <time>2014-06-04T07:39:49Z</time>
      </trkpt>
      <trkpt lat="42.40576" lon="0.04395">
        <ele>829.27</ele>
        <time>2014-06-04T07:40:00Z</time>
      </trkpt>
      <trkpt lat="42.40582" lon="0.04404">
        <ele>830.24</ele>
        <time>2014-06-04T07:40:08Z</time>
      </trkpt>
      <trkpt lat="42.40587" lon="0.04409">
        <ele>831.2</ele>
        <time>2014-06-04T07:40:13Z</time>
      </trkpt>
      <trkpt lat="42.40607" lon="0.04404">
        <ele>833.6</ele>
        <time>2014-06-04T07:40:31Z</time>
      </trkpt>
      <trkpt lat="42.40617" lon="0.04399">
        <ele>835.04</ele>
        <time>2014-06-04T07:40:42Z</time>
      </trkpt>
      <trkpt lat="42.40624" lon="0.04397">
        <ele>836</ele>
        <time>2014-06-04T07:40:48Z</time>
      </trkpt>
      <trkpt lat="42.40628" lon="0.04398">
        <ele>836.96</ele>
        <time>2014-06-04T07:40:53Z</time>
      </trkpt>
      <trkpt lat="42.40633" lon="0.04397">
        <ele>837.93</ele>
        <time>2014-06-04T07:40:57Z</time>
      </trkpt>
      <trkpt lat="42.40652" lon="0.04398">
        <ele>840.81</ele>
        <time>2014-06-04T07:41:11Z</time>
      </trkpt>
      <trkpt lat="42.40663" lon="0.04394">
        <ele>841.77</ele>
        <time>2014-06-04T07:41:18Z</time>
      </trkpt>
      <trkpt lat="42.40678" lon="0.04384">
        <ele>844.18</ele>
        <time>2014-06-04T07:41:32Z</time>
      </trkpt>
      <trkpt lat="42.40686" lon="0.04384">
        <ele>845.62</ele>
        <time>2014-06-04T07:41:39Z</time>
      </trkpt>
      <trkpt lat="42.40692" lon="0.04381">
        <ele>846.1</ele>
        <time>2014-06-04T07:41:45Z</time>
      </trkpt>
      <trkpt lat="42.40691" lon="0.04375">
        <ele>847.54</ele>
        <time>2014-06-04T07:41:50Z</time>
      </trkpt>
      <trkpt lat="42.40672" lon="0.04357">
        <ele>849.94</ele>
        <time>2014-06-04T07:42:04Z</time>
      </trkpt>
      <trkpt lat="42.40668" lon="0.04356">
        <ele>850.42</ele>
        <time>2014-06-04T07:42:07Z</time>
      </trkpt>
      <trkpt lat="42.40655" lon="0.0435">
        <ele>853.31</ele>
        <time>2014-06-04T07:42:18Z</time>
      </trkpt>
      <trkpt lat="42.40637" lon="0.04337">
        <ele>852.83</ele>
        <time>2014-06-04T07:42:31Z</time>
      </trkpt>
      <trkpt lat="42.40608" lon="0.04318">
        <ele>854.75</ele>
        <time>2014-06-04T07:42:49Z</time>
      </trkpt>
      <trkpt lat="42.40585" lon="0.04299">
        <ele>855.23</ele>
        <time>2014-06-04T07:43:03Z</time>
      </trkpt>
      <trkpt lat="42.40565" lon="0.04277">
        <ele>858.59</ele>
        <time>2014-06-04T07:43:18Z</time>
      </trkpt>
      <trkpt lat="42.40535" lon="0.04269">
        <ele>858.11</ele>
        <time>2014-06-04T07:43:32Z</time>
      </trkpt>
      <trkpt lat="42.40503" lon="0.04263">
        <ele>860.04</ele>
        <time>2014-06-04T07:43:45Z</time>
      </trkpt>
      <trkpt lat="42.40473" lon="0.04244">
        <ele>861.48</ele>
        <time>2014-06-04T07:43:59Z</time>
      </trkpt>
      <trkpt lat="42.40451" lon="0.04266">
        <ele>862.92</ele>
        <time>2014-06-04T07:44:10Z</time>
      </trkpt>
      <trkpt lat="42.4044" lon="0.04316">
        <ele>863.88</ele>
        <time>2014-06-04T07:44:23Z</time>
      </trkpt>
      <trkpt lat="42.40421" lon="0.04331">
        <ele>864.84</ele>
        <time>2014-06-04T07:44:33Z</time>
      </trkpt>
      <trkpt lat="42.40396" lon="0.04323">
        <ele>867.25</ele>
        <time>2014-06-04T07:44:46Z</time>
      </trkpt>
      <trkpt lat="42.40376" lon="0.04306">
        <ele>869.65</ele>
        <time>2014-06-04T07:45:01Z</time>
      </trkpt>
      <trkpt lat="42.40364" lon="0.04281">
        <ele>871.57</ele>
        <time>2014-06-04T07:45:15Z</time>
      </trkpt>
      <trkpt lat="42.40359" lon="0.04274">
        <ele>871.57</ele>
        <time>2014-06-04T07:45:19Z</time>
      </trkpt>
      <trkpt lat="42.40339" lon="0.0426">
        <ele>874.46</ele>
        <time>2014-06-04T07:45:35Z</time>
      </trkpt>
      <trkpt lat="42.40327" lon="0.04254">
        <ele>875.9</ele>
        <time>2014-06-04T07:45:43Z</time>
      </trkpt>
      <trkpt lat="42.40306" lon="0.04245">
        <ele>878.3</ele>
        <time>2014-06-04T07:45:57Z</time>
      </trkpt>
      <trkpt lat="42.40281" lon="0.04238">
        <ele>879.26</ele>
        <time>2014-06-04T07:46:12Z</time>
      </trkpt>
      <trkpt lat="42.40249" lon="0.04227">
        <ele>879.26</ele>
        <time>2014-06-04T07:46:26Z</time>
      </trkpt>
      <trkpt lat="42.40223" lon="0.04202">
        <ele>877.34</ele>
        <time>2014-06-04T07:46:35Z</time>
      </trkpt>
      <trkpt lat="42.40205" lon="0.04193">
        <ele>875.9</ele>
        <time>2014-06-04T07:46:39Z</time>
      </trkpt>
      <trkpt lat="42.40212" lon="0.04168">
        <ele>876.86</ele>
        <time>2014-06-04T07:46:46Z</time>
      </trkpt>
      <trkpt lat="42.40217" lon="0.04147">
        <ele>876.86</ele>
        <time>2014-06-04T07:46:51Z</time>
      </trkpt>
      <trkpt lat="42.40224" lon="0.04089">
        <ele>877.82</ele>
        <time>2014-06-04T07:47:03Z</time>
      </trkpt>
      <trkpt lat="42.40212" lon="0.0404">
        <ele>879.26</ele>
        <time>2014-06-04T07:47:15Z</time>
      </trkpt>
      <trkpt lat="42.40171" lon="0.04015">
        <ele>881.19</ele>
        <time>2014-06-04T07:47:29Z</time>
      </trkpt>
      <trkpt lat="42.4014" lon="0.03984">
        <ele>880.22</ele>
        <time>2014-06-04T07:47:38Z</time>
      </trkpt>
      <trkpt lat="42.40125" lon="0.0397">
        <ele>879.74</ele>
        <time>2014-06-04T07:47:42Z</time>
      </trkpt>
      <trkpt lat="42.401" lon="0.03927">
        <ele>882.15</ele>
        <time>2014-06-04T07:47:53Z</time>
      </trkpt>
      <trkpt lat="42.40094" lon="0.03888">
        <ele>884.07</ele>
        <time>2014-06-04T07:48:06Z</time>
      </trkpt>
      <trkpt lat="42.40082" lon="0.03827">
        <ele>885.99</ele>
        <time>2014-06-04T07:48:21Z</time>
      </trkpt>
      <trkpt lat="42.40072" lon="0.03776">
        <ele>886.47</ele>
        <time>2014-06-04T07:48:34Z</time>
      </trkpt>
      <trkpt lat="42.40069" lon="0.03713">
        <ele>887.43</ele>
        <time>2014-06-04T07:48:46Z</time>
      </trkpt>
      <trkpt lat="42.40063" lon="0.03686">
        <ele>890.32</ele>
        <time>2014-06-04T07:48:55Z</time>
      </trkpt>
      <trkpt lat="42.40035" lon="0.03672">
        <ele>892.24</ele>
        <time>2014-06-04T07:49:08Z</time>
      </trkpt>
      <trkpt lat="42.40009" lon="0.03664">
        <ele>894.64</ele>
        <time>2014-06-04T07:49:21Z</time>
      </trkpt>
      <trkpt lat="42.39996" lon="0.03654">
        <ele>896.09</ele>
        <time>2014-06-04T07:49:29Z</time>
      </trkpt>
      <trkpt lat="42.39985" lon="0.03627">
        <ele>898.01</ele>
        <time>2014-06-04T07:49:42Z</time>
      </trkpt>
      <trkpt lat="42.39971" lon="0.03578">
        <ele>899.93</ele>
        <time>2014-06-04T07:50:00Z</time>
      </trkpt>
      <trkpt lat="42.39956" lon="0.03549">
        <ele>902.33</ele>
        <time>2014-06-04T07:50:13Z</time>
      </trkpt>
      <trkpt lat="42.39947" lon="0.03536">
        <ele>903.3</ele>
        <time>2014-06-04T07:50:20Z</time>
      </trkpt>
      <trkpt lat="42.39934" lon="0.03537">
        <ele>903.78</ele>
        <time>2014-06-04T07:50:26Z</time>
      </trkpt>
      <trkpt lat="42.39904" lon="0.03579">
        <ele>903.3</ele>
        <time>2014-06-04T07:50:41Z</time>
      </trkpt>
      <trkpt lat="42.39867" lon="0.03612">
        <ele>904.26</ele>
        <time>2014-06-04T07:50:55Z</time>
      </trkpt>
      <trkpt lat="42.39841" lon="0.03626">
        <ele>906.66</ele>
        <time>2014-06-04T07:51:07Z</time>
      </trkpt>
      <trkpt lat="42.39836" lon="0.03618">
        <ele>907.62</ele>
        <time>2014-06-04T07:51:12Z</time>
      </trkpt>
      <trkpt lat="42.39849" lon="0.03586">
        <ele>910.03</ele>
        <time>2014-06-04T07:51:26Z</time>
      </trkpt>
      <trkpt lat="42.39863" lon="0.03561">
        <ele>912.43</ele>
        <time>2014-06-04T07:51:40Z</time>
      </trkpt>
      <trkpt lat="42.39881" lon="0.03533">
        <ele>914.83</ele>
        <time>2014-06-04T07:51:57Z</time>
      </trkpt>
      <trkpt lat="42.39906" lon="0.03499">
        <ele>917.24</ele>
        <time>2014-06-04T07:52:14Z</time>
      </trkpt>
      <trkpt lat="42.39927" lon="0.03472">
        <ele>919.64</ele>
        <time>2014-06-04T07:52:28Z</time>
      </trkpt>
      <trkpt lat="42.39941" lon="0.03454">
        <ele>921.56</ele>
        <time>2014-06-04T07:52:41Z</time>
      </trkpt>
      <trkpt lat="42.3996" lon="0.0344">
        <ele>923</ele>
        <time>2014-06-04T07:52:55Z</time>
      </trkpt>
      <trkpt lat="42.39981" lon="0.03458">
        <ele>924.45</ele>
        <time>2014-06-04T07:53:08Z</time>
      </trkpt>
      <trkpt lat="42.40009" lon="0.03491">
        <ele>926.37</ele>
        <time>2014-06-04T07:53:25Z</time>
      </trkpt>
      <trkpt lat="42.40028" lon="0.03523">
        <ele>928.29</ele>
        <time>2014-06-04T07:53:40Z</time>
      </trkpt>
      <trkpt lat="42.40029" lon="0.03528">
        <ele>928.29</ele>
        <time>2014-06-04T07:53:42Z</time>
      </trkpt>
      <trkpt lat="42.40037" lon="0.03514">
        <ele>931.17</ele>
        <time>2014-06-04T07:53:53Z</time>
      </trkpt>
      <trkpt lat="42.40036" lon="0.03511">
        <ele>931.17</ele>
        <time>2014-06-04T07:53:54Z</time>
      </trkpt>
      <trkpt lat="42.40025" lon="0.03471">
        <ele>932.62</ele>
        <time>2014-06-04T07:54:12Z</time>
      </trkpt>
      <trkpt lat="42.40019" lon="0.03448">
        <ele>934.54</ele>
        <time>2014-06-04T07:54:23Z</time>
      </trkpt>
      <trkpt lat="42.40008" lon="0.03429">
        <ele>935.98</ele>
        <time>2014-06-04T07:54:35Z</time>
      </trkpt>
      <trkpt lat="42.39998" lon="0.03404">
        <ele>938.38</ele>
        <time>2014-06-04T07:54:51Z</time>
      </trkpt>
      <trkpt lat="42.39993" lon="0.0338">
        <ele>940.79</ele>
        <time>2014-06-04T07:55:04Z</time>
      </trkpt>
      <trkpt lat="42.3998" lon="0.03351">
        <ele>943.19</ele>
        <time>2014-06-04T07:55:21Z</time>
      </trkpt>
      <trkpt lat="42.39972" lon="0.03345">
        <ele>943.67</ele>
        <time>2014-06-04T07:55:28Z</time>
      </trkpt>
      <trkpt lat="42.3996" lon="0.03332">
        <ele>945.59</ele>
        <time>2014-06-04T07:55:42Z</time>
      </trkpt>
      <trkpt lat="42.39953" lon="0.0332">
        <ele>946.56</ele>
        <time>2014-06-04T07:55:50Z</time>
      </trkpt>
      <trkpt lat="42.39956" lon="0.03312">
        <ele>948</ele>
        <time>2014-06-04T07:55:57Z</time>
      </trkpt>
      <trkpt lat="42.39963" lon="0.03314">
        <ele>948.48</ele>
        <time>2014-06-04T07:56:04Z</time>
      </trkpt>
      <trkpt lat="42.39968" lon="0.03318">
        <ele>948.96</ele>
        <time>2014-06-04T07:56:08Z</time>
      </trkpt>
      <trkpt lat="42.39987" lon="0.03327">
        <ele>950.88</ele>
        <time>2014-06-04T07:56:23Z</time>
      </trkpt>
      <trkpt lat="42.4" lon="0.03331">
        <ele>952.32</ele>
        <time>2014-06-04T07:56:33Z</time>
      </trkpt>
      <trkpt lat="42.40013" lon="0.03334">
        <ele>953.77</ele>
        <time>2014-06-04T07:56:46Z</time>
      </trkpt>
      <trkpt lat="42.40029" lon="0.03343">
        <ele>956.17</ele>
        <time>2014-06-04T07:57:03Z</time>
      </trkpt>
      <trkpt lat="42.40046" lon="0.03356">
        <ele>958.09</ele>
        <time>2014-06-04T07:57:19Z</time>
      </trkpt>
      <trkpt lat="42.40056" lon="0.03363">
        <ele>959.53</ele>
        <time>2014-06-04T07:57:29Z</time>
      </trkpt>
      <trkpt lat="42.4007" lon="0.0337">
        <ele>961.46</ele>
        <time>2014-06-04T07:57:42Z</time>
      </trkpt>
      <trkpt lat="42.40075" lon="0.03371">
        <ele>961.94</ele>
        <time>2014-06-04T07:57:47Z</time>
      </trkpt>
      <trkpt lat="42.40081" lon="0.03366">
        <ele>962.9</ele>
        <time>2014-06-04T07:57:54Z</time>
      </trkpt>
      <trkpt lat="42.40087" lon="0.03357">
        <ele>963.38</ele>
        <time>2014-06-04T07:58:04Z</time>
      </trkpt>
      <trkpt lat="42.40087" lon="0.03359">
        <ele>963.38</ele>
        <time>2014-06-04T07:58:05Z</time>
      </trkpt>
      <trkpt lat="42.40081" lon="0.03369">
        <ele>962.9</ele>
        <time>2014-06-04T07:58:15Z</time>
      </trkpt>
      <trkpt lat="42.40081" lon="0.03369">
        <ele>962.42</ele>
        <time>2014-06-04T07:58:47Z</time>
      </trkpt>
      <trkpt lat="42.40081" lon="0.03369">
        <ele>962.42</ele>
        <time>2014-06-04T07:59:22Z</time>
      </trkpt>
      <trkpt lat="42.40081" lon="0.0337">
        <ele>961.94</ele>
        <time>2014-06-04T08:00:00Z</time>
      </trkpt>
      <trkpt lat="42.4008" lon="0.03369">
        <ele>961.94</ele>
        <time>2014-06-04T08:00:33Z</time>
      </trkpt>
      <trkpt lat="42.4008" lon="0.03369">
        <ele>961.46</ele>
        <time>2014-06-04T08:01:11Z</time>
      </trkpt>
      <trkpt lat="42.40081" lon="0.03368">
        <ele>962.42</ele>
        <time>2014-06-04T08:01:29Z</time>
      </trkpt>
      <trkpt lat="42.40081" lon="0.03369">
        <ele>961.94</ele>
        <time>2014-06-04T08:01:49Z</time>
      </trkpt>
      <trkpt lat="42.40081" lon="0.03369">
        <ele>961.46</ele>
        <time>2014-06-04T08:02:14Z</time>
      </trkpt>
      <trkpt lat="42.40082" lon="0.03369">
        <ele>961.94</ele>
        <time>2014-06-04T08:02:29Z</time>
      </trkpt>
      <trkpt lat="42.40082" lon="0.03365">
        <ele>961.46</ele>
        <time>2014-06-04T08:02:39Z</time>
      </trkpt>
      <trkpt lat="42.40084" lon="0.03359">
        <ele>962.42</ele>
        <time>2014-06-04T08:02:53Z</time>
      </trkpt>
      <trkpt lat="42.40086" lon="0.03357">
        <ele>962.42</ele>
        <time>2014-06-04T08:03:09Z</time>
      </trkpt>
      <trkpt lat="42.40093" lon="0.03339">
        <ele>961.94</ele>
        <time>2014-06-04T08:03:25Z</time>
      </trkpt>
      <trkpt lat="42.40096" lon="0.03325">
        <ele>961.94</ele>
        <time>2014-06-04T08:03:35Z</time>
      </trkpt>
      <trkpt lat="42.40099" lon="0.03317">
        <ele>961.94</ele>
        <time>2014-06-04T08:03:39Z</time>
      </trkpt>
      <trkpt lat="42.40105" lon="0.03305">
        <ele>960.98</ele>
        <time>2014-06-04T08:03:43Z</time>
      </trkpt>
      <trkpt lat="42.40134" lon="0.0328">
        <ele>960.98</ele>
        <time>2014-06-04T08:03:56Z</time>
      </trkpt>
      <trkpt lat="42.40144" lon="0.03264">
        <ele>959.53</ele>
        <time>2014-06-04T08:04:01Z</time>
      </trkpt>
      <trkpt lat="42.40145" lon="0.03252">
        <ele>959.53</ele>
        <time>2014-06-04T08:04:03Z</time>
      </trkpt>
      <trkpt lat="42.40147" lon="0.03185">
        <ele>960.01</ele>
        <time>2014-06-04T08:04:17Z</time>
      </trkpt>
      <trkpt lat="42.40153" lon="0.03136">
        <ele>959.05</ele>
        <time>2014-06-04T08:04:28Z</time>
      </trkpt>
      <trkpt lat="42.40144" lon="0.03101">
        <ele>959.05</ele>
        <time>2014-06-04T08:04:35Z</time>
      </trkpt>
      <trkpt lat="42.4013" lon="0.03043">
        <ele>960.49</ele>
        <time>2014-06-04T08:04:48Z</time>
      </trkpt>
      <trkpt lat="42.40129" lon="0.02985">
        <ele>962.42</ele>
        <time>2014-06-04T08:05:02Z</time>
      </trkpt>
      <trkpt lat="42.40129" lon="0.02951">
        <ele>962.42</ele>
        <time>2014-06-04T08:05:11Z</time>
      </trkpt>
      <trkpt lat="42.40128" lon="0.02936">
        <ele>962.42</ele>
        <time>2014-06-04T08:05:15Z</time>
      </trkpt>
      <trkpt lat="42.40126" lon="0.02872">
        <ele>963.38</ele>
        <time>2014-06-04T08:05:32Z</time>
      </trkpt>
      <trkpt lat="42.40123" lon="0.02852">
        <ele>963.38</ele>
        <time>2014-06-04T08:05:37Z</time>
      </trkpt>
      <trkpt lat="42.40129" lon="0.02804">
        <ele>962.42</ele>
        <time>2014-06-04T08:05:47Z</time>
      </trkpt>
      <trkpt lat="42.40116" lon="0.02763">
        <ele>964.82</ele>
        <time>2014-06-04T08:05:57Z</time>
      </trkpt>
      <trkpt lat="42.40117" lon="0.0274">
        <ele>964.82</ele>
        <time>2014-06-04T08:06:07Z</time>
      </trkpt>
      <trkpt lat="42.40119" lon="0.02733">
        <ele>964.82</ele>
        <time>2014-06-04T08:06:17Z</time>
      </trkpt>
      <trkpt lat="42.40119" lon="0.02731">
        <ele>965.3</ele>
        <time>2014-06-04T08:06:28Z</time>
      </trkpt>
      <trkpt lat="42.40119" lon="0.0273">
        <ele>964.82</ele>
        <time>2014-06-04T08:06:39Z</time>
      </trkpt>
      <trkpt lat="42.4012" lon="0.02728">
        <ele>964.82</ele>
        <time>2014-06-04T08:06:42Z</time>
      </trkpt>
      <trkpt lat="42.40126" lon="0.02723">
        <ele>964.82</ele>
        <time>2014-06-04T08:06:49Z</time>
      </trkpt>
      <trkpt lat="42.40143" lon="0.027">
        <ele>966.74</ele>
        <time>2014-06-04T08:07:01Z</time>
      </trkpt>
      <trkpt lat="42.40158" lon="0.02659">
        <ele>969.15</ele>
        <time>2014-06-04T08:07:14Z</time>
      </trkpt>
      <trkpt lat="42.40176" lon="0.02615">
        <ele>971.55</ele>
        <time>2014-06-04T08:07:28Z</time>
      </trkpt>
      <trkpt lat="42.40179" lon="0.02562">
        <ele>973.95</ele>
        <time>2014-06-04T08:07:43Z</time>
      </trkpt>
      <trkpt lat="42.40178" lon="0.02531">
        <ele>975.39</ele>
        <time>2014-06-04T08:07:53Z</time>
      </trkpt>
      <trkpt lat="42.40168" lon="0.02533">
        <ele>977.32</ele>
        <time>2014-06-04T08:08:03Z</time>
      </trkpt>
      <trkpt lat="42.40163" lon="0.02574">
        <ele>980.68</ele>
        <time>2014-06-04T08:08:19Z</time>
      </trkpt>
      <trkpt lat="42.40154" lon="0.02603">
        <ele>982.12</ele>
        <time>2014-06-04T08:08:31Z</time>
      </trkpt>
      <trkpt lat="42.40144" lon="0.02593">
        <ele>984.05</ele>
        <time>2014-06-04T08:08:39Z</time>
      </trkpt>
      <trkpt lat="42.40148" lon="0.02573">
        <ele>984.53</ele>
        <time>2014-06-04T08:08:47Z</time>
      </trkpt>
      <trkpt lat="42.40137" lon="0.02573">
        <ele>986.93</ele>
        <time>2014-06-04T08:08:57Z</time>
      </trkpt>
      <trkpt lat="42.40137" lon="0.02584">
        <ele>987.41</ele>
        <time>2014-06-04T08:09:01Z</time>
      </trkpt>
      <trkpt lat="42.40132" lon="0.02591">
        <ele>988.37</ele>
        <time>2014-06-04T08:09:05Z</time>
      </trkpt>
      <trkpt lat="42.40125" lon="0.02581">
        <ele>989.33</ele>
        <time>2014-06-04T08:09:18Z</time>
      </trkpt>
      <trkpt lat="42.40125" lon="0.02581">
        <ele>988.85</ele>
        <time>2014-06-04T08:09:33Z</time>
      </trkpt>
      <trkpt lat="42.40122" lon="0.02555">
        <ele>991.26</ele>
        <time>2014-06-04T08:09:46Z</time>
      </trkpt>
      <trkpt lat="42.40118" lon="0.02532">
        <ele>992.7</ele>
        <time>2014-06-04T08:09:58Z</time>
      </trkpt>
      <trkpt lat="42.40127" lon="0.02509">
        <ele>995.58</ele>
        <time>2014-06-04T08:10:13Z</time>
      </trkpt>
      <trkpt lat="42.40129" lon="0.02504">
        <ele>996.06</ele>
        <time>2014-06-04T08:10:15Z</time>
      </trkpt>
      <trkpt lat="42.40129" lon="0.02501">
        <ele>996.06</ele>
        <time>2014-06-04T08:10:16Z</time>
      </trkpt>
      <trkpt lat="42.40132" lon="0.02493">
        <ele>997.02</ele>
        <time>2014-06-04T08:10:20Z</time>
      </trkpt>
      <trkpt lat="42.40135" lon="0.02462">
        <ele>999.91</ele>
        <time>2014-06-04T08:10:33Z</time>
      </trkpt>
      <trkpt lat="42.40139" lon="0.02435">
        <ele>1001.83</ele>
        <time>2014-06-04T08:10:47Z</time>
      </trkpt>
      <trkpt lat="42.40145" lon="0.02407">
        <ele>1004.72</ele>
        <time>2014-06-04T08:11:02Z</time>
      </trkpt>
      <trkpt lat="42.40146" lon="0.02363">
        <ele>1008.08</ele>
        <time>2014-06-04T08:11:21Z</time>
      </trkpt>
      <trkpt lat="42.40134" lon="0.02344">
        <ele>1010</ele>
        <time>2014-06-04T08:11:31Z</time>
      </trkpt>
      <trkpt lat="42.40134" lon="0.02335">
        <ele>1010.48</ele>
        <time>2014-06-04T08:11:35Z</time>
      </trkpt>
      <trkpt lat="42.40136" lon="0.02313">
        <ele>1011.93</ele>
        <time>2014-06-04T08:11:44Z</time>
      </trkpt>
      <trkpt lat="42.40137" lon="0.02305">
        <ele>1012.41</ele>
        <time>2014-06-04T08:11:48Z</time>
      </trkpt>
      <trkpt lat="42.40137" lon="0.02288">
        <ele>1014.81</ele>
        <time>2014-06-04T08:11:56Z</time>
      </trkpt>
      <trkpt lat="42.40138" lon="0.02285">
        <ele>1014.81</ele>
        <time>2014-06-04T08:12:10Z</time>
      </trkpt>
      <trkpt lat="42.40138" lon="0.02285">
        <ele>1015.29</ele>
        <time>2014-06-04T08:12:41Z</time>
      </trkpt>
      <trkpt lat="42.40138" lon="0.02285">
        <ele>1015.29</ele>
        <time>2014-06-04T08:13:07Z</time>
      </trkpt>
      <trkpt lat="42.40149" lon="0.02274">
        <ele>1010.96</ele>
        <time>2014-06-04T08:13:14Z</time>
      </trkpt>
      <trkpt lat="42.4016" lon="0.02267">
        <ele>1007.6</ele>
        <time>2014-06-04T08:13:18Z</time>
      </trkpt>
      <trkpt lat="42.4017" lon="0.0227">
        <ele>1003.27</ele>
        <time>2014-06-04T08:13:22Z</time>
      </trkpt>
      <trkpt lat="42.40177" lon="0.02267">
        <ele>1000.87</ele>
        <time>2014-06-04T08:13:24Z</time>
      </trkpt>
      <trkpt lat="42.40188" lon="0.02258">
        <ele>997.51</ele>
        <time>2014-06-04T08:13:27Z</time>
      </trkpt>
      <trkpt lat="42.402" lon="0.02239">
        <ele>993.18</ele>
        <time>2014-06-04T08:13:31Z</time>
      </trkpt>
      <trkpt lat="42.40202" lon="0.0221">
        <ele>990.3</ele>
        <time>2014-06-04T08:13:35Z</time>
      </trkpt>
      <trkpt lat="42.40199" lon="0.02193">
        <ele>986.93</ele>
        <time>2014-06-04T08:13:38Z</time>
      </trkpt>
      <trkpt lat="42.40198" lon="0.02182">
        <ele>985.01</ele>
        <time>2014-06-04T08:13:41Z</time>
      </trkpt>
      <trkpt lat="42.40204" lon="0.02177">
        <ele>983.57</ele>
        <time>2014-06-04T08:13:43Z</time>
      </trkpt>
      <trkpt lat="42.40218" lon="0.0217">
        <ele>980.2</ele>
        <time>2014-06-04T08:13:46Z</time>
      </trkpt>
      <trkpt lat="42.4023" lon="0.02158">
        <ele>977.32</ele>
        <time>2014-06-04T08:13:49Z</time>
      </trkpt>
      <trkpt lat="42.40239" lon="0.02137">
        <ele>972.99</ele>
        <time>2014-06-04T08:13:53Z</time>
      </trkpt>
      <trkpt lat="42.40252" lon="0.02105">
        <ele>967.22</ele>
        <time>2014-06-04T08:14:00Z</time>
      </trkpt>
      <trkpt lat="42.40258" lon="0.02095">
        <ele>963.86</ele>
        <time>2014-06-04T08:14:04Z</time>
      </trkpt>
      <trkpt lat="42.40261" lon="0.02084">
        <ele>961.46</ele>
        <time>2014-06-04T08:14:08Z</time>
      </trkpt>
      <trkpt lat="42.40271" lon="0.02074">
        <ele>959.05</ele>
        <time>2014-06-04T08:14:11Z</time>
      </trkpt>
      <trkpt lat="42.40272" lon="0.02066">
        <ele>957.61</ele>
        <time>2014-06-04T08:14:14Z</time>
      </trkpt>
      <trkpt lat="42.40269" lon="0.02064">
        <ele>955.69</ele>
        <time>2014-06-04T08:14:16Z</time>
      </trkpt>
      <trkpt lat="42.40275" lon="0.02052">
        <ele>952.32</ele>
        <time>2014-06-04T08:14:23Z</time>
      </trkpt>
      <trkpt lat="42.40287" lon="0.02044">
        <ele>949.92</ele>
        <time>2014-06-04T08:14:26Z</time>
      </trkpt>
      <trkpt lat="42.40295" lon="0.02032">
        <ele>946.56</ele>
        <time>2014-06-04T08:14:30Z</time>
      </trkpt>
      <trkpt lat="42.40296" lon="0.02011">
        <ele>941.75</ele>
        <time>2014-06-04T08:14:37Z</time>
      </trkpt>
      <trkpt lat="42.4031" lon="0.02008">
        <ele>938.86</ele>
        <time>2014-06-04T08:14:42Z</time>
      </trkpt>
      <trkpt lat="42.40315" lon="0.02005">
        <ele>934.54</ele>
        <time>2014-06-04T08:14:47Z</time>
      </trkpt>
      <trkpt lat="42.4032" lon="0.01999">
        <ele>932.14</ele>
        <time>2014-06-04T08:14:52Z</time>
      </trkpt>
      <trkpt lat="42.40325" lon="0.02">
        <ele>929.73</ele>
        <time>2014-06-04T08:14:56Z</time>
      </trkpt>
      <trkpt lat="42.40334" lon="0.02004">
        <ele>925.41</ele>
        <time>2014-06-04T08:15:00Z</time>
      </trkpt>
      <trkpt lat="42.40341" lon="0.02007">
        <ele>922.52</ele>
        <time>2014-06-04T08:15:03Z</time>
      </trkpt>
      <trkpt lat="42.40345" lon="0.02002">
        <ele>921.08</ele>
        <time>2014-06-04T08:15:05Z</time>
      </trkpt>
      <trkpt lat="42.40342" lon="0.01986">
        <ele>917.72</ele>
        <time>2014-06-04T08:15:09Z</time>
      </trkpt>
      <trkpt lat="42.40342" lon="0.01982">
        <ele>917.24</ele>
        <time>2014-06-04T08:15:10Z</time>
      </trkpt>
      <trkpt lat="42.40341" lon="0.01977">
        <ele>912.91</ele>
        <time>2014-06-04T08:15:13Z</time>
      </trkpt>
      <trkpt lat="42.40346" lon="0.01979">
        <ele>911.47</ele>
        <time>2014-06-04T08:15:15Z</time>
      </trkpt>
      <trkpt lat="42.40348" lon="0.01979">
        <ele>910.51</ele>
        <time>2014-06-04T08:15:16Z</time>
      </trkpt>
      <trkpt lat="42.40358" lon="0.01973">
        <ele>907.14</ele>
        <time>2014-06-04T08:15:20Z</time>
      </trkpt>
      <trkpt lat="42.40367" lon="0.01962">
        <ele>905.7</ele>
        <time>2014-06-04T08:15:22Z</time>
      </trkpt>
      <trkpt lat="42.40365" lon="0.01939">
        <ele>900.41</ele>
        <time>2014-06-04T08:15:26Z</time>
      </trkpt>
      <trkpt lat="42.40364" lon="0.01924">
        <ele>897.05</ele>
        <time>2014-06-04T08:15:30Z</time>
      </trkpt>
      <trkpt lat="42.40372" lon="0.01916">
        <ele>894.16</ele>
        <time>2014-06-04T08:15:34Z</time>
      </trkpt>
      <trkpt lat="42.40372" lon="0.01912">
        <ele>893.2</ele>
        <time>2014-06-04T08:15:36Z</time>
      </trkpt>
      <trkpt lat="42.40373" lon="0.01899">
        <ele>889.84</ele>
        <time>2014-06-04T08:15:42Z</time>
      </trkpt>
      <trkpt lat="42.4038" lon="0.01895">
        <ele>888.88</ele>
        <time>2014-06-04T08:15:44Z</time>
      </trkpt>
      <trkpt lat="42.40388" lon="0.01895">
        <ele>887.43</ele>
        <time>2014-06-04T08:15:46Z</time>
      </trkpt>
      <trkpt lat="42.40388" lon="0.01885">
        <ele>885.99</ele>
        <time>2014-06-04T08:15:50Z</time>
      </trkpt>
      <trkpt lat="42.40374" lon="0.01872">
        <ele>883.11</ele>
        <time>2014-06-04T08:15:54Z</time>
      </trkpt>
      <trkpt lat="42.4037" lon="0.0187">
        <ele>882.63</ele>
        <time>2014-06-04T08:15:55Z</time>
      </trkpt>
      <trkpt lat="42.40355" lon="0.01865">
        <ele>879.74</ele>
        <time>2014-06-04T08:16:00Z</time>
      </trkpt>
      <trkpt lat="42.40359" lon="0.01854">
        <ele>876.38</ele>
        <time>2014-06-04T08:16:04Z</time>
      </trkpt>
      <trkpt lat="42.40361" lon="0.01851">
        <ele>875.9</ele>
        <time>2014-06-04T08:16:05Z</time>
      </trkpt>
      <trkpt lat="42.40372" lon="0.01836">
        <ele>872.53</ele>
        <time>2014-06-04T08:16:09Z</time>
      </trkpt>
      <trkpt lat="42.40377" lon="0.0183">
        <ele>871.09</ele>
        <time>2014-06-04T08:16:12Z</time>
      </trkpt>
      <trkpt lat="42.40375" lon="0.01828">
        <ele>870.13</ele>
        <time>2014-06-04T08:16:14Z</time>
      </trkpt>
      <trkpt lat="42.40373" lon="0.01825">
        <ele>869.17</ele>
        <time>2014-06-04T08:16:16Z</time>
      </trkpt>
      <trkpt lat="42.40375" lon="0.01821">
        <ele>867.25</ele>
        <time>2014-06-04T08:16:21Z</time>
      </trkpt>
      <trkpt lat="42.4037" lon="0.01815">
        <ele>865.8</ele>
        <time>2014-06-04T08:16:24Z</time>
      </trkpt>
      <trkpt lat="42.40374" lon="0.01799">
        <ele>861.96</ele>
        <time>2014-06-04T08:16:29Z</time>
      </trkpt>
      <trkpt lat="42.40397" lon="0.01781">
        <ele>860.04</ele>
        <time>2014-06-04T08:16:39Z</time>
      </trkpt>
      <trkpt lat="42.40401" lon="0.01781">
        <ele>859.56</ele>
        <time>2014-06-04T08:16:42Z</time>
      </trkpt>
      <trkpt lat="42.40405" lon="0.01785">
        <ele>859.08</ele>
        <time>2014-06-04T08:16:53Z</time>
      </trkpt>
      <trkpt lat="42.40406" lon="0.01784">
        <ele>859.08</ele>
        <time>2014-06-04T08:17:09Z</time>
      </trkpt>
      <trkpt lat="42.40406" lon="0.01784">
        <ele>850.42</ele>
        <time>2014-06-04T08:17:31Z</time>
      </trkpt>
      <trkpt lat="42.40406" lon="0.01784">
        <ele>863.88</ele>
        <time>2014-06-04T08:17:32Z</time>
      </trkpt>
      <trkpt lat="42.40406" lon="0.01784">
        <ele>858.11</ele>
        <time>2014-06-04T08:17:33Z</time>
      </trkpt>
      <trkpt lat="42.40406" lon="0.01784">
        <ele>859.56</ele>
        <time>2014-06-04T08:17:35Z</time>
      </trkpt>
      <trkpt lat="42.40406" lon="0.01784">
        <ele>859.08</ele>
        <time>2014-06-04T08:18:00Z</time>
      </trkpt>
      <trkpt lat="42.40406" lon="0.01784">
        <ele>859.08</ele>
        <time>2014-06-04T08:18:23Z</time>
      </trkpt>
      <trkpt lat="42.40406" lon="0.01785">
        <ele>860.04</ele>
        <time>2014-06-04T08:18:51Z</time>
      </trkpt>
      <trkpt lat="42.40405" lon="0.01785">
        <ele>859.08</ele>
        <time>2014-06-04T08:19:19Z</time>
      </trkpt>
      <trkpt lat="42.40406" lon="0.01785">
        <ele>860.04</ele>
        <time>2014-06-04T08:19:52Z</time>
      </trkpt>
      <trkpt lat="42.40408" lon="0.01789">
        <ele>859.08</ele>
        <time>2014-06-04T08:20:03Z</time>
      </trkpt>
      <trkpt lat="42.40408" lon="0.01793">
        <ele>860.04</ele>
        <time>2014-06-04T08:20:05Z</time>
      </trkpt>
      <trkpt lat="42.40414" lon="0.01811">
        <ele>861</ele>
        <time>2014-06-04T08:20:16Z</time>
      </trkpt>
      <trkpt lat="42.40416" lon="0.01815">
        <ele>861</ele>
        <time>2014-06-04T08:20:18Z</time>
      </trkpt>
      <trkpt lat="42.40422" lon="0.01828">
        <ele>861.48</ele>
        <time>2014-06-04T08:20:25Z</time>
      </trkpt>
      <trkpt lat="42.40429" lon="0.01836">
        <ele>861.96</ele>
        <time>2014-06-04T08:20:29Z</time>
      </trkpt>
      <trkpt lat="42.40433" lon="0.01848">
        <ele>865.32</ele>
        <time>2014-06-04T08:20:34Z</time>
      </trkpt>
      <trkpt lat="42.40433" lon="0.0185">
        <ele>865.32</ele>
        <time>2014-06-04T08:20:35Z</time>
      </trkpt>
      <trkpt lat="42.40435" lon="0.01853">
        <ele>866.77</ele>
        <time>2014-06-04T08:20:37Z</time>
      </trkpt>
      <trkpt lat="42.4045" lon="0.01873">
        <ele>867.25</ele>
        <time>2014-06-04T08:20:50Z</time>
      </trkpt>
      <trkpt lat="42.40458" lon="0.01886">
        <ele>869.17</ele>
        <time>2014-06-04T08:20:57Z</time>
      </trkpt>
      <trkpt lat="42.40459" lon="0.01887">
        <ele>869.17</ele>
        <time>2014-06-04T08:20:58Z</time>
      </trkpt>
      <trkpt lat="42.4047" lon="0.01907">
        <ele>872.53</ele>
        <time>2014-06-04T08:21:12Z</time>
      </trkpt>
      <trkpt lat="42.40473" lon="0.01912">
        <ele>873.98</ele>
        <time>2014-06-04T08:21:16Z</time>
      </trkpt>
      <trkpt lat="42.4048" lon="0.0192">
        <ele>875.42</ele>
        <time>2014-06-04T08:21:25Z</time>
      </trkpt>
      <trkpt lat="42.40491" lon="0.01932">
        <ele>880.22</ele>
        <time>2014-06-04T08:21:36Z</time>
      </trkpt>
      <trkpt lat="42.40492" lon="0.01934">
        <ele>880.22</ele>
        <time>2014-06-04T08:21:37Z</time>
      </trkpt>
      <trkpt lat="42.40493" lon="0.01937">
        <ele>880.71</ele>
        <time>2014-06-04T08:21:39Z</time>
      </trkpt>
      <trkpt lat="42.40494" lon="0.0194">
        <ele>881.67</ele>
        <time>2014-06-04T08:21:41Z</time>
      </trkpt>
      <trkpt lat="42.405" lon="0.01948">
        <ele>882.63</ele>
        <time>2014-06-04T08:21:48Z</time>
      </trkpt>
      <trkpt lat="42.40505" lon="0.01959">
        <ele>885.51</ele>
        <time>2014-06-04T08:22:00Z</time>
      </trkpt>
      <trkpt lat="42.40512" lon="0.01969">
        <ele>888.4</ele>
        <time>2014-06-04T08:22:10Z</time>
      </trkpt>
      <trkpt lat="42.40514" lon="0.01974">
        <ele>889.36</ele>
        <time>2014-06-04T08:22:14Z</time>
      </trkpt>
      <trkpt lat="42.40526" lon="0.01986">
        <ele>892.72</ele>
        <time>2014-06-04T08:22:28Z</time>
      </trkpt>
      <trkpt lat="42.4053" lon="0.0199">
        <ele>893.2</ele>
        <time>2014-06-04T08:22:32Z</time>
      </trkpt>
      <trkpt lat="42.40536" lon="0.01999">
        <ele>895.12</ele>
        <time>2014-06-04T08:22:46Z</time>
      </trkpt>
      <trkpt lat="42.40544" lon="0.02008">
        <ele>897.05</ele>
        <time>2014-06-04T08:22:58Z</time>
      </trkpt>
      <trkpt lat="42.40547" lon="0.02012">
        <ele>898.01</ele>
        <time>2014-06-04T08:23:06Z</time>
      </trkpt>
      <trkpt lat="42.4055" lon="0.02016">
        <ele>898.97</ele>
        <time>2014-06-04T08:23:10Z</time>
      </trkpt>
      <trkpt lat="42.40557" lon="0.0202">
        <ele>899.45</ele>
        <time>2014-06-04T08:23:16Z</time>
      </trkpt>
      <trkpt lat="42.40559" lon="0.0203">
        <ele>903.3</ele>
        <time>2014-06-04T08:23:23Z</time>
      </trkpt>
      <trkpt lat="42.4056" lon="0.0204">
        <ele>903.78</ele>
        <time>2014-06-04T08:23:27Z</time>
      </trkpt>
      <trkpt lat="42.40563" lon="0.02061">
        <ele>906.66</ele>
        <time>2014-06-04T08:23:39Z</time>
      </trkpt>
      <trkpt lat="42.40562" lon="0.02061">
        <ele>905.7</ele>
        <time>2014-06-04T08:24:01Z</time>
      </trkpt>
      <trkpt lat="42.40563" lon="0.02061">
        <ele>906.18</ele>
        <time>2014-06-04T08:24:41Z</time>
      </trkpt>
      <trkpt lat="42.40563" lon="0.02061">
        <ele>906.18</ele>
        <time>2014-06-04T08:25:22Z</time>
      </trkpt>
      <trkpt lat="42.40563" lon="0.02061">
        <ele>905.7</ele>
        <time>2014-06-04T08:25:58Z</time>
      </trkpt>
      <trkpt lat="42.40563" lon="0.02061">
        <ele>906.66</ele>
        <time>2014-06-04T08:26:31Z</time>
      </trkpt>
      <trkpt lat="42.40563" lon="0.02061">
        <ele>906.18</ele>
        <time>2014-06-04T08:27:01Z</time>
      </trkpt>
      <trkpt lat="42.40563" lon="0.0206">
        <ele>905.7</ele>
        <time>2014-06-04T08:27:41Z</time>
      </trkpt>
      <trkpt lat="42.40563" lon="0.02061">
        <ele>906.18</ele>
        <time>2014-06-04T08:28:19Z</time>
      </trkpt>
      <trkpt lat="42.40563" lon="0.0206">
        <ele>906.18</ele>
        <time>2014-06-04T08:28:56Z</time>
      </trkpt>
      <trkpt lat="42.40565" lon="0.02058">
        <ele>905.7</ele>
        <time>2014-06-04T08:29:25Z</time>
      </trkpt>
      <trkpt lat="42.40565" lon="0.02058">
        <ele>906.18</ele>
        <time>2014-06-04T08:29:45Z</time>
      </trkpt>
      <trkpt lat="42.40566" lon="0.02072">
        <ele>905.22</ele>
        <time>2014-06-04T08:30:02Z</time>
      </trkpt>
      <trkpt lat="42.40564" lon="0.0209">
        <ele>903.78</ele>
        <time>2014-06-04T08:30:05Z</time>
      </trkpt>
      <trkpt lat="42.40562" lon="0.02107">
        <ele>904.26</ele>
        <time>2014-06-04T08:30:08Z</time>
      </trkpt>
      <trkpt lat="42.4056" lon="0.02128">
        <ele>904.26</ele>
        <time>2014-06-04T08:30:12Z</time>
      </trkpt>
      <trkpt lat="42.4056" lon="0.02151">
        <ele>902.82</ele>
        <time>2014-06-04T08:30:16Z</time>
      </trkpt>
      <trkpt lat="42.40557" lon="0.02182">
        <ele>902.82</ele>
        <time>2014-06-04T08:30:22Z</time>
      </trkpt>
      <trkpt lat="42.40561" lon="0.02195">
        <ele>898.97</ele>
        <time>2014-06-04T08:30:25Z</time>
      </trkpt>
      <trkpt lat="42.4056" lon="0.02217">
        <ele>894.64</ele>
        <time>2014-06-04T08:30:30Z</time>
      </trkpt>
      <trkpt lat="42.40563" lon="0.02227">
        <ele>890.8</ele>
        <time>2014-06-04T08:30:32Z</time>
      </trkpt>
      <trkpt lat="42.40561" lon="0.0225">
        <ele>885.99</ele>
        <time>2014-06-04T08:30:37Z</time>
      </trkpt>
      <trkpt lat="42.40562" lon="0.02261">
        <ele>883.59</ele>
        <time>2014-06-04T08:30:39Z</time>
      </trkpt>
      <trkpt lat="42.40566" lon="0.02286">
        <ele>877.34</ele>
        <time>2014-06-04T08:30:43Z</time>
      </trkpt>
      <trkpt lat="42.40567" lon="0.02291">
        <ele>877.34</ele>
        <time>2014-06-04T08:30:44Z</time>
      </trkpt>
      <trkpt lat="42.40571" lon="0.02314">
        <ele>872.05</ele>
        <time>2014-06-04T08:30:48Z</time>
      </trkpt>
      <trkpt lat="42.40581" lon="0.02334">
        <ele>865.32</ele>
        <time>2014-06-04T08:30:55Z</time>
      </trkpt>
      <trkpt lat="42.40585" lon="0.0234">
        <ele>862.44</ele>
        <time>2014-06-04T08:30:57Z</time>
      </trkpt>
      <trkpt lat="42.40587" lon="0.02359">
        <ele>858.11</ele>
        <time>2014-06-04T08:31:00Z</time>
      </trkpt>
      <trkpt lat="42.4059" lon="0.02384">
        <ele>852.35</ele>
        <time>2014-06-04T08:31:04Z</time>
      </trkpt>
      <trkpt lat="42.4059" lon="0.0239">
        <ele>851.38</ele>
        <time>2014-06-04T08:31:05Z</time>
      </trkpt>
      <trkpt lat="42.40584" lon="0.024">
        <ele>848.5</ele>
        <time>2014-06-04T08:31:08Z</time>
      </trkpt>
      <trkpt lat="42.40571" lon="0.02413">
        <ele>850.9</ele>
        <time>2014-06-04T08:31:14Z</time>
      </trkpt>
      <trkpt lat="42.40569" lon="0.02415">
        <ele>851.38</ele>
        <time>2014-06-04T08:31:15Z</time>
      </trkpt>
      <trkpt lat="42.40554" lon="0.02447">
        <ele>852.83</ele>
        <time>2014-06-04T08:31:27Z</time>
      </trkpt>
      <trkpt lat="42.40552" lon="0.02456">
        <ele>852.83</ele>
        <time>2014-06-04T08:31:30Z</time>
      </trkpt>
      <trkpt lat="42.40552" lon="0.02462">
        <ele>851.87</ele>
        <time>2014-06-04T08:31:32Z</time>
      </trkpt>
      <trkpt lat="42.40552" lon="0.02465">
        <ele>852.35</ele>
        <time>2014-06-04T08:31:34Z</time>
      </trkpt>
      <trkpt lat="42.40553" lon="0.0248">
        <ele>850.9</ele>
        <time>2014-06-04T08:31:40Z</time>
      </trkpt>
      <trkpt lat="42.40557" lon="0.02486">
        <ele>848.5</ele>
        <time>2014-06-04T08:31:42Z</time>
      </trkpt>
      <trkpt lat="42.40558" lon="0.02495">
        <ele>848.5</ele>
        <time>2014-06-04T08:31:43Z</time>
      </trkpt>
      <trkpt lat="42.40565" lon="0.0252">
        <ele>845.14</ele>
        <time>2014-06-04T08:31:45Z</time>
      </trkpt>
      <trkpt lat="42.40575" lon="0.02553">
        <ele>842.25</ele>
        <time>2014-06-04T08:31:49Z</time>
      </trkpt>
      <trkpt lat="42.40591" lon="0.02596">
        <ele>835.52</ele>
        <time>2014-06-04T08:31:54Z</time>
      </trkpt>
      <trkpt lat="42.40594" lon="0.02602">
        <ele>834.56</ele>
        <time>2014-06-04T08:31:55Z</time>
      </trkpt>
      <trkpt lat="42.40602" lon="0.02615">
        <ele>831.68</ele>
        <time>2014-06-04T08:31:57Z</time>
      </trkpt>
      <trkpt lat="42.40611" lon="0.02633">
        <ele>828.79</ele>
        <time>2014-06-04T08:32:00Z</time>
      </trkpt>
      <trkpt lat="42.40624" lon="0.02655">
        <ele>824.47</ele>
        <time>2014-06-04T08:32:05Z</time>
      </trkpt>
      <trkpt lat="42.40641" lon="0.02673">
        <ele>823.99</ele>
        <time>2014-06-04T08:32:13Z</time>
      </trkpt>
      <trkpt lat="42.40661" lon="0.02675">
        <ele>823.99</ele>
        <time>2014-06-04T08:32:17Z</time>
      </trkpt>
      <trkpt lat="42.40677" lon="0.02694">
        <ele>823.99</ele>
        <time>2014-06-04T08:32:24Z</time>
      </trkpt>
      <trkpt lat="42.40683" lon="0.02712">
        <ele>823.99</ele>
        <time>2014-06-04T08:32:28Z</time>
      </trkpt>
      <trkpt lat="42.40687" lon="0.02729">
        <ele>823.03</ele>
        <time>2014-06-04T08:32:31Z</time>
      </trkpt>
      <trkpt lat="42.40689" lon="0.0274">
        <ele>821.58</ele>
        <time>2014-06-04T08:32:33Z</time>
      </trkpt>
      <trkpt lat="42.4069" lon="0.02758">
        <ele>821.1</ele>
        <time>2014-06-04T08:32:36Z</time>
      </trkpt>
      <trkpt lat="42.40694" lon="0.02775">
        <ele>817.74</ele>
        <time>2014-06-04T08:32:39Z</time>
      </trkpt>
      <trkpt lat="42.40697" lon="0.02791">
        <ele>816.3</ele>
        <time>2014-06-04T08:32:42Z</time>
      </trkpt>
      <trkpt lat="42.40698" lon="0.02795">
        <ele>814.85</ele>
        <time>2014-06-04T08:32:43Z</time>
      </trkpt>
      <trkpt lat="42.40697" lon="0.02804">
        <ele>812.93</ele>
        <time>2014-06-04T08:32:45Z</time>
      </trkpt>
      <trkpt lat="42.40697" lon="0.02834">
        <ele>808.13</ele>
        <time>2014-06-04T08:32:48Z</time>
      </trkpt>
      <trkpt lat="42.40698" lon="0.02843">
        <ele>806.2</ele>
        <time>2014-06-04T08:32:49Z</time>
      </trkpt>
      <trkpt lat="42.40699" lon="0.02852">
        <ele>804.76</ele>
        <time>2014-06-04T08:32:50Z</time>
      </trkpt>
      <trkpt lat="42.40705" lon="0.02871">
        <ele>801.4</ele>
        <time>2014-06-04T08:32:52Z</time>
      </trkpt>
      <trkpt lat="42.40709" lon="0.0289">
        <ele>798.99</ele>
        <time>2014-06-04T08:32:54Z</time>
      </trkpt>
      <trkpt lat="42.40715" lon="0.02913">
        <ele>795.63</ele>
        <time>2014-06-04T08:32:56Z</time>
      </trkpt>
      <trkpt lat="42.40717" lon="0.02922">
        <ele>794.19</ele>
        <time>2014-06-04T08:32:57Z</time>
      </trkpt>
      <trkpt lat="42.4072" lon="0.02936">
        <ele>790.82</ele>
        <time>2014-06-04T08:32:59Z</time>
      </trkpt>
      <trkpt lat="42.40725" lon="0.02956">
        <ele>786.98</ele>
        <time>2014-06-04T08:33:02Z</time>
      </trkpt>
      <trkpt lat="42.40729" lon="0.02966">
        <ele>785.05</ele>
        <time>2014-06-04T08:33:04Z</time>
      </trkpt>
      <trkpt lat="42.4074" lon="0.0298">
        <ele>782.65</ele>
        <time>2014-06-04T08:33:06Z</time>
      </trkpt>
      <trkpt lat="42.40758" lon="0.0301">
        <ele>777.84</ele>
        <time>2014-06-04T08:33:10Z</time>
      </trkpt>
      <trkpt lat="42.40762" lon="0.03017">
        <ele>775.92</ele>
        <time>2014-06-04T08:33:11Z</time>
      </trkpt>
      <trkpt lat="42.40774" lon="0.03035">
        <ele>772.08</ele>
        <time>2014-06-04T08:33:14Z</time>
      </trkpt>
      <trkpt lat="42.40777" lon="0.03042">
        <ele>771.6</ele>
        <time>2014-06-04T08:33:15Z</time>
      </trkpt>
      <trkpt lat="42.40782" lon="0.03048">
        <ele>769.67</ele>
        <time>2014-06-04T08:33:16Z</time>
      </trkpt>
      <trkpt lat="42.40787" lon="0.03054">
        <ele>768.71</ele>
        <time>2014-06-04T08:33:17Z</time>
      </trkpt>
      <trkpt lat="42.40801" lon="0.03081">
        <ele>764.87</ele>
        <time>2014-06-04T08:33:21Z</time>
      </trkpt>
      <trkpt lat="42.40807" lon="0.031">
        <ele>762.46</ele>
        <time>2014-06-04T08:33:24Z</time>
      </trkpt>
      <trkpt lat="42.40812" lon="0.03111">
        <ele>761.02</ele>
        <time>2014-06-04T08:33:26Z</time>
      </trkpt>
      <trkpt lat="42.40814" lon="0.0312">
        <ele>760.54</ele>
        <time>2014-06-04T08:33:27Z</time>
      </trkpt>
      <trkpt lat="42.40813" lon="0.03128">
        <ele>760.54</ele>
        <time>2014-06-04T08:33:28Z</time>
      </trkpt>
      <trkpt lat="42.40814" lon="0.03134">
        <ele>760.06</ele>
        <time>2014-06-04T08:33:29Z</time>
      </trkpt>
      <trkpt lat="42.40819" lon="0.03162">
        <ele>756.69</ele>
        <time>2014-06-04T08:33:33Z</time>
      </trkpt>
      <trkpt lat="42.40821" lon="0.03184">
        <ele>754.29</ele>
        <time>2014-06-04T08:33:36Z</time>
      </trkpt>
      <trkpt lat="42.40828" lon="0.03206">
        <ele>750.93</ele>
        <time>2014-06-04T08:33:39Z</time>
      </trkpt>
      <trkpt lat="42.40831" lon="0.03221">
        <ele>747.56</ele>
        <time>2014-06-04T08:33:41Z</time>
      </trkpt>
      <trkpt lat="42.40836" lon="0.03237">
        <ele>744.68</ele>
        <time>2014-06-04T08:33:43Z</time>
      </trkpt>
      <trkpt lat="42.40841" lon="0.03254">
        <ele>741.31</ele>
        <time>2014-06-04T08:33:45Z</time>
      </trkpt>
      <trkpt lat="42.40842" lon="0.03257">
        <ele>741.31</ele>
        <time>2014-06-04T08:33:46Z</time>
      </trkpt>
      <trkpt lat="42.40837" lon="0.03284">
        <ele>742.76</ele>
        <time>2014-06-04T08:33:52Z</time>
      </trkpt>
      <trkpt lat="42.40817" lon="0.03299">
        <ele>743.24</ele>
        <time>2014-06-04T08:34:02Z</time>
      </trkpt>
      <trkpt lat="42.4081" lon="0.03327">
        <ele>741.79</ele>
        <time>2014-06-04T08:34:11Z</time>
      </trkpt>
      <trkpt lat="42.40805" lon="0.03356">
        <ele>740.83</ele>
        <time>2014-06-04T08:34:20Z</time>
      </trkpt>
      <trkpt lat="42.40808" lon="0.03391">
        <ele>737.47</ele>
        <time>2014-06-04T08:34:27Z</time>
      </trkpt>
      <trkpt lat="42.40812" lon="0.03407">
        <ele>733.62</ele>
        <time>2014-06-04T08:34:31Z</time>
      </trkpt>
      <trkpt lat="42.40821" lon="0.03417">
        <ele>732.18</ele>
        <time>2014-06-04T08:34:40Z</time>
      </trkpt>
      <trkpt lat="42.4082" lon="0.03419">
        <ele>732.18</ele>
        <time>2014-06-04T08:34:41Z</time>
      </trkpt>
      <trkpt lat="42.40806" lon="0.03416">
        <ele>732.18</ele>
        <time>2014-06-04T08:34:47Z</time>
      </trkpt>
      <trkpt lat="42.40803" lon="0.03412">
        <ele>732.66</ele>
        <time>2014-06-04T08:34:59Z</time>
      </trkpt>
      <trkpt lat="42.40803" lon="0.03412">
        <ele>732.66</ele>
        <time>2014-06-04T08:35:33Z</time>
      </trkpt>
      <trkpt lat="42.40803" lon="0.03412">
        <ele>733.14</ele>
        <time>2014-06-04T08:36:06Z</time>
      </trkpt>
      <trkpt lat="42.40803" lon="0.03411">
        <ele>733.14</ele>
        <time>2014-06-04T08:36:31Z</time>
      </trkpt>
      <trkpt lat="42.40803" lon="0.03412">
        <ele>732.66</ele>
        <time>2014-06-04T08:36:55Z</time>
      </trkpt>
      <trkpt lat="42.40803" lon="0.03411">
        <ele>734.58</ele>
        <time>2014-06-04T08:37:00Z</time>
      </trkpt>
      <trkpt lat="42.40801" lon="0.03421">
        <ele>736.03</ele>
        <time>2014-06-04T08:37:09Z</time>
      </trkpt>
      <trkpt lat="42.40798" lon="0.03428">
        <ele>737.47</ele>
        <time>2014-06-04T08:37:20Z</time>
      </trkpt>
      <trkpt lat="42.40798" lon="0.03428">
        <ele>737.47</ele>
        <time>2014-06-04T08:37:21Z</time>
      </trkpt>
      <trkpt lat="42.40796" lon="0.03432">
        <ele>738.43</ele>
        <time>2014-06-04T08:37:33Z</time>
      </trkpt>
      <trkpt lat="42.40793" lon="0.03439">
        <ele>738.91</ele>
        <time>2014-06-04T08:37:49Z</time>
      </trkpt>
      <trkpt lat="42.40791" lon="0.03442">
        <ele>738.43</ele>
        <time>2014-06-04T08:37:53Z</time>
      </trkpt>
      <trkpt lat="42.40789" lon="0.03449">
        <ele>738.91</ele>
        <time>2014-06-04T08:37:57Z</time>
      </trkpt>
      <trkpt lat="42.40786" lon="0.03457">
        <ele>738.91</ele>
        <time>2014-06-04T08:38:00Z</time>
      </trkpt>
      <trkpt lat="42.40784" lon="0.03474">
        <ele>737.47</ele>
        <time>2014-06-04T08:38:04Z</time>
      </trkpt>
      <trkpt lat="42.40784" lon="0.03486">
        <ele>735.55</ele>
        <time>2014-06-04T08:38:06Z</time>
      </trkpt>
      <trkpt lat="42.4078" lon="0.03504">
        <ele>735.55</ele>
        <time>2014-06-04T08:38:10Z</time>
      </trkpt>
      <trkpt lat="42.40778" lon="0.03518">
        <ele>730.74</ele>
        <time>2014-06-04T08:38:16Z</time>
      </trkpt>
      <trkpt lat="42.40778" lon="0.03522">
        <ele>729.3</ele>
        <time>2014-06-04T08:38:17Z</time>
      </trkpt>
      <trkpt lat="42.40776" lon="0.03529">
        <ele>727.37</ele>
        <time>2014-06-04T08:38:18Z</time>
      </trkpt>
      <trkpt lat="42.40776" lon="0.03539">
        <ele>725.93</ele>
        <time>2014-06-04T08:38:20Z</time>
      </trkpt>
      <trkpt lat="42.40778" lon="0.03546">
        <ele>724.01</ele>
        <time>2014-06-04T08:38:33Z</time>
      </trkpt>
      <trkpt lat="42.4078" lon="0.03558">
        <ele>721.13</ele>
        <time>2014-06-04T08:38:38Z</time>
      </trkpt>
      <trkpt lat="42.40779" lon="0.03563">
        <ele>719.68</ele>
        <time>2014-06-04T08:38:40Z</time>
      </trkpt>
      <trkpt lat="42.40777" lon="0.03568">
        <ele>719.2</ele>
        <time>2014-06-04T08:38:42Z</time>
      </trkpt>
      <trkpt lat="42.40781" lon="0.03568">
        <ele>717.28</ele>
        <time>2014-06-04T08:38:45Z</time>
      </trkpt>
      <trkpt lat="42.40787" lon="0.03566">
        <ele>717.28</ele>
        <time>2014-06-04T08:38:56Z</time>
      </trkpt>
      <trkpt lat="42.40795" lon="0.0357">
        <ele>716.32</ele>
        <time>2014-06-04T08:39:08Z</time>
      </trkpt>
      <trkpt lat="42.40795" lon="0.03573">
        <ele>716.32</ele>
        <time>2014-06-04T08:39:13Z</time>
      </trkpt>
      <trkpt lat="42.40796" lon="0.03574">
        <ele>715.36</ele>
        <time>2014-06-04T08:39:15Z</time>
      </trkpt>
      <trkpt lat="42.40804" lon="0.03577">
        <ele>715.36</ele>
        <time>2014-06-04T08:39:28Z</time>
      </trkpt>
      <trkpt lat="42.40813" lon="0.0358">
        <ele>715.84</ele>
        <time>2014-06-04T08:39:39Z</time>
      </trkpt>
      <trkpt lat="42.40816" lon="0.03582">
        <ele>715.84</ele>
        <time>2014-06-04T08:39:55Z</time>
      </trkpt>
      <trkpt lat="42.40817" lon="0.03582">
        <ele>715.84</ele>
        <time>2014-06-04T08:40:12Z</time>
      </trkpt>
      <trkpt lat="42.40817" lon="0.03582">
        <ele>715.84</ele>
        <time>2014-06-04T08:40:34Z</time>
      </trkpt>
      <trkpt lat="42.40817" lon="0.03582">
        <ele>715.84</ele>
        <time>2014-06-04T08:41:03Z</time>
      </trkpt>
      <trkpt lat="42.40817" lon="0.03584">
        <ele>715.84</ele>
        <time>2014-06-04T08:41:06Z</time>
      </trkpt>
      <trkpt lat="42.40818" lon="0.03603">
        <ele>714.88</ele>
        <time>2014-06-04T08:41:14Z</time>
      </trkpt>
      <trkpt lat="42.40818" lon="0.0361">
        <ele>714.4</ele>
        <time>2014-06-04T08:41:16Z</time>
      </trkpt>
      <trkpt lat="42.40814" lon="0.03621">
        <ele>714.88</ele>
        <time>2014-06-04T08:41:20Z</time>
      </trkpt>
      <trkpt lat="42.40812" lon="0.03638">
        <ele>714.88</ele>
        <time>2014-06-04T08:41:26Z</time>
      </trkpt>
      <trkpt lat="42.40813" lon="0.03645">
        <ele>715.84</ele>
        <time>2014-06-04T08:41:30Z</time>
      </trkpt>
      <trkpt lat="42.40817" lon="0.03647">
        <ele>717.28</ele>
        <time>2014-06-04T08:41:34Z</time>
      </trkpt>
      <trkpt lat="42.4083" lon="0.03666">
        <ele>715.36</ele>
        <time>2014-06-04T08:41:43Z</time>
      </trkpt>
      <trkpt lat="42.40853" lon="0.0369">
        <ele>715.84</ele>
        <time>2014-06-04T08:41:53Z</time>
      </trkpt>
      <trkpt lat="42.40895" lon="0.03708">
        <ele>716.32</ele>
        <time>2014-06-04T08:42:07Z</time>
      </trkpt>
      <trkpt lat="42.40928" lon="0.03723">
        <ele>717.28</ele>
        <time>2014-06-04T08:42:19Z</time>
      </trkpt>
      <trkpt lat="42.40954" lon="0.03738">
        <ele>718.24</ele>
        <time>2014-06-04T08:42:32Z</time>
      </trkpt>
      <trkpt lat="42.40969" lon="0.03748">
        <ele>718.72</ele>
        <time>2014-06-04T08:42:43Z</time>
      </trkpt>
      <trkpt lat="42.40962" lon="0.03757">
        <ele>717.28</ele>
        <time>2014-06-04T08:42:48Z</time>
      </trkpt>
      <trkpt lat="42.40963" lon="0.0376">
        <ele>717.28</ele>
        <time>2014-06-04T08:42:50Z</time>
      </trkpt>
      <trkpt lat="42.40966" lon="0.03768">
        <ele>716.32</ele>
        <time>2014-06-04T08:43:04Z</time>
      </trkpt>
      <trkpt lat="42.40967" lon="0.0377">
        <ele>716.8</ele>
        <time>2014-06-04T08:43:19Z</time>
      </trkpt>
      <trkpt lat="42.40973" lon="0.03778">
        <ele>715.84</ele>
        <time>2014-06-04T08:43:27Z</time>
      </trkpt>
      <trkpt lat="42.40968" lon="0.03774">
        <ele>715.84</ele>
        <time>2014-06-04T08:43:32Z</time>
      </trkpt>
      <trkpt lat="42.40967" lon="0.0377">
        <ele>716.32</ele>
        <time>2014-06-04T08:43:48Z</time>
      </trkpt>
      <trkpt lat="42.40979" lon="0.03786">
        <ele>714.4</ele>
        <time>2014-06-04T08:43:54Z</time>
      </trkpt>
      <trkpt lat="42.41001" lon="0.03818">
        <ele>711.03</ele>
        <time>2014-06-04T08:44:00Z</time>
      </trkpt>
      <trkpt lat="42.41014" lon="0.03836">
        <ele>710.55</ele>
        <time>2014-06-04T08:44:03Z</time>
      </trkpt>
      <trkpt lat="42.41022" lon="0.03853">
        <ele>711.99</ele>
        <time>2014-06-04T08:44:06Z</time>
      </trkpt>
      <trkpt lat="42.41024" lon="0.03874">
        <ele>711.03</ele>
        <time>2014-06-04T08:44:09Z</time>
      </trkpt>
      <trkpt lat="42.41024" lon="0.03896">
        <ele>710.55</ele>
        <time>2014-06-04T08:44:12Z</time>
      </trkpt>
      <trkpt lat="42.41016" lon="0.03946">
        <ele>707.19</ele>
        <time>2014-06-04T08:44:18Z</time>
      </trkpt>
      <trkpt lat="42.41003" lon="0.0401">
        <ele>703.82</ele>
        <time>2014-06-04T08:44:24Z</time>
      </trkpt>
      <trkpt lat="42.40983" lon="0.04109">
        <ele>699.98</ele>
        <time>2014-06-04T08:44:34Z</time>
      </trkpt>
      <trkpt lat="42.40979" lon="0.0413">
        <ele>699.02</ele>
        <time>2014-06-04T08:44:36Z</time>
      </trkpt>
      <trkpt lat="42.40977" lon="0.0414">
        <ele>698.05</ele>
        <time>2014-06-04T08:44:37Z</time>
      </trkpt>
      <trkpt lat="42.40981" lon="0.0418">
        <ele>695.17</ele>
        <time>2014-06-04T08:44:41Z</time>
      </trkpt>
      <trkpt lat="42.41003" lon="0.04241">
        <ele>695.65</ele>
        <time>2014-06-04T08:44:48Z</time>
      </trkpt>
      <trkpt lat="42.41013" lon="0.04262">
        <ele>696.13</ele>
        <time>2014-06-04T08:44:51Z</time>
      </trkpt>
      <trkpt lat="42.41022" lon="0.04291">
        <ele>696.61</ele>
        <time>2014-06-04T08:44:55Z</time>
      </trkpt>
      <trkpt lat="42.41042" lon="0.04356">
        <ele>696.13</ele>
        <time>2014-06-04T08:45:03Z</time>
      </trkpt>
      <trkpt lat="42.41063" lon="0.04413">
        <ele>699.02</ele>
        <time>2014-06-04T08:45:12Z</time>
      </trkpt>
      <trkpt lat="42.41067" lon="0.04436">
        <ele>699.02</ele>
        <time>2014-06-04T08:45:17Z</time>
      </trkpt>
      <trkpt lat="42.41074" lon="0.04459">
        <ele>697.57</ele>
        <time>2014-06-04T08:45:21Z</time>
      </trkpt>
      <trkpt lat="42.41092" lon="0.04489">
        <ele>697.57</ele>
        <time>2014-06-04T08:45:27Z</time>
      </trkpt>
      <trkpt lat="42.41104" lon="0.04505">
        <ele>698.53</ele>
        <time>2014-06-04T08:45:31Z</time>
      </trkpt>
      <trkpt lat="42.4111" lon="0.04513">
        <ele>698.53</ele>
        <time>2014-06-04T08:45:33Z</time>
      </trkpt>
      <trkpt lat="42.41128" lon="0.04569">
        <ele>699.98</ele>
        <time>2014-06-04T08:45:46Z</time>
      </trkpt>
      <trkpt lat="42.41147" lon="0.04609">
        <ele>701.9</ele>
        <time>2014-06-04T08:45:59Z</time>
      </trkpt>
      <trkpt lat="42.4116" lon="0.04659">
        <ele>702.86</ele>
        <time>2014-06-04T08:46:13Z</time>
      </trkpt>
      <trkpt lat="42.41162" lon="0.04714">
        <ele>702.86</ele>
        <time>2014-06-04T08:46:25Z</time>
      </trkpt>
      <trkpt lat="42.41177" lon="0.04757">
        <ele>701.42</ele>
        <time>2014-06-04T08:46:35Z</time>
      </trkpt>
      <trkpt lat="42.41209" lon="0.04825">
        <ele>702.38</ele>
        <time>2014-06-04T08:46:50Z</time>
      </trkpt>
      <trkpt lat="42.41225" lon="0.04858">
        <ele>702.38</ele>
        <time>2014-06-04T08:46:57Z</time>
      </trkpt>
      <trkpt lat="42.41272" lon="0.04946">
        <ele>699.98</ele>
        <time>2014-06-04T08:47:14Z</time>
      </trkpt>
      <trkpt lat="42.41297" lon="0.04956">
        <ele>696.13</ele>
        <time>2014-06-04T08:47:19Z</time>
      </trkpt>
      <trkpt lat="42.41328" lon="0.0496">
        <ele>697.09</ele>
        <time>2014-06-04T08:47:24Z</time>
      </trkpt>
      <trkpt lat="42.4133" lon="0.05001">
        <ele>696.13</ele>
        <time>2014-06-04T08:47:30Z</time>
      </trkpt>
      <trkpt lat="42.41327" lon="0.05009">
        <ele>695.65</ele>
        <time>2014-06-04T08:47:32Z</time>
      </trkpt>
      <trkpt lat="42.41325" lon="0.05013">
        <ele>696.13</ele>
        <time>2014-06-04T08:47:44Z</time>
      </trkpt>
      <trkpt lat="42.41331" lon="0.05022">
        <ele>694.21</ele>
        <time>2014-06-04T08:47:49Z</time>
      </trkpt>
      <trkpt lat="42.41335" lon="0.05026">
        <ele>693.73</ele>
        <time>2014-06-04T08:47:50Z</time>
      </trkpt>
      <trkpt lat="42.41345" lon="0.05034">
        <ele>691.81</ele>
        <time>2014-06-04T08:47:52Z</time>
      </trkpt>
      <trkpt lat="42.41362" lon="0.05055">
        <ele>688.92</ele>
        <time>2014-06-04T08:47:55Z</time>
      </trkpt>
      <trkpt lat="42.41368" lon="0.05075">
        <ele>687.48</ele>
        <time>2014-06-04T08:47:57Z</time>
      </trkpt>
      <trkpt lat="42.41371" lon="0.05097">
        <ele>687.48</ele>
        <time>2014-06-04T08:47:59Z</time>
      </trkpt>
      <trkpt lat="42.41389" lon="0.05146">
        <ele>684.12</ele>
        <time>2014-06-04T08:48:04Z</time>
      </trkpt>
      <trkpt lat="42.41394" lon="0.05156">
        <ele>684.12</ele>
        <time>2014-06-04T08:48:05Z</time>
      </trkpt>
      <trkpt lat="42.41399" lon="0.05165">
        <ele>684.12</ele>
        <time>2014-06-04T08:48:06Z</time>
      </trkpt>
      <trkpt lat="42.41436" lon="0.05199">
        <ele>680.75</ele>
        <time>2014-06-04T08:48:11Z</time>
      </trkpt>
      <trkpt lat="42.41458" lon="0.05232">
        <ele>679.79</ele>
        <time>2014-06-04T08:48:15Z</time>
      </trkpt>
      <trkpt lat="42.4149" lon="0.0525">
        <ele>678.35</ele>
        <time>2014-06-04T08:48:20Z</time>
      </trkpt>
      <trkpt lat="42.41528" lon="0.05248">
        <ele>678.35</ele>
        <time>2014-06-04T08:48:25Z</time>
      </trkpt>
      <trkpt lat="42.41539" lon="0.05253">
        <ele>678.35</ele>
        <time>2014-06-04T08:48:27Z</time>
      </trkpt>
      <trkpt lat="42.41533" lon="0.05271">
        <ele>676.42</ele>
        <time>2014-06-04T08:48:33Z</time>
      </trkpt>
      <trkpt lat="42.41529" lon="0.05305">
        <ele>672.58</ele>
        <time>2014-06-04T08:48:37Z</time>
      </trkpt>
      <trkpt lat="42.4153" lon="0.05315">
        <ele>672.1</ele>
        <time>2014-06-04T08:48:38Z</time>
      </trkpt>
      <trkpt lat="42.41509" lon="0.05343">
        <ele>672.1</ele>
        <time>2014-06-04T08:48:46Z</time>
      </trkpt>
      <trkpt lat="42.41505" lon="0.05342">
        <ele>671.62</ele>
        <time>2014-06-04T08:48:47Z</time>
      </trkpt>
      <trkpt lat="42.41448" lon="0.05311">
        <ele>673.06</ele>
        <time>2014-06-04T08:49:03Z</time>
      </trkpt>
      <trkpt lat="42.41404" lon="0.05282">
        <ele>674.02</ele>
        <time>2014-06-04T08:49:17Z</time>
      </trkpt>
      <trkpt lat="42.41375" lon="0.05261">
        <ele>674.5</ele>
        <time>2014-06-04T08:49:27Z</time>
      </trkpt>
      <trkpt lat="42.41334" lon="0.0521">
        <ele>674.98</ele>
        <time>2014-06-04T08:49:43Z</time>
      </trkpt>
      <trkpt lat="42.41314" lon="0.05156">
        <ele>677.87</ele>
        <time>2014-06-04T08:49:57Z</time>
      </trkpt>
      <trkpt lat="42.41314" lon="0.05153">
        <ele>677.87</ele>
        <time>2014-06-04T08:49:58Z</time>
      </trkpt>
      <trkpt lat="42.41301" lon="0.0511">
        <ele>678.83</ele>
        <time>2014-06-04T08:50:12Z</time>
      </trkpt>
      <trkpt lat="42.41285" lon="0.05082">
        <ele>676.91</ele>
        <time>2014-06-04T08:50:21Z</time>
      </trkpt>
      <trkpt lat="42.41275" lon="0.05076">
        <ele>676.42</ele>
        <time>2014-06-04T08:50:26Z</time>
      </trkpt>
      <trkpt lat="42.41272" lon="0.0507">
        <ele>676.42</ele>
        <time>2014-06-04T08:50:30Z</time>
      </trkpt>
      <trkpt lat="42.41256" lon="0.0506">
        <ele>677.39</ele>
        <time>2014-06-04T08:50:42Z</time>
      </trkpt>
      <trkpt lat="42.41236" lon="0.05044">
        <ele>679.79</ele>
        <time>2014-06-04T08:50:56Z</time>
      </trkpt>
      <trkpt lat="42.41214" lon="0.05034">
        <ele>679.79</ele>
        <time>2014-06-04T08:51:06Z</time>
      </trkpt>
      <trkpt lat="42.41211" lon="0.05021">
        <ele>680.75</ele>
        <time>2014-06-04T08:51:12Z</time>
      </trkpt>
      <trkpt lat="42.41191" lon="0.05004">
        <ele>681.71</ele>
        <time>2014-06-04T08:51:26Z</time>
      </trkpt>
      <trkpt lat="42.41177" lon="0.05">
        <ele>682.19</ele>
        <time>2014-06-04T08:51:35Z</time>
      </trkpt>
      <trkpt lat="42.41148" lon="0.05">
        <ele>682.67</ele>
        <time>2014-06-04T08:51:51Z</time>
      </trkpt>
      <trkpt lat="42.41119" lon="0.05002">
        <ele>682.67</ele>
        <time>2014-06-04T08:52:07Z</time>
      </trkpt>
      <trkpt lat="42.4109" lon="0.05008">
        <ele>684.6</ele>
        <time>2014-06-04T08:52:20Z</time>
      </trkpt>
      <trkpt lat="42.41052" lon="0.05002">
        <ele>684.12</ele>
        <time>2014-06-04T08:52:34Z</time>
      </trkpt>
      <trkpt lat="42.41045" lon="0.04999">
        <ele>683.15</ele>
        <time>2014-06-04T08:52:36Z</time>
      </trkpt>
      <trkpt lat="42.41034" lon="0.04985">
        <ele>683.15</ele>
        <time>2014-06-04T08:52:41Z</time>
      </trkpt>
      <trkpt lat="42.41013" lon="0.04957">
        <ele>685.08</ele>
        <time>2014-06-04T08:52:55Z</time>
      </trkpt>
      <trkpt lat="42.40995" lon="0.0495">
        <ele>687.48</ele>
        <time>2014-06-04T08:53:07Z</time>
      </trkpt>
      <trkpt lat="42.40973" lon="0.04955">
        <ele>690.84</ele>
        <time>2014-06-04T08:53:21Z</time>
      </trkpt>
      <trkpt lat="42.40972" lon="0.04956">
        <ele>690.84</ele>
        <time>2014-06-04T08:53:22Z</time>
      </trkpt>
      <trkpt lat="42.40966" lon="0.04958">
        <ele>691.81</ele>
        <time>2014-06-04T08:53:26Z</time>
      </trkpt>
      <trkpt lat="42.4095" lon="0.04965">
        <ele>693.73</ele>
        <time>2014-06-04T08:53:38Z</time>
      </trkpt>
      <trkpt lat="42.40945" lon="0.04968">
        <ele>694.21</ele>
        <time>2014-06-04T08:53:42Z</time>
      </trkpt>
      <trkpt lat="42.40925" lon="0.0498">
        <ele>696.13</ele>
        <time>2014-06-04T08:53:56Z</time>
      </trkpt>
      <trkpt lat="42.40906" lon="0.04989">
        <ele>698.05</ele>
        <time>2014-06-04T08:54:08Z</time>
      </trkpt>
      <trkpt lat="42.40885" lon="0.04986">
        <ele>698.53</ele>
        <time>2014-06-04T08:54:20Z</time>
      </trkpt>
      <trkpt lat="42.40858" lon="0.04972">
        <ele>701.42</ele>
        <time>2014-06-04T08:54:35Z</time>
      </trkpt>
      <trkpt lat="42.40833" lon="0.04958">
        <ele>703.82</ele>
        <time>2014-06-04T08:54:50Z</time>
      </trkpt>
      <trkpt lat="42.40811" lon="0.04946">
        <ele>707.19</ele>
        <time>2014-06-04T08:55:05Z</time>
      </trkpt>
      <trkpt lat="42.40807" lon="0.0494">
        <ele>707.19</ele>
        <time>2014-06-04T08:55:17Z</time>
      </trkpt>
      <trkpt lat="42.40806" lon="0.0494">
        <ele>706.71</ele>
        <time>2014-06-04T08:55:31Z</time>
      </trkpt>
      <trkpt lat="42.40807" lon="0.0494">
        <ele>706.71</ele>
        <time>2014-06-04T08:56:09Z</time>
      </trkpt>
      <trkpt lat="42.40807" lon="0.0494">
        <ele>707.67</ele>
        <time>2014-06-04T08:56:46Z</time>
      </trkpt>
      <trkpt lat="42.40807" lon="0.0494">
        <ele>706.71</ele>
        <time>2014-06-04T08:57:22Z</time>
      </trkpt>
      <trkpt lat="42.40807" lon="0.0494">
        <ele>706.71</ele>
        <time>2014-06-04T08:57:58Z</time>
      </trkpt>
      <trkpt lat="42.40807" lon="0.0494">
        <ele>707.19</ele>
        <time>2014-06-04T08:58:35Z</time>
      </trkpt>
      <trkpt lat="42.40807" lon="0.0494">
        <ele>706.71</ele>
        <time>2014-06-04T08:59:15Z</time>
      </trkpt>
      <trkpt lat="42.40807" lon="0.04941">
        <ele>706.23</ele>
        <time>2014-06-04T08:59:57Z</time>
      </trkpt>
      <trkpt lat="42.40807" lon="0.04941">
        <ele>706.71</ele>
        <time>2014-06-04T09:00:35Z</time>
      </trkpt>
      <trkpt lat="42.40808" lon="0.04941">
        <ele>706.23</ele>
        <time>2014-06-04T09:01:14Z</time>
      </trkpt>
      <trkpt lat="42.40807" lon="0.04941">
        <ele>706.71</ele>
        <time>2014-06-04T09:01:53Z</time>
      </trkpt>
      <trkpt lat="42.40808" lon="0.04941">
        <ele>706.23</ele>
        <time>2014-06-04T09:02:34Z</time>
      </trkpt>
      <trkpt lat="42.40808" lon="0.0494">
        <ele>705.75</ele>
        <time>2014-06-04T09:03:17Z</time>
      </trkpt>
      <trkpt lat="42.40808" lon="0.0494">
        <ele>705.75</ele>
        <time>2014-06-04T09:03:56Z</time>
      </trkpt>
      <trkpt lat="42.40808" lon="0.0494">
        <ele>706.71</ele>
        <time>2014-06-04T09:03:59Z</time>
      </trkpt>
      <trkpt lat="42.4081" lon="0.0494">
        <ele>706.23</ele>
        <time>2014-06-04T09:04:02Z</time>
      </trkpt>
      <trkpt lat="42.40814" lon="0.04934">
        <ele>706.71</ele>
        <time>2014-06-04T09:04:18Z</time>
      </trkpt>
      <trkpt lat="42.40814" lon="0.04934">
        <ele>707.19</ele>
        <time>2014-06-04T09:04:28Z</time>
      </trkpt>
      <trkpt lat="42.40827" lon="0.04934">
        <ele>708.15</ele>
        <time>2014-06-04T09:04:37Z</time>
      </trkpt>
      <trkpt lat="42.40857" lon="0.04944">
        <ele>710.07</ele>
        <time>2014-06-04T09:04:52Z</time>
      </trkpt>
      <trkpt lat="42.40882" lon="0.04948">
        <ele>712.95</ele>
        <time>2014-06-04T09:05:05Z</time>
      </trkpt>
      <trkpt lat="42.40904" lon="0.04929">
        <ele>715.36</ele>
        <time>2014-06-04T09:05:19Z</time>
      </trkpt>
      <trkpt lat="42.40909" lon="0.04917">
        <ele>716.32</ele>
        <time>2014-06-04T09:05:25Z</time>
      </trkpt>
      <trkpt lat="42.40903" lon="0.04907">
        <ele>717.28</ele>
        <time>2014-06-04T09:05:30Z</time>
      </trkpt>
      <trkpt lat="42.40879" lon="0.04903">
        <ele>720.16</ele>
        <time>2014-06-04T09:05:44Z</time>
      </trkpt>
      <trkpt lat="42.40852" lon="0.04894">
        <ele>722.57</ele>
        <time>2014-06-04T09:05:59Z</time>
      </trkpt>
      <trkpt lat="42.40826" lon="0.04882">
        <ele>724.97</ele>
        <time>2014-06-04T09:06:14Z</time>
      </trkpt>
      <trkpt lat="42.40821" lon="0.04874">
        <ele>726.41</ele>
        <time>2014-06-04T09:06:19Z</time>
      </trkpt>
      <trkpt lat="42.4083" lon="0.04864">
        <ele>727.86</ele>
        <time>2014-06-04T09:06:28Z</time>
      </trkpt>
      <trkpt lat="42.40841" lon="0.04871">
        <ele>728.82</ele>
        <time>2014-06-04T09:06:35Z</time>
      </trkpt>
      <trkpt lat="42.40852" lon="0.04871">
        <ele>730.26</ele>
        <time>2014-06-04T09:06:41Z</time>
      </trkpt>
      <trkpt lat="42.40873" lon="0.04864">
        <ele>732.18</ele>
        <time>2014-06-04T09:06:54Z</time>
      </trkpt>
      <trkpt lat="42.40879" lon="0.04856">
        <ele>733.62</ele>
        <time>2014-06-04T09:06:59Z</time>
      </trkpt>
      <trkpt lat="42.40871" lon="0.04843">
        <ele>734.58</ele>
        <time>2014-06-04T09:07:07Z</time>
      </trkpt>
      <trkpt lat="42.40838" lon="0.04831">
        <ele>736.99</ele>
        <time>2014-06-04T09:07:23Z</time>
      </trkpt>
      <trkpt lat="42.40809" lon="0.04806">
        <ele>740.35</ele>
        <time>2014-06-04T09:07:37Z</time>
      </trkpt>
      <trkpt lat="42.40787" lon="0.04783">
        <ele>743.24</ele>
        <time>2014-06-04T09:07:49Z</time>
      </trkpt>
      <trkpt lat="42.40759" lon="0.04767">
        <ele>745.64</ele>
        <time>2014-06-04T09:08:03Z</time>
      </trkpt>
      <trkpt lat="42.40729" lon="0.0477">
        <ele>748.52</ele>
        <time>2014-06-04T09:08:17Z</time>
      </trkpt>
      <trkpt lat="42.40702" lon="0.04763">
        <ele>751.89</ele>
        <time>2014-06-04T09:08:31Z</time>
      </trkpt>
      <trkpt lat="42.40669" lon="0.04761">
        <ele>754.29</ele>
        <time>2014-06-04T09:08:47Z</time>
      </trkpt>
      <trkpt lat="42.40644" lon="0.04751">
        <ele>756.69</ele>
        <time>2014-06-04T09:08:59Z</time>
      </trkpt>
      <trkpt lat="42.40619" lon="0.04731">
        <ele>759.1</ele>
        <time>2014-06-04T09:09:12Z</time>
      </trkpt>
      <trkpt lat="42.40588" lon="0.04726">
        <ele>761.98</ele>
        <time>2014-06-04T09:09:27Z</time>
      </trkpt>
      <trkpt lat="42.40562" lon="0.04714">
        <ele>764.39</ele>
        <time>2014-06-04T09:09:41Z</time>
      </trkpt>
      <trkpt lat="42.40536" lon="0.04716">
        <ele>767.75</ele>
        <time>2014-06-04T09:09:55Z</time>
      </trkpt>
      <trkpt lat="42.4051" lon="0.04698">
        <ele>771.11</ele>
        <time>2014-06-04T09:10:12Z</time>
      </trkpt>
      <trkpt lat="42.40504" lon="0.04663">
        <ele>774</ele>
        <time>2014-06-04T09:10:28Z</time>
      </trkpt>
      <trkpt lat="42.40509" lon="0.04651">
        <ele>775.44</ele>
        <time>2014-06-04T09:10:34Z</time>
      </trkpt>
      <trkpt lat="42.40527" lon="0.04657">
        <ele>778.32</ele>
        <time>2014-06-04T09:10:47Z</time>
      </trkpt>
      <trkpt lat="42.40529" lon="0.04658">
        <ele>778.32</ele>
        <time>2014-06-04T09:10:48Z</time>
      </trkpt>
      <trkpt lat="42.40536" lon="0.04661">
        <ele>779.29</ele>
        <time>2014-06-04T09:10:52Z</time>
      </trkpt>
      <trkpt lat="42.40545" lon="0.04659">
        <ele>780.25</ele>
        <time>2014-06-04T09:10:57Z</time>
      </trkpt>
      <trkpt lat="42.4058" lon="0.04642">
        <ele>783.13</ele>
        <time>2014-06-04T09:11:11Z</time>
      </trkpt>
      <trkpt lat="42.40614" lon="0.04624">
        <ele>785.53</ele>
        <time>2014-06-04T09:11:23Z</time>
      </trkpt>
      <trkpt lat="42.40638" lon="0.04621">
        <ele>787.94</ele>
        <time>2014-06-04T09:11:33Z</time>
      </trkpt>
      <trkpt lat="42.40665" lon="0.04629">
        <ele>790.34</ele>
        <time>2014-06-04T09:11:46Z</time>
      </trkpt>
      <trkpt lat="42.40688" lon="0.04624">
        <ele>793.22</ele>
        <time>2014-06-04T09:11:58Z</time>
      </trkpt>
      <trkpt lat="42.40677" lon="0.04601">
        <ele>795.63</ele>
        <time>2014-06-04T09:12:09Z</time>
      </trkpt>
      <trkpt lat="42.4065" lon="0.04579">
        <ele>798.51</ele>
        <time>2014-06-04T09:12:25Z</time>
      </trkpt>
      <trkpt lat="42.40624" lon="0.04568">
        <ele>800.44</ele>
        <time>2014-06-04T09:12:39Z</time>
      </trkpt>
      <trkpt lat="42.40605" lon="0.04558">
        <ele>803.8</ele>
        <time>2014-06-04T09:12:50Z</time>
      </trkpt>
      <trkpt lat="42.40587" lon="0.04535">
        <ele>805.72</ele>
        <time>2014-06-04T09:13:05Z</time>
      </trkpt>
      <trkpt lat="42.40578" lon="0.04515">
        <ele>808.61</ele>
        <time>2014-06-04T09:13:15Z</time>
      </trkpt>
      <trkpt lat="42.4056" lon="0.04495">
        <ele>811.49</ele>
        <time>2014-06-04T09:13:30Z</time>
      </trkpt>
      <trkpt lat="42.40552" lon="0.04458">
        <ele>813.89</ele>
        <time>2014-06-04T09:13:46Z</time>
      </trkpt>
      <trkpt lat="42.40541" lon="0.04419">
        <ele>817.26</ele>
        <time>2014-06-04T09:14:03Z</time>
      </trkpt>
      <trkpt lat="42.40543" lon="0.04394">
        <ele>820.62</ele>
        <time>2014-06-04T09:14:15Z</time>
      </trkpt>
      <trkpt lat="42.40561" lon="0.04385">
        <ele>823.03</ele>
        <time>2014-06-04T09:14:27Z</time>
      </trkpt>
      <trkpt lat="42.40577" lon="0.04394">
        <ele>825.91</ele>
        <time>2014-06-04T09:14:39Z</time>
      </trkpt>
      <trkpt lat="42.40596" lon="0.04408">
        <ele>829.27</ele>
        <time>2014-06-04T09:14:53Z</time>
      </trkpt>
      <trkpt lat="42.40616" lon="0.04397">
        <ele>831.2</ele>
        <time>2014-06-04T09:15:07Z</time>
      </trkpt>
      <trkpt lat="42.40634" lon="0.04395">
        <ele>834.56</ele>
        <time>2014-06-04T09:15:20Z</time>
      </trkpt>
      <trkpt lat="42.40636" lon="0.04396">
        <ele>834.56</ele>
        <time>2014-06-04T09:15:21Z</time>
      </trkpt>
      <trkpt lat="42.40647" lon="0.04399">
        <ele>836</ele>
        <time>2014-06-04T09:15:29Z</time>
      </trkpt>
      <trkpt lat="42.40669" lon="0.04386">
        <ele>838.89</ele>
        <time>2014-06-04T09:15:46Z</time>
      </trkpt>
      <trkpt lat="42.40672" lon="0.04384">
        <ele>840.33</ele>
        <time>2014-06-04T09:15:48Z</time>
      </trkpt>
      <trkpt lat="42.40686" lon="0.04383">
        <ele>841.29</ele>
        <time>2014-06-04T09:15:57Z</time>
      </trkpt>
      <trkpt lat="42.40693" lon="0.0438">
        <ele>842.73</ele>
        <time>2014-06-04T09:16:02Z</time>
      </trkpt>
      <trkpt lat="42.40686" lon="0.04367">
        <ele>844.18</ele>
        <time>2014-06-04T09:16:10Z</time>
      </trkpt>
      <trkpt lat="42.40684" lon="0.04365">
        <ele>844.66</ele>
        <time>2014-06-04T09:16:12Z</time>
      </trkpt>
      <trkpt lat="42.40664" lon="0.04352">
        <ele>847.54</ele>
        <time>2014-06-04T09:16:25Z</time>
      </trkpt>
      <trkpt lat="42.40623" lon="0.04325">
        <ele>849.94</ele>
        <time>2014-06-04T09:16:41Z</time>
      </trkpt>
      <trkpt lat="42.40572" lon="0.04285">
        <ele>853.31</ele>
        <time>2014-06-04T09:16:58Z</time>
      </trkpt>
      <trkpt lat="42.4053" lon="0.04269">
        <ele>853.79</ele>
        <time>2014-06-04T09:17:10Z</time>
      </trkpt>
      <trkpt lat="42.40525" lon="0.04268">
        <ele>854.27</ele>
        <time>2014-06-04T09:17:11Z</time>
      </trkpt>
      <trkpt lat="42.405" lon="0.04261">
        <ele>856.67</ele>
        <time>2014-06-04T09:17:17Z</time>
      </trkpt>
      <trkpt lat="42.40486" lon="0.04251">
        <ele>857.63</ele>
        <time>2014-06-04T09:17:21Z</time>
      </trkpt>
      <trkpt lat="42.40474" lon="0.04246">
        <ele>857.15</ele>
        <time>2014-06-04T09:17:24Z</time>
      </trkpt>
      <trkpt lat="42.40452" lon="0.04267">
        <ele>858.59</ele>
        <time>2014-06-04T09:17:32Z</time>
      </trkpt>
      <trkpt lat="42.40451" lon="0.04272">
        <ele>859.08</ele>
        <time>2014-06-04T09:17:33Z</time>
      </trkpt>
      <trkpt lat="42.40436" lon="0.04325">
        <ele>859.56</ele>
        <time>2014-06-04T09:17:43Z</time>
      </trkpt>
      <trkpt lat="42.40404" lon="0.04328">
        <ele>862.92</ele>
        <time>2014-06-04T09:17:54Z</time>
      </trkpt>
      <trkpt lat="42.40396" lon="0.04323">
        <ele>864.36</ele>
        <time>2014-06-04T09:17:58Z</time>
      </trkpt>
      <trkpt lat="42.40378" lon="0.04307">
        <ele>866.77</ele>
        <time>2014-06-04T09:18:10Z</time>
      </trkpt>
      <trkpt lat="42.40362" lon="0.0428">
        <ele>868.21</ele>
        <time>2014-06-04T09:18:22Z</time>
      </trkpt>
      <trkpt lat="42.40342" lon="0.04261">
        <ele>871.09</ele>
        <time>2014-06-04T09:18:35Z</time>
      </trkpt>
      <trkpt lat="42.4032" lon="0.0425">
        <ele>873.5</ele>
        <time>2014-06-04T09:18:47Z</time>
      </trkpt>
      <trkpt lat="42.4031" lon="0.04246">
        <ele>874.46</ele>
        <time>2014-06-04T09:18:53Z</time>
      </trkpt>
      <trkpt lat="42.40269" lon="0.04234">
        <ele>876.86</ele>
        <time>2014-06-04T09:19:11Z</time>
      </trkpt>
      <trkpt lat="42.40241" lon="0.04225">
        <ele>876.38</ele>
        <time>2014-06-04T09:19:19Z</time>
      </trkpt>
      <trkpt lat="42.40226" lon="0.04209">
        <ele>875.42</ele>
        <time>2014-06-04T09:19:23Z</time>
      </trkpt>
      <trkpt lat="42.40201" lon="0.0419">
        <ele>873.01</ele>
        <time>2014-06-04T09:19:28Z</time>
      </trkpt>
      <trkpt lat="42.40203" lon="0.04175">
        <ele>873.01</ele>
        <time>2014-06-04T09:19:31Z</time>
      </trkpt>
      <trkpt lat="42.40214" lon="0.04129">
        <ele>873.98</ele>
        <time>2014-06-04T09:19:41Z</time>
      </trkpt>
      <trkpt lat="42.40223" lon="0.04097">
        <ele>873.98</ele>
        <time>2014-06-04T09:19:47Z</time>
      </trkpt>
      <trkpt lat="42.40226" lon="0.04068">
        <ele>875.9</ele>
        <time>2014-06-04T09:19:53Z</time>
      </trkpt>
      <trkpt lat="42.40221" lon="0.04045">
        <ele>876.38</ele>
        <time>2014-06-04T09:19:58Z</time>
      </trkpt>
      <trkpt lat="42.40202" lon="0.04037">
        <ele>877.34</ele>
        <time>2014-06-04T09:20:04Z</time>
      </trkpt>
      <trkpt lat="42.40182" lon="0.04026">
        <ele>878.3</ele>
        <time>2014-06-04T09:20:10Z</time>
      </trkpt>
      <trkpt lat="42.40175" lon="0.04019">
        <ele>878.3</ele>
        <time>2014-06-04T09:20:12Z</time>
      </trkpt>
      <trkpt lat="42.40153" lon="0.03999">
        <ele>877.34</ele>
        <time>2014-06-04T09:20:18Z</time>
      </trkpt>
      <trkpt lat="42.40142" lon="0.03987">
        <ele>875.9</ele>
        <time>2014-06-04T09:20:21Z</time>
      </trkpt>
      <trkpt lat="42.40138" lon="0.03983">
        <ele>876.38</ele>
        <time>2014-06-04T09:20:22Z</time>
      </trkpt>
      <trkpt lat="42.40109" lon="0.03947">
        <ele>877.82</ele>
        <time>2014-06-04T09:20:32Z</time>
      </trkpt>
      <trkpt lat="42.40095" lon="0.03904">
        <ele>880.71</ele>
        <time>2014-06-04T09:20:45Z</time>
      </trkpt>
      <trkpt lat="42.40095" lon="0.03883">
        <ele>881.67</ele>
        <time>2014-06-04T09:20:51Z</time>
      </trkpt>
      <trkpt lat="42.40084" lon="0.03827">
        <ele>882.15</ele>
        <time>2014-06-04T09:21:04Z</time>
      </trkpt>
      <trkpt lat="42.40072" lon="0.03771">
        <ele>883.11</ele>
        <time>2014-06-04T09:21:18Z</time>
      </trkpt>
      <trkpt lat="42.4007" lon="0.03717">
        <ele>884.55</ele>
        <time>2014-06-04T09:21:30Z</time>
      </trkpt>
      <trkpt lat="42.40063" lon="0.03686">
        <ele>887.91</ele>
        <time>2014-06-04T09:21:43Z</time>
      </trkpt>
      <trkpt lat="42.4004" lon="0.03674">
        <ele>890.8</ele>
        <time>2014-06-04T09:21:56Z</time>
      </trkpt>
      <trkpt lat="42.40015" lon="0.03667">
        <ele>891.76</ele>
        <time>2014-06-04T09:22:11Z</time>
      </trkpt>
      <trkpt lat="42.3999" lon="0.03648">
        <ele>893.68</ele>
        <time>2014-06-04T09:22:28Z</time>
      </trkpt>
      <trkpt lat="42.39983" lon="0.03615">
        <ele>895.61</ele>
        <time>2014-06-04T09:22:42Z</time>
      </trkpt>
      <trkpt lat="42.39968" lon="0.03568">
        <ele>897.05</ele>
        <time>2014-06-04T09:22:58Z</time>
      </trkpt>
      <trkpt lat="42.39949" lon="0.03537">
        <ele>899.93</ele>
        <time>2014-06-04T09:23:12Z</time>
      </trkpt>
      <trkpt lat="42.39928" lon="0.03546">
        <ele>901.37</ele>
        <time>2014-06-04T09:23:23Z</time>
      </trkpt>
      <trkpt lat="42.39902" lon="0.03581">
        <ele>900.89</ele>
        <time>2014-06-04T09:23:33Z</time>
      </trkpt>
      <trkpt lat="42.39889" lon="0.03596">
        <ele>901.85</ele>
        <time>2014-06-04T09:23:37Z</time>
      </trkpt>
      <trkpt lat="42.39857" lon="0.03621">
        <ele>903.78</ele>
        <time>2014-06-04T09:23:46Z</time>
      </trkpt>
      <trkpt lat="42.39836" lon="0.0362">
        <ele>904.74</ele>
        <time>2014-06-04T09:23:58Z</time>
      </trkpt>
      <trkpt lat="42.39845" lon="0.03592">
        <ele>907.14</ele>
        <time>2014-06-04T09:24:10Z</time>
      </trkpt>
      <trkpt lat="42.39861" lon="0.03563">
        <ele>909.06</ele>
        <time>2014-06-04T09:24:26Z</time>
      </trkpt>
      <trkpt lat="42.39862" lon="0.03559">
        <ele>909.54</ele>
        <time>2014-06-04T09:24:28Z</time>
      </trkpt>
      <trkpt lat="42.39876" lon="0.03538">
        <ele>911.95</ele>
        <time>2014-06-04T09:24:42Z</time>
      </trkpt>
      <trkpt lat="42.39896" lon="0.03512">
        <ele>913.39</ele>
        <time>2014-06-04T09:24:56Z</time>
      </trkpt>
      <trkpt lat="42.39922" lon="0.03477">
        <ele>915.31</ele>
        <time>2014-06-04T09:25:13Z</time>
      </trkpt>
      <trkpt lat="42.39937" lon="0.03456">
        <ele>917.24</ele>
        <time>2014-06-04T09:25:25Z</time>
      </trkpt>
      <trkpt lat="42.39941" lon="0.0345">
        <ele>917.72</ele>
        <time>2014-06-04T09:25:29Z</time>
      </trkpt>
      <trkpt lat="42.39947" lon="0.03447">
        <ele>918.2</ele>
        <time>2014-06-04T09:25:33Z</time>
      </trkpt>
      <trkpt lat="42.39965" lon="0.0344">
        <ele>919.64</ele>
        <time>2014-06-04T09:25:45Z</time>
      </trkpt>
      <trkpt lat="42.3997" lon="0.03443">
        <ele>920.12</ele>
        <time>2014-06-04T09:25:59Z</time>
      </trkpt>
      <trkpt lat="42.39984" lon="0.0346">
        <ele>921.08</ele>
        <time>2014-06-04T09:26:10Z</time>
      </trkpt>
      <trkpt lat="42.40003" lon="0.03483">
        <ele>922.04</ele>
        <time>2014-06-04T09:26:21Z</time>
      </trkpt>
      <trkpt lat="42.40025" lon="0.03515">
        <ele>923.96</ele>
        <time>2014-06-04T09:26:36Z</time>
      </trkpt>
      <trkpt lat="42.4003" lon="0.03524">
        <ele>924.93</ele>
        <time>2014-06-04T09:26:40Z</time>
      </trkpt>
      <trkpt lat="42.40038" lon="0.03513">
        <ele>925.89</ele>
        <time>2014-06-04T09:26:50Z</time>
      </trkpt>
      <trkpt lat="42.40036" lon="0.03506">
        <ele>926.85</ele>
        <time>2014-06-04T09:26:53Z</time>
      </trkpt>
      <trkpt lat="42.40025" lon="0.03463">
        <ele>929.25</ele>
        <time>2014-06-04T09:27:10Z</time>
      </trkpt>
      <trkpt lat="42.4002" lon="0.03448">
        <ele>930.69</ele>
        <time>2014-06-04T09:27:16Z</time>
      </trkpt>
      <trkpt lat="42.40013" lon="0.03435">
        <ele>931.65</ele>
        <time>2014-06-04T09:27:22Z</time>
      </trkpt>
      <trkpt lat="42.39998" lon="0.03403">
        <ele>934.54</ele>
        <time>2014-06-04T09:27:37Z</time>
      </trkpt>
      <trkpt lat="42.39991" lon="0.0337">
        <ele>936.94</ele>
        <time>2014-06-04T09:27:52Z</time>
      </trkpt>
      <trkpt lat="42.39976" lon="0.03346">
        <ele>939.83</ele>
        <time>2014-06-04T09:28:06Z</time>
      </trkpt>
      <trkpt lat="42.3996" lon="0.03331">
        <ele>942.23</ele>
        <time>2014-06-04T09:28:18Z</time>
      </trkpt>
      <trkpt lat="42.39955" lon="0.03325">
        <ele>943.67</ele>
        <time>2014-06-04T09:28:23Z</time>
      </trkpt>
      <trkpt lat="42.39963" lon="0.03314">
        <ele>945.59</ele>
        <time>2014-06-04T09:28:35Z</time>
      </trkpt>
      <trkpt lat="42.3997" lon="0.03319">
        <ele>946.56</ele>
        <time>2014-06-04T09:28:40Z</time>
      </trkpt>
      <trkpt lat="42.4" lon="0.0333">
        <ele>948.96</ele>
        <time>2014-06-04T09:28:57Z</time>
      </trkpt>
      <trkpt lat="42.4002" lon="0.03338">
        <ele>951.84</ele>
        <time>2014-06-04T09:29:11Z</time>
      </trkpt>
      <trkpt lat="42.40038" lon="0.0335">
        <ele>954.25</ele>
        <time>2014-06-04T09:29:25Z</time>
      </trkpt>
      <trkpt lat="42.40047" lon="0.03356">
        <ele>955.69</ele>
        <time>2014-06-04T09:29:32Z</time>
      </trkpt>
      <trkpt lat="42.40067" lon="0.0337">
        <ele>958.09</ele>
        <time>2014-06-04T09:29:47Z</time>
      </trkpt>
      <trkpt lat="42.40076" lon="0.03371">
        <ele>958.57</ele>
        <time>2014-06-04T09:29:54Z</time>
      </trkpt>
      <trkpt lat="42.40085" lon="0.03361">
        <ele>960.01</ele>
        <time>2014-06-04T09:30:02Z</time>
      </trkpt>
      <trkpt lat="42.40081" lon="0.03352">
        <ele>960.98</ele>
        <time>2014-06-04T09:30:08Z</time>
      </trkpt>
      <trkpt lat="42.40072" lon="0.03338">
        <ele>962.9</ele>
        <time>2014-06-04T09:30:18Z</time>
      </trkpt>
      <trkpt lat="42.40065" lon="0.03318">
        <ele>964.34</ele>
        <time>2014-06-04T09:30:30Z</time>
      </trkpt>
      <trkpt lat="42.40062" lon="0.03312">
        <ele>964.82</ele>
        <time>2014-06-04T09:30:34Z</time>
      </trkpt>
      <trkpt lat="42.40057" lon="0.03303">
        <ele>965.78</ele>
        <time>2014-06-04T09:30:40Z</time>
      </trkpt>
      <trkpt lat="42.4005" lon="0.03282">
        <ele>968.18</ele>
        <time>2014-06-04T09:30:54Z</time>
      </trkpt>
      <trkpt lat="42.40041" lon="0.0326">
        <ele>969.15</ele>
        <time>2014-06-04T09:31:08Z</time>
      </trkpt>
      <trkpt lat="42.40036" lon="0.03253">
        <ele>970.11</ele>
        <time>2014-06-04T09:31:14Z</time>
      </trkpt>
      <trkpt lat="42.40033" lon="0.03249">
        <ele>971.07</ele>
        <time>2014-06-04T09:31:18Z</time>
      </trkpt>
      <trkpt lat="42.40026" lon="0.03223">
        <ele>973.47</ele>
        <time>2014-06-04T09:31:33Z</time>
      </trkpt>
      <trkpt lat="42.40025" lon="0.03216">
        <ele>973.95</ele>
        <time>2014-06-04T09:31:37Z</time>
      </trkpt>
      <trkpt lat="42.40023" lon="0.03192">
        <ele>975.39</ele>
        <time>2014-06-04T09:31:49Z</time>
      </trkpt>
      <trkpt lat="42.40023" lon="0.0319">
        <ele>976.36</ele>
        <time>2014-06-04T09:31:50Z</time>
      </trkpt>
      <trkpt lat="42.4002" lon="0.0317">
        <ele>977.8</ele>
        <time>2014-06-04T09:32:00Z</time>
      </trkpt>
      <trkpt lat="42.40019" lon="0.03164">
        <ele>977.32</ele>
        <time>2014-06-04T09:32:03Z</time>
      </trkpt>
      <trkpt lat="42.40014" lon="0.03134">
        <ele>980.68</ele>
        <time>2014-06-04T09:32:18Z</time>
      </trkpt>
      <trkpt lat="42.40014" lon="0.03132">
        <ele>980.68</ele>
        <time>2014-06-04T09:32:19Z</time>
      </trkpt>
      <trkpt lat="42.4001" lon="0.03103">
        <ele>982.12</ele>
        <time>2014-06-04T09:32:33Z</time>
      </trkpt>
      <trkpt lat="42.40003" lon="0.03067">
        <ele>985.01</ele>
        <time>2014-06-04T09:32:50Z</time>
      </trkpt>
      <trkpt lat="42.40005" lon="0.03037">
        <ele>987.41</ele>
        <time>2014-06-04T09:33:04Z</time>
      </trkpt>
      <trkpt lat="42.40021" lon="0.03003">
        <ele>989.81</ele>
        <time>2014-06-04T09:33:19Z</time>
      </trkpt>
      <trkpt lat="42.40032" lon="0.02963">
        <ele>991.74</ele>
        <time>2014-06-04T09:33:33Z</time>
      </trkpt>
      <trkpt lat="42.4004" lon="0.02922">
        <ele>990.78</ele>
        <time>2014-06-04T09:33:46Z</time>
      </trkpt>
      <trkpt lat="42.40039" lon="0.0288">
        <ele>992.7</ele>
        <time>2014-06-04T09:33:58Z</time>
      </trkpt>
      <trkpt lat="42.40028" lon="0.02847">
        <ele>995.58</ele>
        <time>2014-06-04T09:34:12Z</time>
      </trkpt>
      <trkpt lat="42.40011" lon="0.02829">
        <ele>997.99</ele>
        <time>2014-06-04T09:34:26Z</time>
      </trkpt>
      <trkpt lat="42.40005" lon="0.02827">
        <ele>998.95</ele>
        <time>2014-06-04T09:34:30Z</time>
      </trkpt>
      <trkpt lat="42.39982" lon="0.02821">
        <ele>1002.31</ele>
        <time>2014-06-04T09:34:44Z</time>
      </trkpt>
      <trkpt lat="42.39952" lon="0.02813">
        <ele>1004.23</ele>
        <time>2014-06-04T09:34:59Z</time>
      </trkpt>
      <trkpt lat="42.39907" lon="0.02803">
        <ele>1004.72</ele>
        <time>2014-06-04T09:35:14Z</time>
      </trkpt>
      <trkpt lat="42.39885" lon="0.02767">
        <ele>1006.16</ele>
        <time>2014-06-04T09:35:25Z</time>
      </trkpt>
      <trkpt lat="42.39875" lon="0.02751">
        <ele>1008.08</ele>
        <time>2014-06-04T09:35:32Z</time>
      </trkpt>
      <trkpt lat="42.3987" lon="0.02742">
        <ele>1009.04</ele>
        <time>2014-06-04T09:35:36Z</time>
      </trkpt>
      <trkpt lat="42.39863" lon="0.0274">
        <ele>1010</ele>
        <time>2014-06-04T09:35:40Z</time>
      </trkpt>
      <trkpt lat="42.39843" lon="0.02733">
        <ele>1011.93</ele>
        <time>2014-06-04T09:35:52Z</time>
      </trkpt>
      <trkpt lat="42.39833" lon="0.02728">
        <ele>1014.33</ele>
        <time>2014-06-04T09:35:58Z</time>
      </trkpt>
      <trkpt lat="42.39831" lon="0.02727">
        <ele>1014.81</ele>
        <time>2014-06-04T09:36:00Z</time>
      </trkpt>
      <trkpt lat="42.39819" lon="0.02725">
        <ele>1016.73</ele>
        <time>2014-06-04T09:36:07Z</time>
      </trkpt>
      <trkpt lat="42.39796" lon="0.02719">
        <ele>1019.62</ele>
        <time>2014-06-04T09:36:21Z</time>
      </trkpt>
      <trkpt lat="42.39782" lon="0.02714">
        <ele>1021.54</ele>
        <time>2014-06-04T09:36:30Z</time>
      </trkpt>
      <trkpt lat="42.3976" lon="0.02709">
        <ele>1024.42</ele>
        <time>2014-06-04T09:36:44Z</time>
      </trkpt>
      <trkpt lat="42.39757" lon="0.02709">
        <ele>1024.42</ele>
        <time>2014-06-04T09:36:57Z</time>
      </trkpt>
      <trkpt lat="42.39757" lon="0.02709">
        <ele>1023.94</ele>
        <time>2014-06-04T09:37:19Z</time>
      </trkpt>
      <trkpt lat="42.39757" lon="0.02709">
        <ele>1024.42</ele>
        <time>2014-06-04T09:37:44Z</time>
      </trkpt>
      <trkpt lat="42.39757" lon="0.02709">
        <ele>1024.42</ele>
        <time>2014-06-04T09:38:13Z</time>
      </trkpt>
      <trkpt lat="42.39757" lon="0.02709">
        <ele>1023.94</ele>
        <time>2014-06-04T09:38:40Z</time>
      </trkpt>
      <trkpt lat="42.39757" lon="0.02709">
        <ele>1023.94</ele>
        <time>2014-06-04T09:39:10Z</time>
      </trkpt>
      <trkpt lat="42.39757" lon="0.02709">
        <ele>1024.42</ele>
        <time>2014-06-04T09:39:39Z</time>
      </trkpt>
      <trkpt lat="42.39757" lon="0.02709">
        <ele>1023.94</ele>
        <time>2014-06-04T09:40:08Z</time>
      </trkpt>
      <trkpt lat="42.39757" lon="0.02709">
        <ele>1024.42</ele>
        <time>2014-06-04T09:40:37Z</time>
      </trkpt>
      <trkpt lat="42.39757" lon="0.02709">
        <ele>1024.42</ele>
        <time>2014-06-04T09:41:16Z</time>
      </trkpt>
      <trkpt lat="42.39757" lon="0.02709">
        <ele>1024.9</ele>
        <time>2014-06-04T09:41:48Z</time>
      </trkpt>
      <trkpt lat="42.39757" lon="0.02709">
        <ele>1024.42</ele>
        <time>2014-06-04T09:42:18Z</time>
      </trkpt>
      <trkpt lat="42.39757" lon="0.02709">
        <ele>1022.98</ele>
        <time>2014-06-04T09:42:20Z</time>
      </trkpt>
      <trkpt lat="42.39757" lon="0.02709">
        <ele>1024.9</ele>
        <time>2014-06-04T09:42:46Z</time>
      </trkpt>
      <trkpt lat="42.39757" lon="0.02709">
        <ele>1024.9</ele>
        <time>2014-06-04T09:43:16Z</time>
      </trkpt>
      <trkpt lat="42.39757" lon="0.02709">
        <ele>1025.38</ele>
        <time>2014-06-04T09:43:37Z</time>
      </trkpt>
      <trkpt lat="42.39757" lon="0.02709">
        <ele>1024.9</ele>
        <time>2014-06-04T09:43:48Z</time>
      </trkpt>
      <trkpt lat="42.39756" lon="0.02709">
        <ele>1024.42</ele>
        <time>2014-06-04T09:43:51Z</time>
      </trkpt>
      <trkpt lat="42.39748" lon="0.02718">
        <ele>1022.5</ele>
        <time>2014-06-04T09:43:55Z</time>
      </trkpt>
      <trkpt lat="42.39746" lon="0.02727">
        <ele>1021.06</ele>
        <time>2014-06-04T09:44:00Z</time>
      </trkpt>
      <trkpt lat="42.39739" lon="0.02734">
        <ele>1019.62</ele>
        <time>2014-06-04T09:44:05Z</time>
      </trkpt>
      <trkpt lat="42.39734" lon="0.02744">
        <ele>1017.21</ele>
        <time>2014-06-04T09:44:08Z</time>
      </trkpt>
      <trkpt lat="42.39733" lon="0.02752">
        <ele>1015.29</ele>
        <time>2014-06-04T09:44:10Z</time>
      </trkpt>
      <trkpt lat="42.39724" lon="0.02779">
        <ele>1013.37</ele>
        <time>2014-06-04T09:44:14Z</time>
      </trkpt>
      <trkpt lat="42.39716" lon="0.02787">
        <ele>1011.93</ele>
        <time>2014-06-04T09:44:16Z</time>
      </trkpt>
      <trkpt lat="42.39709" lon="0.02793">
        <ele>1010.96</ele>
        <time>2014-06-04T09:44:18Z</time>
      </trkpt>
      <trkpt lat="42.39691" lon="0.02806">
        <ele>1007.12</ele>
        <time>2014-06-04T09:44:22Z</time>
      </trkpt>
      <trkpt lat="42.39687" lon="0.0281">
        <ele>1006.64</ele>
        <time>2014-06-04T09:44:23Z</time>
      </trkpt>
      <trkpt lat="42.39675" lon="0.02818">
        <ele>1005.68</ele>
        <time>2014-06-04T09:44:26Z</time>
      </trkpt>
      <trkpt lat="42.39667" lon="0.02823">
        <ele>1005.2</ele>
        <time>2014-06-04T09:44:28Z</time>
      </trkpt>
      <trkpt lat="42.39649" lon="0.02844">
        <ele>1002.79</ele>
        <time>2014-06-04T09:44:34Z</time>
      </trkpt>
      <trkpt lat="42.39639" lon="0.02857">
        <ele>1001.35</ele>
        <time>2014-06-04T09:44:37Z</time>
      </trkpt>
      <trkpt lat="42.39624" lon="0.02881">
        <ele>997.99</ele>
        <time>2014-06-04T09:44:42Z</time>
      </trkpt>
      <trkpt lat="42.39622" lon="0.02885">
        <ele>997.51</ele>
        <time>2014-06-04T09:44:43Z</time>
      </trkpt>
      <trkpt lat="42.39617" lon="0.02894">
        <ele>996.06</ele>
        <time>2014-06-04T09:44:45Z</time>
      </trkpt>
      <trkpt lat="42.39596" lon="0.02913">
        <ele>994.62</ele>
        <time>2014-06-04T09:44:50Z</time>
      </trkpt>
      <trkpt lat="42.39573" lon="0.02929">
        <ele>994.14</ele>
        <time>2014-06-04T09:44:56Z</time>
      </trkpt>
      <trkpt lat="42.39567" lon="0.02933">
        <ele>995.1</ele>
        <time>2014-06-04T09:44:58Z</time>
      </trkpt>
      <trkpt lat="42.39566" lon="0.02953">
        <ele>992.22</ele>
        <time>2014-06-04T09:45:02Z</time>
      </trkpt>
      <trkpt lat="42.39568" lon="0.02966">
        <ele>991.26</ele>
        <time>2014-06-04T09:45:04Z</time>
      </trkpt>
      <trkpt lat="42.39568" lon="0.02971">
        <ele>990.78</ele>
        <time>2014-06-04T09:45:05Z</time>
      </trkpt>
      <trkpt lat="42.39557" lon="0.0298">
        <ele>991.26</ele>
        <time>2014-06-04T09:45:10Z</time>
      </trkpt>
      <trkpt lat="42.3953" lon="0.02989">
        <ele>990.78</ele>
        <time>2014-06-04T09:45:20Z</time>
      </trkpt>
      <trkpt lat="42.39519" lon="0.03001">
        <ele>988.85</ele>
        <time>2014-06-04T09:45:23Z</time>
      </trkpt>
      <trkpt lat="42.39508" lon="0.03013">
        <ele>988.37</ele>
        <time>2014-06-04T09:45:26Z</time>
      </trkpt>
      <trkpt lat="42.39489" lon="0.03035">
        <ele>984.53</ele>
        <time>2014-06-04T09:45:31Z</time>
      </trkpt>
      <trkpt lat="42.39482" lon="0.03044">
        <ele>983.09</ele>
        <time>2014-06-04T09:45:33Z</time>
      </trkpt>
      <trkpt lat="42.39478" lon="0.0305">
        <ele>982.12</ele>
        <time>2014-06-04T09:45:34Z</time>
      </trkpt>
      <trkpt lat="42.39464" lon="0.03069">
        <ele>980.2</ele>
        <time>2014-06-04T09:45:38Z</time>
      </trkpt>
      <trkpt lat="42.3946" lon="0.03089">
        <ele>976.36</ele>
        <time>2014-06-04T09:45:41Z</time>
      </trkpt>
      <trkpt lat="42.39452" lon="0.03099">
        <ele>974.91</ele>
        <time>2014-06-04T09:45:43Z</time>
      </trkpt>
      <trkpt lat="42.39426" lon="0.03126">
        <ele>973.95</ele>
        <time>2014-06-04T09:45:50Z</time>
      </trkpt>
      <trkpt lat="42.39414" lon="0.03149">
        <ele>972.51</ele>
        <time>2014-06-04T09:45:55Z</time>
      </trkpt>
      <trkpt lat="42.394" lon="0.03175">
        <ele>970.59</ele>
        <time>2014-06-04T09:46:00Z</time>
      </trkpt>
      <trkpt lat="42.3939" lon="0.03193">
        <ele>967.22</ele>
        <time>2014-06-04T09:46:04Z</time>
      </trkpt>
      <trkpt lat="42.39399" lon="0.03201">
        <ele>963.38</ele>
        <time>2014-06-04T09:46:09Z</time>
      </trkpt>
      <trkpt lat="42.39402" lon="0.03204">
        <ele>962.9</ele>
        <time>2014-06-04T09:46:10Z</time>
      </trkpt>
      <trkpt lat="42.39404" lon="0.03209">
        <ele>962.9</ele>
        <time>2014-06-04T09:46:12Z</time>
      </trkpt>
      <trkpt lat="42.39406" lon="0.03218">
        <ele>960.98</ele>
        <time>2014-06-04T09:46:18Z</time>
      </trkpt>
      <trkpt lat="42.39405" lon="0.0323">
        <ele>959.05</ele>
        <time>2014-06-04T09:46:22Z</time>
      </trkpt>
      <trkpt lat="42.39402" lon="0.03237">
        <ele>956.17</ele>
        <time>2014-06-04T09:46:27Z</time>
      </trkpt>
      <trkpt lat="42.39397" lon="0.03248">
        <ele>952.8</ele>
        <time>2014-06-04T09:46:31Z</time>
      </trkpt>
      <trkpt lat="42.39393" lon="0.03265">
        <ele>948.48</ele>
        <time>2014-06-04T09:46:35Z</time>
      </trkpt>
      <trkpt lat="42.39401" lon="0.03269">
        <ele>946.56</ele>
        <time>2014-06-04T09:46:40Z</time>
      </trkpt>
      <trkpt lat="42.39416" lon="0.03276">
        <ele>941.75</ele>
        <time>2014-06-04T09:46:45Z</time>
      </trkpt>
      <trkpt lat="42.39419" lon="0.03279">
        <ele>940.79</ele>
        <time>2014-06-04T09:46:46Z</time>
      </trkpt>
      <trkpt lat="42.39424" lon="0.03283">
        <ele>938.86</ele>
        <time>2014-06-04T09:46:50Z</time>
      </trkpt>
      <trkpt lat="42.39417" lon="0.03292">
        <ele>935.5</ele>
        <time>2014-06-04T09:46:54Z</time>
      </trkpt>
      <trkpt lat="42.39401" lon="0.03309">
        <ele>931.17</ele>
        <time>2014-06-04T09:46:58Z</time>
      </trkpt>
      <trkpt lat="42.39395" lon="0.0332">
        <ele>928.77</ele>
        <time>2014-06-04T09:47:00Z</time>
      </trkpt>
      <trkpt lat="42.39388" lon="0.03339">
        <ele>924.45</ele>
        <time>2014-06-04T09:47:03Z</time>
      </trkpt>
      <trkpt lat="42.39393" lon="0.03345">
        <ele>920.6</ele>
        <time>2014-06-04T09:47:08Z</time>
      </trkpt>
      <trkpt lat="42.39397" lon="0.03347">
        <ele>918.68</ele>
        <time>2014-06-04T09:47:10Z</time>
      </trkpt>
      <trkpt lat="42.39399" lon="0.03355">
        <ele>915.31</ele>
        <time>2014-06-04T09:47:16Z</time>
      </trkpt>
      <trkpt lat="42.39399" lon="0.03358">
        <ele>913.87</ele>
        <time>2014-06-04T09:47:18Z</time>
      </trkpt>
      <trkpt lat="42.39409" lon="0.03366">
        <ele>910.03</ele>
        <time>2014-06-04T09:47:22Z</time>
      </trkpt>
      <trkpt lat="42.39414" lon="0.03369">
        <ele>908.1</ele>
        <time>2014-06-04T09:47:24Z</time>
      </trkpt>
      <trkpt lat="42.39431" lon="0.03376">
        <ele>904.74</ele>
        <time>2014-06-04T09:47:28Z</time>
      </trkpt>
      <trkpt lat="42.39444" lon="0.03379">
        <ele>901.85</ele>
        <time>2014-06-04T09:47:32Z</time>
      </trkpt>
      <trkpt lat="42.39456" lon="0.03383">
        <ele>898.49</ele>
        <time>2014-06-04T09:47:36Z</time>
      </trkpt>
      <trkpt lat="42.3946" lon="0.03393">
        <ele>895.12</ele>
        <time>2014-06-04T09:47:40Z</time>
      </trkpt>
      <trkpt lat="42.39463" lon="0.03396">
        <ele>895.12</ele>
        <time>2014-06-04T09:47:42Z</time>
      </trkpt>
      <trkpt lat="42.39471" lon="0.034">
        <ele>892.24</ele>
        <time>2014-06-04T09:47:45Z</time>
      </trkpt>
      <trkpt lat="42.39473" lon="0.03411">
        <ele>888.88</ele>
        <time>2014-06-04T09:47:49Z</time>
      </trkpt>
      <trkpt lat="42.39468" lon="0.03426">
        <ele>886.95</ele>
        <time>2014-06-04T09:47:53Z</time>
      </trkpt>
      <trkpt lat="42.39478" lon="0.03437">
        <ele>883.59</ele>
        <time>2014-06-04T09:47:57Z</time>
      </trkpt>
      <trkpt lat="42.39483" lon="0.0345">
        <ele>880.22</ele>
        <time>2014-06-04T09:48:00Z</time>
      </trkpt>
      <trkpt lat="42.39481" lon="0.03463">
        <ele>876.38</ele>
        <time>2014-06-04T09:48:04Z</time>
      </trkpt>
      <trkpt lat="42.39486" lon="0.03476">
        <ele>873.01</ele>
        <time>2014-06-04T09:48:07Z</time>
      </trkpt>
      <trkpt lat="42.39496" lon="0.03492">
        <ele>869.65</ele>
        <time>2014-06-04T09:48:11Z</time>
      </trkpt>
      <trkpt lat="42.39497" lon="0.03497">
        <ele>869.65</ele>
        <time>2014-06-04T09:48:12Z</time>
      </trkpt>
      <trkpt lat="42.39499" lon="0.03511">
        <ele>865.8</ele>
        <time>2014-06-04T09:48:16Z</time>
      </trkpt>
      <trkpt lat="42.39491" lon="0.03522">
        <ele>861.48</ele>
        <time>2014-06-04T09:48:22Z</time>
      </trkpt>
      <trkpt lat="42.39493" lon="0.03543">
        <ele>858.59</ele>
        <time>2014-06-04T09:48:25Z</time>
      </trkpt>
      <trkpt lat="42.39493" lon="0.03564">
        <ele>855.71</ele>
        <time>2014-06-04T09:48:28Z</time>
      </trkpt>
      <trkpt lat="42.39489" lon="0.03582">
        <ele>853.79</ele>
        <time>2014-06-04T09:48:31Z</time>
      </trkpt>
      <trkpt lat="42.39483" lon="0.03595">
        <ele>851.38</ele>
        <time>2014-06-04T09:48:33Z</time>
      </trkpt>
      <trkpt lat="42.39467" lon="0.03654">
        <ele>849.46</ele>
        <time>2014-06-04T09:48:40Z</time>
      </trkpt>
      <trkpt lat="42.39456" lon="0.03681">
        <ele>848.98</ele>
        <time>2014-06-04T09:48:45Z</time>
      </trkpt>
      <trkpt lat="42.39449" lon="0.03695">
        <ele>848.02</ele>
        <time>2014-06-04T09:48:48Z</time>
      </trkpt>
      <trkpt lat="42.39438" lon="0.03713">
        <ele>847.54</ele>
        <time>2014-06-04T09:48:52Z</time>
      </trkpt>
      <trkpt lat="42.39432" lon="0.03723">
        <ele>846.58</ele>
        <time>2014-06-04T09:48:54Z</time>
      </trkpt>
      <trkpt lat="42.39422" lon="0.03738">
        <ele>845.14</ele>
        <time>2014-06-04T09:48:57Z</time>
      </trkpt>
      <trkpt lat="42.39408" lon="0.03756">
        <ele>844.66</ele>
        <time>2014-06-04T09:49:01Z</time>
      </trkpt>
      <trkpt lat="42.39389" lon="0.03782">
        <ele>843.21</ele>
        <time>2014-06-04T09:49:06Z</time>
      </trkpt>
      <trkpt lat="42.3937" lon="0.03818">
        <ele>839.85</ele>
        <time>2014-06-04T09:49:11Z</time>
      </trkpt>
      <trkpt lat="42.39358" lon="0.03843">
        <ele>839.37</ele>
        <time>2014-06-04T09:49:15Z</time>
      </trkpt>
      <trkpt lat="42.39342" lon="0.0386">
        <ele>838.89</ele>
        <time>2014-06-04T09:49:20Z</time>
      </trkpt>
      <trkpt lat="42.3933" lon="0.03878">
        <ele>838.41</ele>
        <time>2014-06-04T09:49:24Z</time>
      </trkpt>
      <trkpt lat="42.39318" lon="0.03925">
        <ele>841.29</ele>
        <time>2014-06-04T09:49:35Z</time>
      </trkpt>
      <trkpt lat="42.39323" lon="0.03944">
        <ele>841.29</ele>
        <time>2014-06-04T09:49:40Z</time>
      </trkpt>
      <trkpt lat="42.39338" lon="0.03959">
        <ele>840.33</ele>
        <time>2014-06-04T09:49:44Z</time>
      </trkpt>
      <trkpt lat="42.39344" lon="0.03977">
        <ele>838.89</ele>
        <time>2014-06-04T09:49:48Z</time>
      </trkpt>
      <trkpt lat="42.39341" lon="0.04038">
        <ele>837.45</ele>
        <time>2014-06-04T09:49:59Z</time>
      </trkpt>
      <trkpt lat="42.3934" lon="0.04049">
        <ele>837.93</ele>
        <time>2014-06-04T09:50:01Z</time>
      </trkpt>
      <trkpt lat="42.39333" lon="0.04082">
        <ele>838.89</ele>
        <time>2014-06-04T09:50:07Z</time>
      </trkpt>
      <trkpt lat="42.39313" lon="0.04102">
        <ele>837.45</ele>
        <time>2014-06-04T09:50:13Z</time>
      </trkpt>
      <trkpt lat="42.39293" lon="0.04122">
        <ele>835.52</ele>
        <time>2014-06-04T09:50:18Z</time>
      </trkpt>
      <trkpt lat="42.39288" lon="0.04139">
        <ele>837.93</ele>
        <time>2014-06-04T09:50:23Z</time>
      </trkpt>
      <trkpt lat="42.39284" lon="0.04162">
        <ele>841.29</ele>
        <time>2014-06-04T09:50:34Z</time>
      </trkpt>
      <trkpt lat="42.39281" lon="0.04184">
        <ele>844.66</ele>
        <time>2014-06-04T09:50:44Z</time>
      </trkpt>
      <trkpt lat="42.39279" lon="0.04187">
        <ele>845.14</ele>
        <time>2014-06-04T09:50:46Z</time>
      </trkpt>
      <trkpt lat="42.39279" lon="0.0419">
        <ele>845.14</ele>
        <time>2014-06-04T09:50:48Z</time>
      </trkpt>
      <trkpt lat="42.39278" lon="0.04203">
        <ele>848.5</ele>
        <time>2014-06-04T09:50:54Z</time>
      </trkpt>
      <trkpt lat="42.39278" lon="0.04209">
        <ele>849.46</ele>
        <time>2014-06-04T09:50:59Z</time>
      </trkpt>
      <trkpt lat="42.39284" lon="0.0422">
        <ele>849.46</ele>
        <time>2014-06-04T09:51:05Z</time>
      </trkpt>
      <trkpt lat="42.39286" lon="0.04223">
        <ele>849.46</ele>
        <time>2014-06-04T09:51:07Z</time>
      </trkpt>
      <trkpt lat="42.39283" lon="0.04229">
        <ele>849.46</ele>
        <time>2014-06-04T09:51:11Z</time>
      </trkpt>
      <trkpt lat="42.3927" lon="0.04245">
        <ele>845.14</ele>
        <time>2014-06-04T09:51:17Z</time>
      </trkpt>
      <trkpt lat="42.39264" lon="0.0425">
        <ele>843.69</ele>
        <time>2014-06-04T09:51:19Z</time>
      </trkpt>
      <trkpt lat="42.39251" lon="0.04265">
        <ele>839.85</ele>
        <time>2014-06-04T09:51:23Z</time>
      </trkpt>
      <trkpt lat="42.39245" lon="0.04284">
        <ele>836</ele>
        <time>2014-06-04T09:51:28Z</time>
      </trkpt>
      <trkpt lat="42.3924" lon="0.04299">
        <ele>830.72</ele>
        <time>2014-06-04T09:51:33Z</time>
      </trkpt>
      <trkpt lat="42.39231" lon="0.04318">
        <ele>825.91</ele>
        <time>2014-06-04T09:51:37Z</time>
      </trkpt>
      <trkpt lat="42.39215" lon="0.04331">
        <ele>821.58</ele>
        <time>2014-06-04T09:51:42Z</time>
      </trkpt>
      <trkpt lat="42.39197" lon="0.04336">
        <ele>817.74</ele>
        <time>2014-06-04T09:51:47Z</time>
      </trkpt>
      <trkpt lat="42.39191" lon="0.04336">
        <ele>815.82</ele>
        <time>2014-06-04T09:51:49Z</time>
      </trkpt>
      <trkpt lat="42.39178" lon="0.0434">
        <ele>810.53</ele>
        <time>2014-06-04T09:51:55Z</time>
      </trkpt>
      <trkpt lat="42.39176" lon="0.04341">
        <ele>809.57</ele>
        <time>2014-06-04T09:51:56Z</time>
      </trkpt>
      <trkpt lat="42.39171" lon="0.04345">
        <ele>809.09</ele>
        <time>2014-06-04T09:51:57Z</time>
      </trkpt>
      <trkpt lat="42.39153" lon="0.04366">
        <ele>804.76</ele>
        <time>2014-06-04T09:52:00Z</time>
      </trkpt>
      <trkpt lat="42.3915" lon="0.0437">
        <ele>804.28</ele>
        <time>2014-06-04T09:52:01Z</time>
      </trkpt>
      <trkpt lat="42.39139" lon="0.04385">
        <ele>802.36</ele>
        <time>2014-06-04T09:52:03Z</time>
      </trkpt>
      <trkpt lat="42.39133" lon="0.04395">
        <ele>801.88</ele>
        <time>2014-06-04T09:52:04Z</time>
      </trkpt>
      <trkpt lat="42.39135" lon="0.04417">
        <ele>799.47</ele>
        <time>2014-06-04T09:52:09Z</time>
      </trkpt>
      <trkpt lat="42.39135" lon="0.04416">
        <ele>796.11</ele>
        <time>2014-06-04T09:52:13Z</time>
      </trkpt>
      <trkpt lat="42.39135" lon="0.04417">
        <ele>795.15</ele>
        <time>2014-06-04T09:52:14Z</time>
      </trkpt>
      <trkpt lat="42.39126" lon="0.04434">
        <ele>791.78</ele>
        <time>2014-06-04T09:52:20Z</time>
      </trkpt>
      <trkpt lat="42.39114" lon="0.04442">
        <ele>788.42</ele>
        <time>2014-06-04T09:52:24Z</time>
      </trkpt>
      <trkpt lat="42.39107" lon="0.04435">
        <ele>787.46</ele>
        <time>2014-06-04T09:52:27Z</time>
      </trkpt>
      <trkpt lat="42.39103" lon="0.04433">
        <ele>786.5</ele>
        <time>2014-06-04T09:52:29Z</time>
      </trkpt>
      <trkpt lat="42.39098" lon="0.04431">
        <ele>786.02</ele>
        <time>2014-06-04T09:52:34Z</time>
      </trkpt>
      <trkpt lat="42.39089" lon="0.04436">
        <ele>782.65</ele>
        <time>2014-06-04T09:52:38Z</time>
      </trkpt>
      <trkpt lat="42.39088" lon="0.04443">
        <ele>781.69</ele>
        <time>2014-06-04T09:52:40Z</time>
      </trkpt>
      <trkpt lat="42.39089" lon="0.04457">
        <ele>777.84</ele>
        <time>2014-06-04T09:52:46Z</time>
      </trkpt>
      <trkpt lat="42.39097" lon="0.04472">
        <ele>774</ele>
        <time>2014-06-04T09:52:51Z</time>
      </trkpt>
      <trkpt lat="42.39114" lon="0.04482">
        <ele>771.6</ele>
        <time>2014-06-04T09:52:56Z</time>
      </trkpt>
      <trkpt lat="42.39116" lon="0.04486">
        <ele>771.11</ele>
        <time>2014-06-04T09:52:58Z</time>
      </trkpt>
      <trkpt lat="42.39116" lon="0.04492">
        <ele>770.15</ele>
        <time>2014-06-04T09:53:00Z</time>
      </trkpt>
      <trkpt lat="42.39109" lon="0.04498">
        <ele>768.23</ele>
        <time>2014-06-04T09:53:04Z</time>
      </trkpt>
      <trkpt lat="42.39103" lon="0.04501">
        <ele>767.27</ele>
        <time>2014-06-04T09:53:06Z</time>
      </trkpt>
      <trkpt lat="42.39092" lon="0.04505">
        <ele>764.87</ele>
        <time>2014-06-04T09:53:09Z</time>
      </trkpt>
      <trkpt lat="42.39071" lon="0.04506">
        <ele>760.54</ele>
        <time>2014-06-04T09:53:14Z</time>
      </trkpt>
      <trkpt lat="42.39068" lon="0.04506">
        <ele>760.06</ele>
        <time>2014-06-04T09:53:15Z</time>
      </trkpt>
      <trkpt lat="42.39055" lon="0.04489">
        <ele>757.66</ele>
        <time>2014-06-04T09:53:21Z</time>
      </trkpt>
      <trkpt lat="42.39048" lon="0.04483">
        <ele>756.21</ele>
        <time>2014-06-04T09:53:24Z</time>
      </trkpt>
      <trkpt lat="42.39042" lon="0.04485">
        <ele>755.25</ele>
        <time>2014-06-04T09:53:26Z</time>
      </trkpt>
      <trkpt lat="42.39037" lon="0.04499">
        <ele>751.41</ele>
        <time>2014-06-04T09:53:29Z</time>
      </trkpt>
      <trkpt lat="42.39032" lon="0.04522">
        <ele>748.52</ele>
        <time>2014-06-04T09:53:33Z</time>
      </trkpt>
      <trkpt lat="42.39033" lon="0.04541">
        <ele>746.6</ele>
        <time>2014-06-04T09:53:36Z</time>
      </trkpt>
      <trkpt lat="42.39032" lon="0.04555">
        <ele>745.16</ele>
        <time>2014-06-04T09:53:39Z</time>
      </trkpt>
      <trkpt lat="42.39033" lon="0.04575">
        <ele>741.31</ele>
        <time>2014-06-04T09:53:43Z</time>
      </trkpt>
      <trkpt lat="42.39037" lon="0.04584">
        <ele>739.87</ele>
        <time>2014-06-04T09:53:45Z</time>
      </trkpt>
      <trkpt lat="42.39039" lon="0.04592">
        <ele>738.91</ele>
        <time>2014-06-04T09:53:47Z</time>
      </trkpt>
      <trkpt lat="42.39028" lon="0.04608">
        <ele>735.55</ele>
        <time>2014-06-04T09:53:52Z</time>
      </trkpt>
      <trkpt lat="42.39017" lon="0.04608">
        <ele>733.62</ele>
        <time>2014-06-04T09:53:55Z</time>
      </trkpt>
      <trkpt lat="42.39008" lon="0.04607">
        <ele>731.22</ele>
        <time>2014-06-04T09:53:57Z</time>
      </trkpt>
      <trkpt lat="42.38997" lon="0.04603">
        <ele>730.26</ele>
        <time>2014-06-04T09:53:59Z</time>
      </trkpt>
      <trkpt lat="42.38975" lon="0.04615">
        <ele>728.34</ele>
        <time>2014-06-04T09:54:05Z</time>
      </trkpt>
      <trkpt lat="42.38963" lon="0.04645">
        <ele>725.45</ele>
        <time>2014-06-04T09:54:10Z</time>
      </trkpt>
      <trkpt lat="42.38956" lon="0.04678">
        <ele>722.09</ele>
        <time>2014-06-04T09:54:16Z</time>
      </trkpt>
      <trkpt lat="42.38954" lon="0.04685">
        <ele>721.13</ele>
        <time>2014-06-04T09:54:17Z</time>
      </trkpt>
      <trkpt lat="42.38945" lon="0.04701">
        <ele>718.72</ele>
        <time>2014-06-04T09:54:20Z</time>
      </trkpt>
      <trkpt lat="42.38939" lon="0.04727">
        <ele>715.84</ele>
        <time>2014-06-04T09:54:24Z</time>
      </trkpt>
      <trkpt lat="42.38934" lon="0.04745">
        <ele>712.95</ele>
        <time>2014-06-04T09:54:27Z</time>
      </trkpt>
      <trkpt lat="42.38934" lon="0.04768">
        <ele>709.59</ele>
        <time>2014-06-04T09:54:31Z</time>
      </trkpt>
      <trkpt lat="42.38933" lon="0.04804">
        <ele>703.82</ele>
        <time>2014-06-04T09:54:37Z</time>
      </trkpt>
      <trkpt lat="42.38931" lon="0.04828">
        <ele>700.46</ele>
        <time>2014-06-04T09:54:41Z</time>
      </trkpt>
      <trkpt lat="42.38927" lon="0.04848">
        <ele>697.09</ele>
        <time>2014-06-04T09:54:45Z</time>
      </trkpt>
      <trkpt lat="42.38925" lon="0.04853">
        <ele>696.13</ele>
        <time>2014-06-04T09:54:46Z</time>
      </trkpt>
      <trkpt lat="42.38923" lon="0.04875">
        <ele>692.29</ele>
        <time>2014-06-04T09:54:51Z</time>
      </trkpt>
      <trkpt lat="42.38922" lon="0.04885">
        <ele>689.88</ele>
        <time>2014-06-04T09:54:54Z</time>
      </trkpt>
      <trkpt lat="42.38919" lon="0.04888">
        <ele>687</ele>
        <time>2014-06-04T09:54:58Z</time>
      </trkpt>
      <trkpt lat="42.38919" lon="0.04904">
        <ele>685.08</ele>
        <time>2014-06-04T09:55:01Z</time>
      </trkpt>
      <trkpt lat="42.38923" lon="0.04914">
        <ele>683.15</ele>
        <time>2014-06-04T09:55:04Z</time>
      </trkpt>
      <trkpt lat="42.38922" lon="0.04921">
        <ele>683.63</ele>
        <time>2014-06-04T09:55:06Z</time>
      </trkpt>
      <trkpt lat="42.38918" lon="0.04932">
        <ele>681.71</ele>
        <time>2014-06-04T09:55:09Z</time>
      </trkpt>
      <trkpt lat="42.38914" lon="0.04943">
        <ele>683.63</ele>
        <time>2014-06-04T09:55:12Z</time>
      </trkpt>
      <trkpt lat="42.38907" lon="0.04959">
        <ele>681.71</ele>
        <time>2014-06-04T09:55:16Z</time>
      </trkpt>
      <trkpt lat="42.38902" lon="0.04968">
        <ele>680.75</ele>
        <time>2014-06-04T09:55:18Z</time>
      </trkpt>
      <trkpt lat="42.38888" lon="0.04992">
        <ele>676.91</ele>
        <time>2014-06-04T09:55:24Z</time>
      </trkpt>
      <trkpt lat="42.38886" lon="0.05005">
        <ele>674.98</ele>
        <time>2014-06-04T09:55:27Z</time>
      </trkpt>
      <trkpt lat="42.38886" lon="0.05012">
        <ele>674.98</ele>
        <time>2014-06-04T09:55:29Z</time>
      </trkpt>
      <trkpt lat="42.38887" lon="0.05015">
        <ele>675.46</ele>
        <time>2014-06-04T09:55:39Z</time>
      </trkpt>
      <trkpt lat="42.38887" lon="0.05015">
        <ele>674.98</ele>
        <time>2014-06-04T09:56:16Z</time>
      </trkpt>
      <trkpt lat="42.38888" lon="0.05016">
        <ele>674.5</ele>
        <time>2014-06-04T09:56:56Z</time>
      </trkpt>
      <trkpt lat="42.38888" lon="0.05016">
        <ele>674.5</ele>
        <time>2014-06-04T09:57:30Z</time>
      </trkpt>
      <trkpt lat="42.3889" lon="0.05018">
        <ele>674.02</ele>
        <time>2014-06-04T09:58:12Z</time>
      </trkpt>
      <trkpt lat="42.38891" lon="0.05019">
        <ele>673.54</ele>
        <time>2014-06-04T09:58:54Z</time>
      </trkpt>
      <trkpt lat="42.38892" lon="0.0502">
        <ele>673.54</ele>
        <time>2014-06-04T09:59:36Z</time>
      </trkpt>
      <trkpt lat="42.38892" lon="0.0502">
        <ele>673.06</ele>
        <time>2014-06-04T10:00:08Z</time>
      </trkpt>
      <trkpt lat="42.38894" lon="0.05042">
        <ele>672.58</ele>
        <time>2014-06-04T10:00:24Z</time>
      </trkpt>
      <trkpt lat="42.38894" lon="0.05047">
        <ele>672.58</ele>
        <time>2014-06-04T10:00:25Z</time>
      </trkpt>
      <trkpt lat="42.38901" lon="0.05067">
        <ele>671.14</ele>
        <time>2014-06-04T10:00:29Z</time>
      </trkpt>
      <trkpt lat="42.38909" lon="0.05088">
        <ele>670.18</ele>
        <time>2014-06-04T10:00:33Z</time>
      </trkpt>
      <trkpt lat="42.38915" lon="0.05103">
        <ele>670.18</ele>
        <time>2014-06-04T10:00:36Z</time>
      </trkpt>
      <trkpt lat="42.38926" lon="0.0513">
        <ele>668.73</ele>
        <time>2014-06-04T10:00:41Z</time>
      </trkpt>
      <trkpt lat="42.38931" lon="0.05143">
        <ele>668.25</ele>
        <time>2014-06-04T10:00:43Z</time>
      </trkpt>
      <trkpt lat="42.38937" lon="0.05155">
        <ele>667.29</ele>
        <time>2014-06-04T10:00:45Z</time>
      </trkpt>
      <trkpt lat="42.38946" lon="0.0518">
        <ele>666.33</ele>
        <time>2014-06-04T10:00:49Z</time>
      </trkpt>
      <trkpt lat="42.38953" lon="0.05198">
        <ele>663.93</ele>
        <time>2014-06-04T10:00:52Z</time>
      </trkpt>
      <trkpt lat="42.38955" lon="0.0523">
        <ele>662.01</ele>
        <time>2014-06-04T10:00:56Z</time>
      </trkpt>
      <trkpt lat="42.38954" lon="0.05283">
        <ele>659.12</ele>
        <time>2014-06-04T10:01:02Z</time>
      </trkpt>
      <trkpt lat="42.38963" lon="0.05308">
        <ele>658.64</ele>
        <time>2014-06-04T10:01:05Z</time>
      </trkpt>
      <trkpt lat="42.38972" lon="0.05332">
        <ele>658.16</ele>
        <time>2014-06-04T10:01:09Z</time>
      </trkpt>
      <trkpt lat="42.38984" lon="0.05356">
        <ele>655.76</ele>
        <time>2014-06-04T10:01:12Z</time>
      </trkpt>
      <trkpt lat="42.38999" lon="0.05376">
        <ele>655.28</ele>
        <time>2014-06-04T10:01:15Z</time>
      </trkpt>
      <trkpt lat="42.39017" lon="0.05394">
        <ele>653.83</ele>
        <time>2014-06-04T10:01:18Z</time>
      </trkpt>
      <trkpt lat="42.39036" lon="0.05409">
        <ele>653.35</ele>
        <time>2014-06-04T10:01:21Z</time>
      </trkpt>
      <trkpt lat="42.39052" lon="0.05434">
        <ele>651.43</ele>
        <time>2014-06-04T10:01:30Z</time>
      </trkpt>
      <trkpt lat="42.39054" lon="0.05438">
        <ele>650.95</ele>
        <time>2014-06-04T10:01:32Z</time>
      </trkpt>
      <trkpt lat="42.39056" lon="0.0545">
        <ele>652.39</ele>
        <time>2014-06-04T10:01:36Z</time>
      </trkpt>
      <trkpt lat="42.39057" lon="0.05451">
        <ele>652.87</ele>
        <time>2014-06-04T10:01:37Z</time>
      </trkpt>
      <trkpt lat="42.39047" lon="0.0549">
        <ele>652.87</ele>
        <time>2014-06-04T10:01:49Z</time>
      </trkpt>
      <trkpt lat="42.39044" lon="0.05501">
        <ele>652.39</ele>
        <time>2014-06-04T10:01:52Z</time>
      </trkpt>
      <trkpt lat="42.39038" lon="0.05522">
        <ele>650.95</ele>
        <time>2014-06-04T10:01:56Z</time>
      </trkpt>
      <trkpt lat="42.3903" lon="0.05542">
        <ele>649.99</ele>
        <time>2014-06-04T10:02:00Z</time>
      </trkpt>
      <trkpt lat="42.39034" lon="0.05577">
        <ele>649.51</ele>
        <time>2014-06-04T10:02:05Z</time>
      </trkpt>
      <trkpt lat="42.39027" lon="0.0561">
        <ele>647.59</ele>
        <time>2014-06-04T10:02:10Z</time>
      </trkpt>
      <trkpt lat="42.3902" lon="0.05622">
        <ele>647.1</ele>
        <time>2014-06-04T10:02:13Z</time>
      </trkpt>
      <trkpt lat="42.39011" lon="0.05632">
        <ele>647.1</ele>
        <time>2014-06-04T10:02:17Z</time>
      </trkpt>
      <trkpt lat="42.38995" lon="0.05654">
        <ele>646.62</ele>
        <time>2014-06-04T10:02:27Z</time>
      </trkpt>
      <trkpt lat="42.38989" lon="0.05674">
        <ele>646.62</ele>
        <time>2014-06-04T10:02:35Z</time>
      </trkpt>
      <trkpt lat="42.38983" lon="0.05678">
        <ele>646.14</ele>
        <time>2014-06-04T10:02:39Z</time>
      </trkpt>
      <trkpt lat="42.38976" lon="0.05686">
        <ele>646.14</ele>
        <time>2014-06-04T10:02:44Z</time>
      </trkpt>
      <trkpt lat="42.38973" lon="0.05689">
        <ele>646.62</ele>
        <time>2014-06-04T10:02:56Z</time>
      </trkpt>
      <trkpt lat="42.38974" lon="0.05692">
        <ele>647.1</ele>
        <time>2014-06-04T10:03:01Z</time>
      </trkpt>
      <trkpt lat="42.38974" lon="0.05695">
        <ele>647.59</ele>
        <time>2014-06-04T10:03:03Z</time>
      </trkpt>
      <trkpt lat="42.38974" lon="0.05698">
        <ele>648.07</ele>
        <time>2014-06-04T10:03:09Z</time>
      </trkpt>
      <trkpt lat="42.38975" lon="0.057">
        <ele>648.55</ele>
        <time>2014-06-04T10:03:11Z</time>
      </trkpt>
      <trkpt lat="42.38987" lon="0.0571">
        <ele>650.47</ele>
        <time>2014-06-04T10:03:26Z</time>
      </trkpt>
      <trkpt lat="42.38996" lon="0.05709">
        <ele>652.87</ele>
        <time>2014-06-04T10:03:39Z</time>
      </trkpt>
      <trkpt lat="42.38997" lon="0.05704">
        <ele>654.31</ele>
        <time>2014-06-04T10:03:46Z</time>
      </trkpt>
      <trkpt lat="42.38998" lon="0.05698">
        <ele>655.28</ele>
        <time>2014-06-04T10:03:51Z</time>
      </trkpt>
      <trkpt lat="42.39004" lon="0.05692">
        <ele>658.16</ele>
        <time>2014-06-04T10:04:05Z</time>
      </trkpt>
      <trkpt lat="42.39004" lon="0.05692">
        <ele>657.68</ele>
        <time>2014-06-04T10:04:10Z</time>
      </trkpt>
      <trkpt lat="42.39011" lon="0.05699">
        <ele>661.04</ele>
        <time>2014-06-04T10:04:24Z</time>
      </trkpt>
      <trkpt lat="42.39012" lon="0.05697">
        <ele>661.52</ele>
        <time>2014-06-04T10:04:30Z</time>
      </trkpt>
      <trkpt lat="42.39018" lon="0.0569">
        <ele>662.49</ele>
        <time>2014-06-04T10:04:42Z</time>
      </trkpt>
      <trkpt lat="42.39023" lon="0.05702">
        <ele>664.89</ele>
        <time>2014-06-04T10:04:56Z</time>
      </trkpt>
      <trkpt lat="42.39028" lon="0.05711">
        <ele>666.81</ele>
        <time>2014-06-04T10:05:10Z</time>
      </trkpt>
      <trkpt lat="42.39032" lon="0.05706">
        <ele>669.7</ele>
        <time>2014-06-04T10:05:25Z</time>
      </trkpt>
      <trkpt lat="42.39037" lon="0.05702">
        <ele>672.1</ele>
        <time>2014-06-04T10:05:38Z</time>
      </trkpt>
      <trkpt lat="42.39043" lon="0.05696">
        <ele>673.54</ele>
        <time>2014-06-04T10:05:52Z</time>
      </trkpt>
      <trkpt lat="42.3905" lon="0.05691">
        <ele>674.5</ele>
        <time>2014-06-04T10:06:04Z</time>
      </trkpt>
      <trkpt lat="42.39055" lon="0.05695">
        <ele>676.91</ele>
        <time>2014-06-04T10:06:17Z</time>
      </trkpt>
      <trkpt lat="42.39057" lon="0.05701">
        <ele>677.87</ele>
        <time>2014-06-04T10:06:30Z</time>
      </trkpt>
      <trkpt lat="42.39063" lon="0.05693">
        <ele>679.79</ele>
        <time>2014-06-04T10:06:43Z</time>
      </trkpt>
      <trkpt lat="42.39067" lon="0.05683">
        <ele>681.23</ele>
        <time>2014-06-04T10:06:58Z</time>
      </trkpt>
      <trkpt lat="42.39073" lon="0.05677">
        <ele>684.12</ele>
        <time>2014-06-04T10:07:12Z</time>
      </trkpt>
      <trkpt lat="42.39077" lon="0.05676">
        <ele>685.56</ele>
        <time>2014-06-04T10:07:24Z</time>
      </trkpt>
      <trkpt lat="42.39082" lon="0.05674">
        <ele>688.44</ele>
        <time>2014-06-04T10:07:38Z</time>
      </trkpt>
      <trkpt lat="42.39089" lon="0.05668">
        <ele>689.88</ele>
        <time>2014-06-04T10:07:52Z</time>
      </trkpt>
      <trkpt lat="42.39098" lon="0.05659">
        <ele>692.29</ele>
        <time>2014-06-04T10:08:08Z</time>
      </trkpt>
      <trkpt lat="42.39099" lon="0.05657">
        <ele>692.77</ele>
        <time>2014-06-04T10:08:11Z</time>
      </trkpt>
      <trkpt lat="42.39107" lon="0.0565">
        <ele>694.69</ele>
        <time>2014-06-04T10:08:25Z</time>
      </trkpt>
      <trkpt lat="42.39114" lon="0.05648">
        <ele>696.13</ele>
        <time>2014-06-04T10:08:39Z</time>
      </trkpt>
      <trkpt lat="42.39115" lon="0.05651">
        <ele>696.61</ele>
        <time>2014-06-04T10:08:49Z</time>
      </trkpt>
      <trkpt lat="42.39115" lon="0.05652">
        <ele>696.61</ele>
        <time>2014-06-04T10:09:03Z</time>
      </trkpt>
      <trkpt lat="42.39119" lon="0.05653">
        <ele>697.09</ele>
        <time>2014-06-04T10:09:14Z</time>
      </trkpt>
      <trkpt lat="42.39129" lon="0.05655">
        <ele>697.57</ele>
        <time>2014-06-04T10:09:22Z</time>
      </trkpt>
      <trkpt lat="42.39136" lon="0.05656">
        <ele>699.02</ele>
        <time>2014-06-04T10:09:27Z</time>
      </trkpt>
      <trkpt lat="42.39156" lon="0.05654">
        <ele>700.94</ele>
        <time>2014-06-04T10:09:41Z</time>
      </trkpt>
      <trkpt lat="42.39163" lon="0.05654">
        <ele>701.9</ele>
        <time>2014-06-04T10:09:46Z</time>
      </trkpt>
      <trkpt lat="42.39168" lon="0.05654">
        <ele>702.38</ele>
        <time>2014-06-04T10:09:50Z</time>
      </trkpt>
      <trkpt lat="42.39184" lon="0.05658">
        <ele>705.26</ele>
        <time>2014-06-04T10:10:02Z</time>
      </trkpt>
      <trkpt lat="42.39198" lon="0.05656">
        <ele>708.15</ele>
        <time>2014-06-04T10:10:15Z</time>
      </trkpt>
      <trkpt lat="42.39213" lon="0.0565">
        <ele>710.55</ele>
        <time>2014-06-04T10:10:28Z</time>
      </trkpt>
      <trkpt lat="42.39214" lon="0.05648">
        <ele>711.51</ele>
        <time>2014-06-04T10:10:30Z</time>
      </trkpt>
      <trkpt lat="42.39235" lon="0.05639">
        <ele>715.36</ele>
        <time>2014-06-04T10:10:47Z</time>
      </trkpt>
      <trkpt lat="42.39239" lon="0.05635">
        <ele>715.36</ele>
        <time>2014-06-04T10:10:55Z</time>
      </trkpt>
      <trkpt lat="42.39241" lon="0.05632">
        <ele>716.32</ele>
        <time>2014-06-04T10:10:57Z</time>
      </trkpt>
      <trkpt lat="42.39248" lon="0.05626">
        <ele>716.8</ele>
        <time>2014-06-04T10:11:02Z</time>
      </trkpt>
      <trkpt lat="42.39255" lon="0.05622">
        <ele>719.2</ele>
        <time>2014-06-04T10:11:08Z</time>
      </trkpt>
      <trkpt lat="42.39264" lon="0.05616">
        <ele>721.13</ele>
        <time>2014-06-04T10:11:16Z</time>
      </trkpt>
      <trkpt lat="42.39267" lon="0.05615">
        <ele>721.61</ele>
        <time>2014-06-04T10:11:19Z</time>
      </trkpt>
      <trkpt lat="42.39282" lon="0.05601">
        <ele>724.97</ele>
        <time>2014-06-04T10:11:34Z</time>
      </trkpt>
      <trkpt lat="42.39283" lon="0.056">
        <ele>724.97</ele>
        <time>2014-06-04T10:11:35Z</time>
      </trkpt>
      <trkpt lat="42.3929" lon="0.05596">
        <ele>725.93</ele>
        <time>2014-06-04T10:11:41Z</time>
      </trkpt>
      <trkpt lat="42.39304" lon="0.05589">
        <ele>728.34</ele>
        <time>2014-06-04T10:11:52Z</time>
      </trkpt>
      <trkpt lat="42.39312" lon="0.05585">
        <ele>729.78</ele>
        <time>2014-06-04T10:11:58Z</time>
      </trkpt>
      <trkpt lat="42.3932" lon="0.05583">
        <ele>730.74</ele>
        <time>2014-06-04T10:12:04Z</time>
      </trkpt>
      <trkpt lat="42.39337" lon="0.05581">
        <ele>732.66</ele>
        <time>2014-06-04T10:12:17Z</time>
      </trkpt>
      <trkpt lat="42.39356" lon="0.05577">
        <ele>735.55</ele>
        <time>2014-06-04T10:12:31Z</time>
      </trkpt>
      <trkpt lat="42.39361" lon="0.05577">
        <ele>736.51</ele>
        <time>2014-06-04T10:12:35Z</time>
      </trkpt>
      <trkpt lat="42.39369" lon="0.05577">
        <ele>737.47</ele>
        <time>2014-06-04T10:12:40Z</time>
      </trkpt>
      <trkpt lat="42.39377" lon="0.05572">
        <ele>738.43</ele>
        <time>2014-06-04T10:12:45Z</time>
      </trkpt>
      <trkpt lat="42.39396" lon="0.05573">
        <ele>740.35</ele>
        <time>2014-06-04T10:12:57Z</time>
      </trkpt>
      <trkpt lat="42.39418" lon="0.05574">
        <ele>741.79</ele>
        <time>2014-06-04T10:13:10Z</time>
      </trkpt>
      <trkpt lat="42.39441" lon="0.05572">
        <ele>743.24</ele>
        <time>2014-06-04T10:13:23Z</time>
      </trkpt>
      <trkpt lat="42.39456" lon="0.0557">
        <ele>745.16</ele>
        <time>2014-06-04T10:13:31Z</time>
      </trkpt>
      <trkpt lat="42.39479" lon="0.0557">
        <ele>746.6</ele>
        <time>2014-06-04T10:13:45Z</time>
      </trkpt>
      <trkpt lat="42.39502" lon="0.05569">
        <ele>749</ele>
        <time>2014-06-04T10:13:59Z</time>
      </trkpt>
      <trkpt lat="42.39515" lon="0.05568">
        <ele>749.97</ele>
        <time>2014-06-04T10:14:07Z</time>
      </trkpt>
      <trkpt lat="42.39535" lon="0.05567">
        <ele>751.41</ele>
        <time>2014-06-04T10:14:21Z</time>
      </trkpt>
      <trkpt lat="42.39561" lon="0.05566">
        <ele>753.33</ele>
        <time>2014-06-04T10:14:36Z</time>
      </trkpt>
      <trkpt lat="42.39567" lon="0.05565">
        <ele>754.29</ele>
        <time>2014-06-04T10:14:40Z</time>
      </trkpt>
      <trkpt lat="42.39589" lon="0.05562">
        <ele>756.21</ele>
        <time>2014-06-04T10:14:53Z</time>
      </trkpt>
      <trkpt lat="42.39613" lon="0.05562">
        <ele>757.18</ele>
        <time>2014-06-04T10:15:06Z</time>
      </trkpt>
      <trkpt lat="42.39636" lon="0.05558">
        <ele>759.1</ele>
        <time>2014-06-04T10:15:19Z</time>
      </trkpt>
      <trkpt lat="42.39654" lon="0.05548">
        <ele>761.5</ele>
        <time>2014-06-04T10:15:31Z</time>
      </trkpt>
      <trkpt lat="42.39676" lon="0.05542">
        <ele>763.9</ele>
        <time>2014-06-04T10:15:45Z</time>
      </trkpt>
      <trkpt lat="42.39687" lon="0.05541">
        <ele>764.39</ele>
        <time>2014-06-04T10:15:51Z</time>
      </trkpt>
      <trkpt lat="42.39714" lon="0.05538">
        <ele>765.83</ele>
        <time>2014-06-04T10:16:06Z</time>
      </trkpt>
      <trkpt lat="42.39743" lon="0.05541">
        <ele>765.35</ele>
        <time>2014-06-04T10:16:18Z</time>
      </trkpt>
      <trkpt lat="42.39777" lon="0.05541">
        <ele>764.87</ele>
        <time>2014-06-04T10:16:29Z</time>
      </trkpt>
      <trkpt lat="42.39811" lon="0.05541">
        <ele>765.83</ele>
        <time>2014-06-04T10:16:42Z</time>
      </trkpt>
      <trkpt lat="42.39837" lon="0.05541">
        <ele>768.71</ele>
        <time>2014-06-04T10:16:54Z</time>
      </trkpt>
      <trkpt lat="42.3986" lon="0.05539">
        <ele>771.6</ele>
        <time>2014-06-04T10:17:07Z</time>
      </trkpt>
      <trkpt lat="42.39868" lon="0.0554">
        <ele>772.56</ele>
        <time>2014-06-04T10:17:12Z</time>
      </trkpt>
      <trkpt lat="42.39893" lon="0.05538">
        <ele>774</ele>
        <time>2014-06-04T10:17:26Z</time>
      </trkpt>
      <trkpt lat="42.39916" lon="0.05525">
        <ele>775.44</ele>
        <time>2014-06-04T10:17:36Z</time>
      </trkpt>
      <trkpt lat="42.39925" lon="0.05524">
        <ele>776.88</ele>
        <time>2014-06-04T10:17:42Z</time>
      </trkpt>
      <trkpt lat="42.39933" lon="0.05526">
        <ele>777.84</ele>
        <time>2014-06-04T10:17:49Z</time>
      </trkpt>
      <trkpt lat="42.39939" lon="0.05527">
        <ele>779.29</ele>
        <time>2014-06-04T10:17:55Z</time>
      </trkpt>
      <trkpt lat="42.39952" lon="0.05531">
        <ele>780.73</ele>
        <time>2014-06-04T10:18:04Z</time>
      </trkpt>
      <trkpt lat="42.39981" lon="0.05528">
        <ele>781.69</ele>
        <time>2014-06-04T10:18:18Z</time>
      </trkpt>
      <trkpt lat="42.40005" lon="0.05529">
        <ele>784.09</ele>
        <time>2014-06-04T10:18:31Z</time>
      </trkpt>
      <trkpt lat="42.40036" lon="0.05528">
        <ele>785.53</ele>
        <time>2014-06-04T10:18:45Z</time>
      </trkpt>
      <trkpt lat="42.40063" lon="0.05521">
        <ele>785.05</ele>
        <time>2014-06-04T10:18:58Z</time>
      </trkpt>
      <trkpt lat="42.40086" lon="0.0551">
        <ele>785.53</ele>
        <time>2014-06-04T10:19:11Z</time>
      </trkpt>
      <trkpt lat="42.4009" lon="0.05509">
        <ele>786.02</ele>
        <time>2014-06-04T10:19:23Z</time>
      </trkpt>
      <trkpt lat="42.4009" lon="0.05509">
        <ele>786.02</ele>
        <time>2014-06-04T10:19:48Z</time>
      </trkpt>
      <trkpt lat="42.4009" lon="0.0551">
        <ele>786.02</ele>
        <time>2014-06-04T10:20:11Z</time>
      </trkpt>
      <trkpt lat="42.4009" lon="0.0551">
        <ele>785.53</ele>
        <time>2014-06-04T10:20:32Z</time>
      </trkpt>
      <trkpt lat="42.4009" lon="0.05509">
        <ele>786.02</ele>
        <time>2014-06-04T10:20:56Z</time>
      </trkpt>
      <trkpt lat="42.40089" lon="0.05509">
        <ele>786.02</ele>
        <time>2014-06-04T10:21:26Z</time>
      </trkpt>
      <trkpt lat="42.40089" lon="0.05509">
        <ele>786.02</ele>
        <time>2014-06-04T10:21:52Z</time>
      </trkpt>
      <trkpt lat="42.4009" lon="0.05509">
        <ele>786.02</ele>
        <time>2014-06-04T10:22:22Z</time>
      </trkpt>
      <trkpt lat="42.4009" lon="0.05509">
        <ele>786.02</ele>
        <time>2014-06-04T10:22:24Z</time>
      </trkpt>
      <trkpt lat="42.4012" lon="0.05495">
        <ele>785.53</ele>
        <time>2014-06-04T10:22:36Z</time>
      </trkpt>
      <trkpt lat="42.40146" lon="0.05487">
        <ele>787.94</ele>
        <time>2014-06-04T10:22:46Z</time>
      </trkpt>
      <trkpt lat="42.40178" lon="0.05474">
        <ele>788.9</ele>
        <time>2014-06-04T10:22:57Z</time>
      </trkpt>
      <trkpt lat="42.40213" lon="0.05468">
        <ele>790.34</ele>
        <time>2014-06-04T10:23:08Z</time>
      </trkpt>
      <trkpt lat="42.40218" lon="0.05468">
        <ele>790.82</ele>
        <time>2014-06-04T10:23:10Z</time>
      </trkpt>
      <trkpt lat="42.40229" lon="0.05468">
        <ele>790.82</ele>
        <time>2014-06-04T10:23:14Z</time>
      </trkpt>
      <trkpt lat="42.40236" lon="0.05466">
        <ele>789.86</ele>
        <time>2014-06-04T10:23:16Z</time>
      </trkpt>
      <trkpt lat="42.4025" lon="0.0546">
        <ele>789.86</ele>
        <time>2014-06-04T10:23:19Z</time>
      </trkpt>
      <trkpt lat="42.40265" lon="0.05455">
        <ele>790.34</ele>
        <time>2014-06-04T10:23:22Z</time>
      </trkpt>
      <trkpt lat="42.40296" lon="0.05462">
        <ele>790.82</ele>
        <time>2014-06-04T10:23:30Z</time>
      </trkpt>
      <trkpt lat="42.40321" lon="0.05469">
        <ele>790.82</ele>
        <time>2014-06-04T10:23:38Z</time>
      </trkpt>
      <trkpt lat="42.40358" lon="0.05474">
        <ele>787.94</ele>
        <time>2014-06-04T10:23:47Z</time>
      </trkpt>
      <trkpt lat="42.40361" lon="0.0547">
        <ele>787.94</ele>
        <time>2014-06-04T10:23:48Z</time>
      </trkpt>
      <trkpt lat="42.40371" lon="0.05458">
        <ele>786.5</ele>
        <time>2014-06-04T10:23:51Z</time>
      </trkpt>
      <trkpt lat="42.40397" lon="0.05456">
        <ele>782.65</ele>
        <time>2014-06-04T10:23:56Z</time>
      </trkpt>
      <trkpt lat="42.40412" lon="0.05464">
        <ele>780.25</ele>
        <time>2014-06-04T10:23:59Z</time>
      </trkpt>
      <trkpt lat="42.40422" lon="0.0547">
        <ele>778.32</ele>
        <time>2014-06-04T10:24:01Z</time>
      </trkpt>
      <trkpt lat="42.40432" lon="0.05463">
        <ele>774.96</ele>
        <time>2014-06-04T10:24:05Z</time>
      </trkpt>
      <trkpt lat="42.40433" lon="0.05454">
        <ele>773.52</ele>
        <time>2014-06-04T10:24:07Z</time>
      </trkpt>
      <trkpt lat="42.40431" lon="0.05429">
        <ele>770.63</ele>
        <time>2014-06-04T10:24:12Z</time>
      </trkpt>
      <trkpt lat="42.4043" lon="0.05426">
        <ele>769.67</ele>
        <time>2014-06-04T10:24:13Z</time>
      </trkpt>
      <trkpt lat="42.40432" lon="0.05422">
        <ele>768.23</ele>
        <time>2014-06-04T10:24:16Z</time>
      </trkpt>
      <trkpt lat="42.4044" lon="0.05431">
        <ele>768.71</ele>
        <time>2014-06-04T10:24:22Z</time>
      </trkpt>
      <trkpt lat="42.40449" lon="0.05457">
        <ele>768.71</ele>
        <time>2014-06-04T10:24:31Z</time>
      </trkpt>
      <trkpt lat="42.4045" lon="0.05479">
        <ele>768.71</ele>
        <time>2014-06-04T10:24:38Z</time>
      </trkpt>
      <trkpt lat="42.40458" lon="0.05516">
        <ele>770.15</ele>
        <time>2014-06-04T10:24:49Z</time>
      </trkpt>
      <trkpt lat="42.40461" lon="0.05535">
        <ele>772.08</ele>
        <time>2014-06-04T10:24:57Z</time>
      </trkpt>
      <trkpt lat="42.40462" lon="0.05542">
        <ele>773.52</ele>
        <time>2014-06-04T10:25:01Z</time>
      </trkpt>
      <trkpt lat="42.40462" lon="0.0555">
        <ele>774.48</ele>
        <time>2014-06-04T10:25:05Z</time>
      </trkpt>
      <trkpt lat="42.40461" lon="0.05561">
        <ele>775.44</ele>
        <time>2014-06-04T10:25:11Z</time>
      </trkpt>
      <trkpt lat="42.40455" lon="0.05574">
        <ele>777.36</ele>
        <time>2014-06-04T10:25:18Z</time>
      </trkpt>
      <trkpt lat="42.40448" lon="0.0558">
        <ele>779.29</ele>
        <time>2014-06-04T10:25:32Z</time>
      </trkpt>
      <trkpt lat="42.40439" lon="0.05586">
        <ele>780.25</ele>
        <time>2014-06-04T10:25:42Z</time>
      </trkpt>
      <trkpt lat="42.40429" lon="0.05602">
        <ele>783.13</ele>
        <time>2014-06-04T10:25:56Z</time>
      </trkpt>
      <trkpt lat="42.4043" lon="0.05607">
        <ele>782.65</ele>
        <time>2014-06-04T10:25:59Z</time>
      </trkpt>
      <trkpt lat="42.40429" lon="0.05615">
        <ele>783.61</ele>
        <time>2014-06-04T10:26:05Z</time>
      </trkpt>
      <trkpt lat="42.40433" lon="0.05627">
        <ele>785.53</ele>
        <time>2014-06-04T10:26:17Z</time>
      </trkpt>
      <trkpt lat="42.40442" lon="0.05635">
        <ele>788.42</ele>
        <time>2014-06-04T10:26:33Z</time>
      </trkpt>
      <trkpt lat="42.40455" lon="0.05639">
        <ele>791.78</ele>
        <time>2014-06-04T10:26:49Z</time>
      </trkpt>
      <trkpt lat="42.40465" lon="0.05641">
        <ele>794.19</ele>
        <time>2014-06-04T10:27:04Z</time>
      </trkpt>
      <trkpt lat="42.40476" lon="0.05648">
        <ele>796.59</ele>
        <time>2014-06-04T10:27:19Z</time>
      </trkpt>
      <trkpt lat="42.40487" lon="0.05665">
        <ele>798.03</ele>
        <time>2014-06-04T10:27:31Z</time>
      </trkpt>
      <trkpt lat="42.40501" lon="0.05693">
        <ele>796.59</ele>
        <time>2014-06-04T10:27:43Z</time>
      </trkpt>
      <trkpt lat="42.40513" lon="0.05718">
        <ele>793.22</ele>
        <time>2014-06-04T10:27:50Z</time>
      </trkpt>
      <trkpt lat="42.40515" lon="0.05722">
        <ele>794.67</ele>
        <time>2014-06-04T10:27:54Z</time>
      </trkpt>
      <trkpt lat="42.40515" lon="0.05726">
        <ele>795.63</ele>
        <time>2014-06-04T10:28:06Z</time>
      </trkpt>
      <trkpt lat="42.40523" lon="0.05731">
        <ele>798.03</ele>
        <time>2014-06-04T10:28:18Z</time>
      </trkpt>
      <trkpt lat="42.40529" lon="0.05737">
        <ele>799.95</ele>
        <time>2014-06-04T10:28:27Z</time>
      </trkpt>
      <trkpt lat="42.4054" lon="0.05746">
        <ele>801.4</ele>
        <time>2014-06-04T10:28:43Z</time>
      </trkpt>
      <trkpt lat="42.40557" lon="0.05756">
        <ele>802.84</ele>
        <time>2014-06-04T10:28:55Z</time>
      </trkpt>
      <trkpt lat="42.4058" lon="0.05779">
        <ele>803.32</ele>
        <time>2014-06-04T10:29:08Z</time>
      </trkpt>
      <trkpt lat="42.40593" lon="0.05808">
        <ele>803.8</ele>
        <time>2014-06-04T10:29:17Z</time>
      </trkpt>
      <trkpt lat="42.40607" lon="0.05836">
        <ele>801.4</ele>
        <time>2014-06-04T10:29:23Z</time>
      </trkpt>
      <trkpt lat="42.40619" lon="0.05855">
        <ele>799.47</ele>
        <time>2014-06-04T10:29:28Z</time>
      </trkpt>
      <trkpt lat="42.40639" lon="0.05883">
        <ele>798.51</ele>
        <time>2014-06-04T10:29:37Z</time>
      </trkpt>
      <trkpt lat="42.40645" lon="0.05887">
        <ele>799.95</ele>
        <time>2014-06-04T10:29:46Z</time>
      </trkpt>
      <trkpt lat="42.40648" lon="0.05895">
        <ele>801.4</ele>
        <time>2014-06-04T10:29:58Z</time>
      </trkpt>
      <trkpt lat="42.40651" lon="0.05902">
        <ele>802.36</ele>
        <time>2014-06-04T10:30:11Z</time>
      </trkpt>
      <trkpt lat="42.40651" lon="0.05902">
        <ele>802.84</ele>
        <time>2014-06-04T10:30:36Z</time>
      </trkpt>
      <trkpt lat="42.40651" lon="0.05901">
        <ele>802.84</ele>
        <time>2014-06-04T10:30:56Z</time>
      </trkpt>
      <trkpt lat="42.40651" lon="0.05901">
        <ele>802.84</ele>
        <time>2014-06-04T10:31:17Z</time>
      </trkpt>
      <trkpt lat="42.40651" lon="0.05902">
        <ele>802.84</ele>
        <time>2014-06-04T10:31:40Z</time>
      </trkpt>
      <trkpt lat="42.40651" lon="0.05902">
        <ele>803.32</ele>
        <time>2014-06-04T10:32:00Z</time>
      </trkpt>
      <trkpt lat="42.4066" lon="0.05924">
        <ele>805.24</ele>
        <time>2014-06-04T10:32:11Z</time>
      </trkpt>
      <trkpt lat="42.40666" lon="0.05926">
        <ele>805.24</ele>
        <time>2014-06-04T10:32:15Z</time>
      </trkpt>
      <trkpt lat="42.40678" lon="0.05944">
        <ele>807.64</ele>
        <time>2014-06-04T10:32:26Z</time>
      </trkpt>
      <trkpt lat="42.40685" lon="0.0595">
        <ele>809.57</ele>
        <time>2014-06-04T10:32:31Z</time>
      </trkpt>
      <trkpt lat="42.40699" lon="0.05974">
        <ele>810.05</ele>
        <time>2014-06-04T10:32:43Z</time>
      </trkpt>
      <trkpt lat="42.40701" lon="0.05975">
        <ele>810.53</ele>
        <time>2014-06-04T10:32:45Z</time>
      </trkpt>
      <trkpt lat="42.40705" lon="0.05982">
        <ele>810.53</ele>
        <time>2014-06-04T10:32:49Z</time>
      </trkpt>
      <trkpt lat="42.40712" lon="0.06006">
        <ele>812.45</ele>
        <time>2014-06-04T10:33:01Z</time>
      </trkpt>
      <trkpt lat="42.40713" lon="0.06018">
        <ele>812.93</ele>
        <time>2014-06-04T10:33:07Z</time>
      </trkpt>
      <trkpt lat="42.40718" lon="0.06047">
        <ele>815.34</ele>
        <time>2014-06-04T10:33:21Z</time>
      </trkpt>
      <trkpt lat="42.40718" lon="0.0605">
        <ele>815.34</ele>
        <time>2014-06-04T10:33:22Z</time>
      </trkpt>
      <trkpt lat="42.40714" lon="0.06066">
        <ele>816.78</ele>
        <time>2014-06-04T10:33:31Z</time>
      </trkpt>
      <trkpt lat="42.4071" lon="0.06069">
        <ele>817.26</ele>
        <time>2014-06-04T10:33:35Z</time>
      </trkpt>
      <trkpt lat="42.40709" lon="0.06071">
        <ele>817.74</ele>
        <time>2014-06-04T10:33:37Z</time>
      </trkpt>
      <trkpt lat="42.40704" lon="0.06077">
        <ele>818.22</ele>
        <time>2014-06-04T10:33:42Z</time>
      </trkpt>
      <trkpt lat="42.40695" lon="0.06094">
        <ele>820.62</ele>
        <time>2014-06-04T10:33:55Z</time>
      </trkpt>
      <trkpt lat="42.40694" lon="0.06095">
        <ele>820.62</ele>
        <time>2014-06-04T10:33:56Z</time>
      </trkpt>
      <trkpt lat="42.40693" lon="0.06098">
        <ele>821.58</ele>
        <time>2014-06-04T10:33:58Z</time>
      </trkpt>
      <trkpt lat="42.40681" lon="0.06113">
        <ele>821.1</ele>
        <time>2014-06-04T10:34:09Z</time>
      </trkpt>
      <trkpt lat="42.40678" lon="0.06114">
        <ele>820.14</ele>
        <time>2014-06-04T10:34:16Z</time>
      </trkpt>
      <trkpt lat="42.40679" lon="0.06121">
        <ele>820.14</ele>
        <time>2014-06-04T10:34:20Z</time>
      </trkpt>
      <trkpt lat="42.40683" lon="0.0615">
        <ele>821.58</ele>
        <time>2014-06-04T10:34:31Z</time>
      </trkpt>
      <trkpt lat="42.40685" lon="0.0617">
        <ele>825.43</ele>
        <time>2014-06-04T10:34:41Z</time>
      </trkpt>
      <trkpt lat="42.40686" lon="0.06179">
        <ele>826.39</ele>
        <time>2014-06-04T10:34:46Z</time>
      </trkpt>
      <trkpt lat="42.40699" lon="0.06192">
        <ele>828.31</ele>
        <time>2014-06-04T10:34:55Z</time>
      </trkpt>
      <trkpt lat="42.4072" lon="0.06196">
        <ele>830.72</ele>
        <time>2014-06-04T10:35:06Z</time>
      </trkpt>
      <trkpt lat="42.40726" lon="0.06203">
        <ele>832.64</ele>
        <time>2014-06-04T10:35:13Z</time>
      </trkpt>
      <trkpt lat="42.40732" lon="0.06212">
        <ele>834.56</ele>
        <time>2014-06-04T10:35:20Z</time>
      </trkpt>
      <trkpt lat="42.40738" lon="0.06232">
        <ele>836.96</ele>
        <time>2014-06-04T10:35:31Z</time>
      </trkpt>
      <trkpt lat="42.40747" lon="0.0625">
        <ele>839.37</ele>
        <time>2014-06-04T10:35:43Z</time>
      </trkpt>
      <trkpt lat="42.40748" lon="0.06253">
        <ele>839.85</ele>
        <time>2014-06-04T10:35:45Z</time>
      </trkpt>
      <trkpt lat="42.40752" lon="0.06266">
        <ele>840.81</ele>
        <time>2014-06-04T10:35:51Z</time>
      </trkpt>
      <trkpt lat="42.40763" lon="0.06286">
        <ele>841.77</ele>
        <time>2014-06-04T10:36:01Z</time>
      </trkpt>
      <trkpt lat="42.40767" lon="0.06295">
        <ele>842.25</ele>
        <time>2014-06-04T10:36:05Z</time>
      </trkpt>
      <trkpt lat="42.40772" lon="0.06299">
        <ele>842.73</ele>
        <time>2014-06-04T10:36:20Z</time>
      </trkpt>
      <trkpt lat="42.40772" lon="0.06299">
        <ele>843.21</ele>
        <time>2014-06-04T10:36:42Z</time>
      </trkpt>
      <trkpt lat="42.40772" lon="0.06299">
        <ele>843.21</ele>
        <time>2014-06-04T10:37:02Z</time>
      </trkpt>
      <trkpt lat="42.40771" lon="0.06299">
        <ele>843.21</ele>
        <time>2014-06-04T10:37:33Z</time>
      </trkpt>
      <trkpt lat="42.40771" lon="0.06299">
        <ele>843.69</ele>
        <time>2014-06-04T10:37:45Z</time>
      </trkpt>
      <trkpt lat="42.40777" lon="0.0633">
        <ele>843.21</ele>
        <time>2014-06-04T10:37:57Z</time>
      </trkpt>
      <trkpt lat="42.40779" lon="0.0634">
        <ele>843.21</ele>
        <time>2014-06-04T10:37:59Z</time>
      </trkpt>
      <trkpt lat="42.40783" lon="0.06369">
        <ele>841.77</ele>
        <time>2014-06-04T10:38:04Z</time>
      </trkpt>
      <trkpt lat="42.40784" lon="0.06375">
        <ele>841.29</ele>
        <time>2014-06-04T10:38:05Z</time>
      </trkpt>
      <trkpt lat="42.40777" lon="0.06418">
        <ele>840.81</ele>
        <time>2014-06-04T10:38:13Z</time>
      </trkpt>
      <trkpt lat="42.40778" lon="0.06422">
        <ele>840.81</ele>
        <time>2014-06-04T10:38:14Z</time>
      </trkpt>
      <trkpt lat="42.40797" lon="0.06465">
        <ele>840.81</ele>
        <time>2014-06-04T10:38:26Z</time>
      </trkpt>
      <trkpt lat="42.40799" lon="0.06472">
        <ele>839.85</ele>
        <time>2014-06-04T10:38:27Z</time>
      </trkpt>
      <trkpt lat="42.40809" lon="0.06501">
        <ele>839.37</ele>
        <time>2014-06-04T10:38:32Z</time>
      </trkpt>
      <trkpt lat="42.40808" lon="0.06525">
        <ele>839.37</ele>
        <time>2014-06-04T10:38:36Z</time>
      </trkpt>
      <trkpt lat="42.40798" lon="0.06554">
        <ele>837.93</ele>
        <time>2014-06-04T10:38:43Z</time>
      </trkpt>
      <trkpt lat="42.40781" lon="0.06574">
        <ele>836</ele>
        <time>2014-06-04T10:38:46Z</time>
      </trkpt>
      <trkpt lat="42.40771" lon="0.06594">
        <ele>834.56</ele>
        <time>2014-06-04T10:38:49Z</time>
      </trkpt>
      <trkpt lat="42.40776" lon="0.06631">
        <ele>834.56</ele>
        <time>2014-06-04T10:38:56Z</time>
      </trkpt>
      <trkpt lat="42.40777" lon="0.06636">
        <ele>835.04</ele>
        <time>2014-06-04T10:38:57Z</time>
      </trkpt>
      <trkpt lat="42.4078" lon="0.0666">
        <ele>834.56</ele>
        <time>2014-06-04T10:39:02Z</time>
      </trkpt>
      <trkpt lat="42.40781" lon="0.06673">
        <ele>833.12</ele>
        <time>2014-06-04T10:39:04Z</time>
      </trkpt>
      <trkpt lat="42.40778" lon="0.06699">
        <ele>832.64</ele>
        <time>2014-06-04T10:39:08Z</time>
      </trkpt>
      <trkpt lat="42.40772" lon="0.06728">
        <ele>830.72</ele>
        <time>2014-06-04T10:39:12Z</time>
      </trkpt>
      <trkpt lat="42.40775" lon="0.06745">
        <ele>828.79</ele>
        <time>2014-06-04T10:39:15Z</time>
      </trkpt>
      <trkpt lat="42.40779" lon="0.06756">
        <ele>828.31</ele>
        <time>2014-06-04T10:39:17Z</time>
      </trkpt>
      <trkpt lat="42.40783" lon="0.06777">
        <ele>827.35</ele>
        <time>2014-06-04T10:39:22Z</time>
      </trkpt>
      <trkpt lat="42.40786" lon="0.06787">
        <ele>827.83</ele>
        <time>2014-06-04T10:39:25Z</time>
      </trkpt>
      <trkpt lat="42.40803" lon="0.06815">
        <ele>829.76</ele>
        <time>2014-06-04T10:39:36Z</time>
      </trkpt>
      <trkpt lat="42.40809" lon="0.06816">
        <ele>829.76</ele>
        <time>2014-06-04T10:39:38Z</time>
      </trkpt>
      <trkpt lat="42.40818" lon="0.06818">
        <ele>829.76</ele>
        <time>2014-06-04T10:39:41Z</time>
      </trkpt>
      <trkpt lat="42.40831" lon="0.06823">
        <ele>831.2</ele>
        <time>2014-06-04T10:39:46Z</time>
      </trkpt>
      <trkpt lat="42.40845" lon="0.06829">
        <ele>829.27</ele>
        <time>2014-06-04T10:39:50Z</time>
      </trkpt>
      <trkpt lat="42.40858" lon="0.06841">
        <ele>828.31</ele>
        <time>2014-06-04T10:39:53Z</time>
      </trkpt>
      <trkpt lat="42.40877" lon="0.06875">
        <ele>827.83</ele>
        <time>2014-06-04T10:40:00Z</time>
      </trkpt>
      <trkpt lat="42.4089" lon="0.06879">
        <ele>827.83</ele>
        <time>2014-06-04T10:40:03Z</time>
      </trkpt>
      <trkpt lat="42.40897" lon="0.06885">
        <ele>827.35</ele>
        <time>2014-06-04T10:40:05Z</time>
      </trkpt>
      <trkpt lat="42.40904" lon="0.06894">
        <ele>827.35</ele>
        <time>2014-06-04T10:40:07Z</time>
      </trkpt>
      <trkpt lat="42.40922" lon="0.0691">
        <ele>828.31</ele>
        <time>2014-06-04T10:40:12Z</time>
      </trkpt>
      <trkpt lat="42.4093" lon="0.06911">
        <ele>827.35</ele>
        <time>2014-06-04T10:40:14Z</time>
      </trkpt>
      <trkpt lat="42.40956" lon="0.0693">
        <ele>828.79</ele>
        <time>2014-06-04T10:40:22Z</time>
      </trkpt>
      <trkpt lat="42.40962" lon="0.06945">
        <ele>829.27</ele>
        <time>2014-06-04T10:40:26Z</time>
      </trkpt>
      <trkpt lat="42.40969" lon="0.0696">
        <ele>829.27</ele>
        <time>2014-06-04T10:40:30Z</time>
      </trkpt>
      <trkpt lat="42.40981" lon="0.06996">
        <ele>826.87</ele>
        <time>2014-06-04T10:40:37Z</time>
      </trkpt>
      <trkpt lat="42.41" lon="0.07014">
        <ele>825.91</ele>
        <time>2014-06-04T10:40:43Z</time>
      </trkpt>
      <trkpt lat="42.41006" lon="0.07019">
        <ele>825.91</ele>
        <time>2014-06-04T10:40:45Z</time>
      </trkpt>
      <trkpt lat="42.41018" lon="0.0703">
        <ele>824.95</ele>
        <time>2014-06-04T10:40:48Z</time>
      </trkpt>
      <trkpt lat="42.41039" lon="0.07044">
        <ele>824.47</ele>
        <time>2014-06-04T10:40:53Z</time>
      </trkpt>
      <trkpt lat="42.41049" lon="0.07055">
        <ele>825.43</ele>
        <time>2014-06-04T10:40:56Z</time>
      </trkpt>
      <trkpt lat="42.41072" lon="0.07079">
        <ele>823.99</ele>
        <time>2014-06-04T10:41:02Z</time>
      </trkpt>
      <trkpt lat="42.41091" lon="0.07115">
        <ele>820.14</ele>
        <time>2014-06-04T10:41:11Z</time>
      </trkpt>
      <trkpt lat="42.41088" lon="0.07123">
        <ele>818.7</ele>
        <time>2014-06-04T10:41:13Z</time>
      </trkpt>
      <trkpt lat="42.41081" lon="0.07131">
        <ele>816.78</ele>
        <time>2014-06-04T10:41:16Z</time>
      </trkpt>
      <trkpt lat="42.41089" lon="0.07154">
        <ele>814.37</ele>
        <time>2014-06-04T10:41:22Z</time>
      </trkpt>
      <trkpt lat="42.41095" lon="0.07165">
        <ele>812.93</ele>
        <time>2014-06-04T10:41:25Z</time>
      </trkpt>
      <trkpt lat="42.411" lon="0.07175">
        <ele>811.01</ele>
        <time>2014-06-04T10:41:29Z</time>
      </trkpt>
      <trkpt lat="42.41104" lon="0.07177">
        <ele>810.05</ele>
        <time>2014-06-04T10:41:44Z</time>
      </trkpt>
      <trkpt lat="42.41105" lon="0.07179">
        <ele>810.05</ele>
        <time>2014-06-04T10:41:56Z</time>
      </trkpt>
      <trkpt lat="42.41108" lon="0.07188">
        <ele>808.61</ele>
        <time>2014-06-04T10:41:59Z</time>
      </trkpt>
      <trkpt lat="42.41119" lon="0.07205">
        <ele>804.76</ele>
        <time>2014-06-04T10:42:03Z</time>
      </trkpt>
      <trkpt lat="42.41133" lon="0.07225">
        <ele>799.95</ele>
        <time>2014-06-04T10:42:07Z</time>
      </trkpt>
      <trkpt lat="42.41137" lon="0.0723">
        <ele>799.95</ele>
        <time>2014-06-04T10:42:08Z</time>
      </trkpt>
      <trkpt lat="42.41141" lon="0.07235">
        <ele>798.99</ele>
        <time>2014-06-04T10:42:09Z</time>
      </trkpt>
      <trkpt lat="42.41147" lon="0.07247">
        <ele>797.07</ele>
        <time>2014-06-04T10:42:11Z</time>
      </trkpt>
      <trkpt lat="42.41156" lon="0.0727">
        <ele>793.22</ele>
        <time>2014-06-04T10:42:15Z</time>
      </trkpt>
      <trkpt lat="42.41163" lon="0.07285">
        <ele>790.34</ele>
        <time>2014-06-04T10:42:18Z</time>
      </trkpt>
      <trkpt lat="42.41178" lon="0.07318">
        <ele>785.53</ele>
        <time>2014-06-04T10:42:25Z</time>
      </trkpt>
      <trkpt lat="42.41181" lon="0.07324">
        <ele>785.05</ele>
        <time>2014-06-04T10:42:26Z</time>
      </trkpt>
      <trkpt lat="42.412" lon="0.0734">
        <ele>779.29</ele>
        <time>2014-06-04T10:42:32Z</time>
      </trkpt>
      <trkpt lat="42.41217" lon="0.07339">
        <ele>775.44</ele>
        <time>2014-06-04T10:42:37Z</time>
      </trkpt>
      <trkpt lat="42.4123" lon="0.07346">
        <ele>773.52</ele>
        <time>2014-06-04T10:42:40Z</time>
      </trkpt>
      <trkpt lat="42.4125" lon="0.07372">
        <ele>770.63</ele>
        <time>2014-06-04T10:42:47Z</time>
      </trkpt>
      <trkpt lat="42.4125" lon="0.07379">
        <ele>770.15</ele>
        <time>2014-06-04T10:42:48Z</time>
      </trkpt>
      <trkpt lat="42.4125" lon="0.07394">
        <ele>768.71</ele>
        <time>2014-06-04T10:42:50Z</time>
      </trkpt>
      <trkpt lat="42.4125" lon="0.0741">
        <ele>767.75</ele>
        <time>2014-06-04T10:42:52Z</time>
      </trkpt>
      <trkpt lat="42.41253" lon="0.07425">
        <ele>766.79</ele>
        <time>2014-06-04T10:42:54Z</time>
      </trkpt>
      <trkpt lat="42.41264" lon="0.07461">
        <ele>764.87</ele>
        <time>2014-06-04T10:42:59Z</time>
      </trkpt>
      <trkpt lat="42.41271" lon="0.07474">
        <ele>763.42</ele>
        <time>2014-06-04T10:43:01Z</time>
      </trkpt>
      <trkpt lat="42.41281" lon="0.07487">
        <ele>762.94</ele>
        <time>2014-06-04T10:43:03Z</time>
      </trkpt>
      <trkpt lat="42.41302" lon="0.07514">
        <ele>759.58</ele>
        <time>2014-06-04T10:43:07Z</time>
      </trkpt>
      <trkpt lat="42.41329" lon="0.07549">
        <ele>755.73</ele>
        <time>2014-06-04T10:43:16Z</time>
      </trkpt>
      <trkpt lat="42.41337" lon="0.07558">
        <ele>755.25</ele>
        <time>2014-06-04T10:43:18Z</time>
      </trkpt>
      <trkpt lat="42.41345" lon="0.07569">
        <ele>753.81</ele>
        <time>2014-06-04T10:43:20Z</time>
      </trkpt>
      <trkpt lat="42.41361" lon="0.07597">
        <ele>752.37</ele>
        <time>2014-06-04T10:43:25Z</time>
      </trkpt>
      <trkpt lat="42.41361" lon="0.07618">
        <ele>751.41</ele>
        <time>2014-06-04T10:43:28Z</time>
      </trkpt>
      <trkpt lat="42.4138" lon="0.07645">
        <ele>748.04</ele>
        <time>2014-06-04T10:43:36Z</time>
      </trkpt>
      <trkpt lat="42.41384" lon="0.07648">
        <ele>748.04</ele>
        <time>2014-06-04T10:43:37Z</time>
      </trkpt>
      <trkpt lat="42.4139" lon="0.07659">
        <ele>747.08</ele>
        <time>2014-06-04T10:43:39Z</time>
      </trkpt>
      <trkpt lat="42.41409" lon="0.07696">
        <ele>743.72</ele>
        <time>2014-06-04T10:43:45Z</time>
      </trkpt>
      <trkpt lat="42.41424" lon="0.07729">
        <ele>741.79</ele>
        <time>2014-06-04T10:43:51Z</time>
      </trkpt>
      <trkpt lat="42.41432" lon="0.07755">
        <ele>739.39</ele>
        <time>2014-06-04T10:43:55Z</time>
      </trkpt>
      <trkpt lat="42.41452" lon="0.0779">
        <ele>735.55</ele>
        <time>2014-06-04T10:44:02Z</time>
      </trkpt>
      <trkpt lat="42.41472" lon="0.07809">
        <ele>731.7</ele>
        <time>2014-06-04T10:44:09Z</time>
      </trkpt>
      <trkpt lat="42.41464" lon="0.07812">
        <ele>730.74</ele>
        <time>2014-06-04T10:44:12Z</time>
      </trkpt>
      <trkpt lat="42.41454" lon="0.07813">
        <ele>729.3</ele>
        <time>2014-06-04T10:44:15Z</time>
      </trkpt>
      <trkpt lat="42.41451" lon="0.07822">
        <ele>728.82</ele>
        <time>2014-06-04T10:44:19Z</time>
      </trkpt>
      <trkpt lat="42.41457" lon="0.07846">
        <ele>725.93</ele>
        <time>2014-06-04T10:44:23Z</time>
      </trkpt>
      <trkpt lat="42.41463" lon="0.07879">
        <ele>722.57</ele>
        <time>2014-06-04T10:44:28Z</time>
      </trkpt>
      <trkpt lat="42.41465" lon="0.07885">
        <ele>722.09</ele>
        <time>2014-06-04T10:44:29Z</time>
      </trkpt>
      <trkpt lat="42.41471" lon="0.07912">
        <ele>720.16</ele>
        <time>2014-06-04T10:44:33Z</time>
      </trkpt>
      <trkpt lat="42.41475" lon="0.07934">
        <ele>717.28</ele>
        <time>2014-06-04T10:44:36Z</time>
      </trkpt>
      <trkpt lat="42.41482" lon="0.07961">
        <ele>714.88</ele>
        <time>2014-06-04T10:44:40Z</time>
      </trkpt>
      <trkpt lat="42.41484" lon="0.07989">
        <ele>712.47</ele>
        <time>2014-06-04T10:44:44Z</time>
      </trkpt>
      <trkpt lat="42.41485" lon="0.07994">
        <ele>712.47</ele>
        <time>2014-06-04T10:44:45Z</time>
      </trkpt>
      <trkpt lat="42.41485" lon="0.08004">
        <ele>711.51</ele>
        <time>2014-06-04T10:44:47Z</time>
      </trkpt>
      <trkpt lat="42.41486" lon="0.08052">
        <ele>709.11</ele>
        <time>2014-06-04T10:44:55Z</time>
      </trkpt>
      <trkpt lat="42.41485" lon="0.08056">
        <ele>709.59</ele>
        <time>2014-06-04T10:45:03Z</time>
      </trkpt>
      <trkpt lat="42.41485" lon="0.08056">
        <ele>705.75</ele>
        <time>2014-06-04T10:45:10Z</time>
      </trkpt>
      <trkpt lat="42.41485" lon="0.08056">
        <ele>709.11</ele>
        <time>2014-06-04T10:45:11Z</time>
      </trkpt>
      <trkpt lat="42.41485" lon="0.08056">
        <ele>709.11</ele>
        <time>2014-06-04T10:45:16Z</time>
      </trkpt>
      <trkpt lat="42.41484" lon="0.08062">
        <ele>709.11</ele>
        <time>2014-06-04T10:45:19Z</time>
      </trkpt>
      <trkpt lat="42.41463" lon="0.08102">
        <ele>707.67</ele>
        <time>2014-06-04T10:45:31Z</time>
      </trkpt>
      <trkpt lat="42.41456" lon="0.08118">
        <ele>707.19</ele>
        <time>2014-06-04T10:45:34Z</time>
      </trkpt>
      <trkpt lat="42.41443" lon="0.08136">
        <ele>705.75</ele>
        <time>2014-06-04T10:45:37Z</time>
      </trkpt>
      <trkpt lat="42.41431" lon="0.08143">
        <ele>704.3</ele>
        <time>2014-06-04T10:45:39Z</time>
      </trkpt>
      <trkpt lat="42.41404" lon="0.08154">
        <ele>704.3</ele>
        <time>2014-06-04T10:45:43Z</time>
      </trkpt>
      <trkpt lat="42.41387" lon="0.08174">
        <ele>701.9</ele>
        <time>2014-06-04T10:45:47Z</time>
      </trkpt>
      <trkpt lat="42.41387" lon="0.08188">
        <ele>700.94</ele>
        <time>2014-06-04T10:45:49Z</time>
      </trkpt>
      <trkpt lat="42.41387" lon="0.08203">
        <ele>702.38</ele>
        <time>2014-06-04T10:45:52Z</time>
      </trkpt>
      <trkpt lat="42.41383" lon="0.08227">
        <ele>702.86</ele>
        <time>2014-06-04T10:45:58Z</time>
      </trkpt>
      <trkpt lat="42.4138" lon="0.08249">
        <ele>701.9</ele>
        <time>2014-06-04T10:46:02Z</time>
      </trkpt>
      <trkpt lat="42.41379" lon="0.08261">
        <ele>700.94</ele>
        <time>2014-06-04T10:46:04Z</time>
      </trkpt>
      <trkpt lat="42.41369" lon="0.08294">
        <ele>697.09</ele>
        <time>2014-06-04T10:46:08Z</time>
      </trkpt>
      <trkpt lat="42.4135" lon="0.08326">
        <ele>692.77</ele>
        <time>2014-06-04T10:46:13Z</time>
      </trkpt>
      <trkpt lat="42.41351" lon="0.08354">
        <ele>689.88</ele>
        <time>2014-06-04T10:46:18Z</time>
      </trkpt>
      <trkpt lat="42.41359" lon="0.08361">
        <ele>689.88</ele>
        <time>2014-06-04T10:46:20Z</time>
      </trkpt>
      <trkpt lat="42.41395" lon="0.08364">
        <ele>687.48</ele>
        <time>2014-06-04T10:46:26Z</time>
      </trkpt>
      <trkpt lat="42.41415" lon="0.08352">
        <ele>686.04</ele>
        <time>2014-06-04T10:46:29Z</time>
      </trkpt>
      <trkpt lat="42.41448" lon="0.08335">
        <ele>687.48</ele>
        <time>2014-06-04T10:46:35Z</time>
      </trkpt>
      <trkpt lat="42.41476" lon="0.08359">
        <ele>687.96</ele>
        <time>2014-06-04T10:46:43Z</time>
      </trkpt>
      <trkpt lat="42.41478" lon="0.08384">
        <ele>687</ele>
        <time>2014-06-04T10:46:47Z</time>
      </trkpt>
      <trkpt lat="42.41488" lon="0.08416">
        <ele>686.52</ele>
        <time>2014-06-04T10:46:52Z</time>
      </trkpt>
      <trkpt lat="42.4154" lon="0.08529">
        <ele>686.52</ele>
        <time>2014-06-04T10:47:10Z</time>
      </trkpt>
      <trkpt lat="42.41552" lon="0.08558">
        <ele>687.48</ele>
        <time>2014-06-04T10:47:15Z</time>
      </trkpt>
      <trkpt lat="42.41556" lon="0.08581">
        <ele>688.44</ele>
        <time>2014-06-04T10:47:19Z</time>
      </trkpt>
      <trkpt lat="42.4156" lon="0.08608">
        <ele>688.92</ele>
        <time>2014-06-04T10:47:24Z</time>
      </trkpt>
      <trkpt lat="42.4159" lon="0.08674">
        <ele>689.4</ele>
        <time>2014-06-04T10:47:39Z</time>
      </trkpt>
      <trkpt lat="42.41627" lon="0.08735">
        <ele>689.88</ele>
        <time>2014-06-04T10:47:54Z</time>
      </trkpt>
      <trkpt lat="42.41645" lon="0.08765">
        <ele>689.4</ele>
        <time>2014-06-04T10:48:01Z</time>
      </trkpt>
      <trkpt lat="42.41648" lon="0.08827">
        <ele>689.88</ele>
        <time>2014-06-04T10:48:13Z</time>
      </trkpt>
      <trkpt lat="42.4162" lon="0.08905">
        <ele>690.84</ele>
        <time>2014-06-04T10:48:30Z</time>
      </trkpt>
      <trkpt lat="42.416" lon="0.08965">
        <ele>694.21</ele>
        <time>2014-06-04T10:48:44Z</time>
      </trkpt>
      <trkpt lat="42.41583" lon="0.09014">
        <ele>697.57</ele>
        <time>2014-06-04T10:48:58Z</time>
      </trkpt>
      <trkpt lat="42.41566" lon="0.09064">
        <ele>699.98</ele>
        <time>2014-06-04T10:49:12Z</time>
      </trkpt>
      <trkpt lat="42.41552" lon="0.09103">
        <ele>701.9</ele>
        <time>2014-06-04T10:49:25Z</time>
      </trkpt>
      <trkpt lat="42.41538" lon="0.0915">
        <ele>704.3</ele>
        <time>2014-06-04T10:49:39Z</time>
      </trkpt>
      <trkpt lat="42.4153" lon="0.09194">
        <ele>706.23</ele>
        <time>2014-06-04T10:49:52Z</time>
      </trkpt>
      <trkpt lat="42.41542" lon="0.09213">
        <ele>707.19</ele>
        <time>2014-06-04T10:50:00Z</time>
      </trkpt>
      <trkpt lat="42.41569" lon="0.09251">
        <ele>708.15</ele>
        <time>2014-06-04T10:50:16Z</time>
      </trkpt>
      <trkpt lat="42.41594" lon="0.09289">
        <ele>709.59</ele>
        <time>2014-06-04T10:50:31Z</time>
      </trkpt>
      <trkpt lat="42.4161" lon="0.09323">
        <ele>711.51</ele>
        <time>2014-06-04T10:50:43Z</time>
      </trkpt>
      <trkpt lat="42.41622" lon="0.0937">
        <ele>712.47</ele>
        <time>2014-06-04T10:51:01Z</time>
      </trkpt>
      <trkpt lat="42.41618" lon="0.09415">
        <ele>713.92</ele>
        <time>2014-06-04T10:51:18Z</time>
      </trkpt>
      <trkpt lat="42.41615" lon="0.09451">
        <ele>715.84</ele>
        <time>2014-06-04T10:51:33Z</time>
      </trkpt>
      <trkpt lat="42.41612" lon="0.09474">
        <ele>717.76</ele>
        <time>2014-06-04T10:51:43Z</time>
      </trkpt>
      <trkpt lat="42.41621" lon="0.09475">
        <ele>720.65</ele>
        <time>2014-06-04T10:51:54Z</time>
      </trkpt>
      <trkpt lat="42.41659" lon="0.09489">
        <ele>720.16</ele>
        <time>2014-06-04T10:52:08Z</time>
      </trkpt>
      <trkpt lat="42.41667" lon="0.09489">
        <ele>720.16</ele>
        <time>2014-06-04T10:52:11Z</time>
      </trkpt>
      <trkpt lat="42.41681" lon="0.09511">
        <ele>722.09</ele>
        <time>2014-06-04T10:52:20Z</time>
      </trkpt>
      <trkpt lat="42.41703" lon="0.0954">
        <ele>721.61</ele>
        <time>2014-06-04T10:52:31Z</time>
      </trkpt>
      <trkpt lat="42.41708" lon="0.09547">
        <ele>721.61</ele>
        <time>2014-06-04T10:52:33Z</time>
      </trkpt>
      <trkpt lat="42.41715" lon="0.09573">
        <ele>724.97</ele>
        <time>2014-06-04T10:52:41Z</time>
      </trkpt>
      <trkpt lat="42.41724" lon="0.09588">
        <ele>726.89</ele>
        <time>2014-06-04T10:52:47Z</time>
      </trkpt>
      <trkpt lat="42.41753" lon="0.09623">
        <ele>727.37</ele>
        <time>2014-06-04T10:52:59Z</time>
      </trkpt>
      <trkpt lat="42.41788" lon="0.09623">
        <ele>728.82</ele>
        <time>2014-06-04T10:53:09Z</time>
      </trkpt>
      <trkpt lat="42.41799" lon="0.09617">
        <ele>730.26</ele>
        <time>2014-06-04T10:53:13Z</time>
      </trkpt>
      <trkpt lat="42.41804" lon="0.09628">
        <ele>731.7</ele>
        <time>2014-06-04T10:53:20Z</time>
      </trkpt>
      <trkpt lat="42.418" lon="0.09647">
        <ele>733.62</ele>
        <time>2014-06-04T10:53:27Z</time>
      </trkpt>
      <trkpt lat="42.41806" lon="0.09667">
        <ele>733.62</ele>
        <time>2014-06-04T10:53:40Z</time>
      </trkpt>
      <trkpt lat="42.41806" lon="0.09667">
        <ele>733.14</ele>
        <time>2014-06-04T10:54:00Z</time>
      </trkpt>
      <trkpt lat="42.41807" lon="0.09667">
        <ele>733.62</ele>
        <time>2014-06-04T10:54:30Z</time>
      </trkpt>
      <trkpt lat="42.4181" lon="0.09686">
        <ele>731.22</ele>
        <time>2014-06-04T10:54:46Z</time>
      </trkpt>
      <trkpt lat="42.41811" lon="0.09698">
        <ele>730.74</ele>
        <time>2014-06-04T10:54:48Z</time>
      </trkpt>
      <trkpt lat="42.41811" lon="0.09712">
        <ele>730.26</ele>
        <time>2014-06-04T10:54:50Z</time>
      </trkpt>
      <trkpt lat="42.41812" lon="0.0973">
        <ele>728.82</ele>
        <time>2014-06-04T10:54:53Z</time>
      </trkpt>
      <trkpt lat="42.41817" lon="0.09768">
        <ele>724.97</ele>
        <time>2014-06-04T10:54:58Z</time>
      </trkpt>
      <trkpt lat="42.41818" lon="0.09792">
        <ele>722.57</ele>
        <time>2014-06-04T10:55:01Z</time>
      </trkpt>
      <trkpt lat="42.41818" lon="0.09822">
        <ele>720.16</ele>
        <time>2014-06-04T10:55:06Z</time>
      </trkpt>
      <trkpt lat="42.41819" lon="0.09853">
        <ele>717.28</ele>
        <time>2014-06-04T10:55:10Z</time>
      </trkpt>
      <trkpt lat="42.41821" lon="0.0987">
        <ele>715.84</ele>
        <time>2014-06-04T10:55:12Z</time>
      </trkpt>
      <trkpt lat="42.41822" lon="0.09886">
        <ele>714.4</ele>
        <time>2014-06-04T10:55:14Z</time>
      </trkpt>
      <trkpt lat="42.41826" lon="0.0991">
        <ele>711.99</ele>
        <time>2014-06-04T10:55:17Z</time>
      </trkpt>
      <trkpt lat="42.41825" lon="0.09931">
        <ele>711.03</ele>
        <time>2014-06-04T10:55:20Z</time>
      </trkpt>
      <trkpt lat="42.41824" lon="0.09937">
        <ele>711.03</ele>
        <time>2014-06-04T10:55:21Z</time>
      </trkpt>
      <trkpt lat="42.41814" lon="0.09984">
        <ele>708.15</ele>
        <time>2014-06-04T10:55:29Z</time>
      </trkpt>
      <trkpt lat="42.41806" lon="0.10032">
        <ele>703.82</ele>
        <time>2014-06-04T10:55:36Z</time>
      </trkpt>
      <trkpt lat="42.41799" lon="0.10057">
        <ele>701.42</ele>
        <time>2014-06-04T10:55:40Z</time>
      </trkpt>
      <trkpt lat="42.41794" lon="0.10079">
        <ele>699.98</ele>
        <time>2014-06-04T10:55:43Z</time>
      </trkpt>
      <trkpt lat="42.4179" lon="0.10095">
        <ele>699.5</ele>
        <time>2014-06-04T10:55:45Z</time>
      </trkpt>
      <trkpt lat="42.41757" lon="0.10161">
        <ele>697.09</ele>
        <time>2014-06-04T10:55:55Z</time>
      </trkpt>
      <trkpt lat="42.41748" lon="0.10178">
        <ele>696.61</ele>
        <time>2014-06-04T10:55:59Z</time>
      </trkpt>
      <trkpt lat="42.41734" lon="0.10194">
        <ele>693.73</ele>
        <time>2014-06-04T10:56:05Z</time>
      </trkpt>
      <trkpt lat="42.4173" lon="0.10197">
        <ele>693.73</ele>
        <time>2014-06-04T10:56:06Z</time>
      </trkpt>
      <trkpt lat="42.41718" lon="0.10206">
        <ele>690.84</ele>
        <time>2014-06-04T10:56:10Z</time>
      </trkpt>
      <trkpt lat="42.41706" lon="0.10213">
        <ele>687.96</ele>
        <time>2014-06-04T10:56:14Z</time>
      </trkpt>
      <trkpt lat="42.41707" lon="0.10242">
        <ele>684.6</ele>
        <time>2014-06-04T10:56:23Z</time>
      </trkpt>
      <trkpt lat="42.41708" lon="0.10252">
        <ele>683.63</ele>
        <time>2014-06-04T10:56:25Z</time>
      </trkpt>
      <trkpt lat="42.41708" lon="0.10257">
        <ele>683.63</ele>
        <time>2014-06-04T10:56:26Z</time>
      </trkpt>
      <trkpt lat="42.41709" lon="0.10298">
        <ele>678.35</ele>
        <time>2014-06-04T10:56:34Z</time>
      </trkpt>
      <trkpt lat="42.41705" lon="0.10327">
        <ele>674.5</ele>
        <time>2014-06-04T10:56:38Z</time>
      </trkpt>
      <trkpt lat="42.41703" lon="0.10335">
        <ele>674.02</ele>
        <time>2014-06-04T10:56:39Z</time>
      </trkpt>
      <trkpt lat="42.41693" lon="0.10376">
        <ele>670.66</ele>
        <time>2014-06-04T10:56:45Z</time>
      </trkpt>
      <trkpt lat="42.41689" lon="0.10401">
        <ele>667.29</ele>
        <time>2014-06-04T10:56:49Z</time>
      </trkpt>
      <trkpt lat="42.41686" lon="0.10407">
        <ele>666.81</ele>
        <time>2014-06-04T10:56:50Z</time>
      </trkpt>
      <trkpt lat="42.41682" lon="0.10428">
        <ele>663.93</ele>
        <time>2014-06-04T10:56:53Z</time>
      </trkpt>
      <trkpt lat="42.41674" lon="0.10456">
        <ele>660.56</ele>
        <time>2014-06-04T10:56:57Z</time>
      </trkpt>
      <trkpt lat="42.41664" lon="0.10487">
        <ele>655.76</ele>
        <time>2014-06-04T10:57:02Z</time>
      </trkpt>
      <trkpt lat="42.41652" lon="0.10523">
        <ele>651.91</ele>
        <time>2014-06-04T10:57:07Z</time>
      </trkpt>
      <trkpt lat="42.41647" lon="0.10536">
        <ele>650.95</ele>
        <time>2014-06-04T10:57:09Z</time>
      </trkpt>
      <trkpt lat="42.41636" lon="0.10579">
        <ele>645.66</ele>
        <time>2014-06-04T10:57:15Z</time>
      </trkpt>
      <trkpt lat="42.41634" lon="0.10587">
        <ele>644.7</ele>
        <time>2014-06-04T10:57:16Z</time>
      </trkpt>
      <trkpt lat="42.41628" lon="0.10602">
        <ele>643.74</ele>
        <time>2014-06-04T10:57:18Z</time>
      </trkpt>
      <trkpt lat="42.41624" lon="0.10625">
        <ele>641.82</ele>
        <time>2014-06-04T10:57:21Z</time>
      </trkpt>
      <trkpt lat="42.41614" lon="0.10655">
        <ele>638.93</ele>
        <time>2014-06-04T10:57:27Z</time>
      </trkpt>
      <trkpt lat="42.41608" lon="0.10689">
        <ele>634.13</ele>
        <time>2014-06-04T10:57:32Z</time>
      </trkpt>
      <trkpt lat="42.41597" lon="0.10717">
        <ele>630.76</ele>
        <time>2014-06-04T10:57:37Z</time>
      </trkpt>
      <trkpt lat="42.41586" lon="0.10741">
        <ele>628.36</ele>
        <time>2014-06-04T10:57:41Z</time>
      </trkpt>
      <trkpt lat="42.41562" lon="0.10783">
        <ele>625.47</ele>
        <time>2014-06-04T10:57:47Z</time>
      </trkpt>
      <trkpt lat="42.41552" lon="0.10816">
        <ele>622.11</ele>
        <time>2014-06-04T10:57:52Z</time>
      </trkpt>
      <trkpt lat="42.41547" lon="0.10848">
        <ele>621.15</ele>
        <time>2014-06-04T10:57:56Z</time>
      </trkpt>
      <trkpt lat="42.41539" lon="0.10856">
        <ele>621.63</ele>
        <time>2014-06-04T10:58:06Z</time>
      </trkpt>
      <trkpt lat="42.41533" lon="0.10856">
        <ele>621.63</ele>
        <time>2014-06-04T10:58:11Z</time>
      </trkpt>
      <trkpt lat="42.41522" lon="0.10853">
        <ele>622.59</ele>
        <time>2014-06-04T10:58:18Z</time>
      </trkpt>
      <trkpt lat="42.41508" lon="0.10847">
        <ele>623.55</ele>
        <time>2014-06-04T10:58:26Z</time>
      </trkpt>
      <trkpt lat="42.41504" lon="0.10848">
        <ele>624.03</ele>
        <time>2014-06-04T10:58:37Z</time>
      </trkpt>
      <trkpt lat="42.41505" lon="0.1085">
        <ele>624.03</ele>
        <time>2014-06-04T10:58:48Z</time>
      </trkpt>
      <trkpt lat="42.41514" lon="0.10853">
        <ele>623.07</ele>
        <time>2014-06-04T10:58:52Z</time>
      </trkpt>
      <trkpt lat="42.41525" lon="0.10855">
        <ele>621.63</ele>
        <time>2014-06-04T10:58:55Z</time>
      </trkpt>
      <trkpt lat="42.4154" lon="0.10863">
        <ele>621.15</ele>
        <time>2014-06-04T10:58:59Z</time>
      </trkpt>
      <trkpt lat="42.41542" lon="0.10862">
        <ele>621.15</ele>
        <time>2014-06-04T10:59:14Z</time>
      </trkpt>
      <trkpt lat="42.41542" lon="0.10862">
        <ele>621.63</ele>
        <time>2014-06-04T10:59:42Z</time>
      </trkpt>
      <trkpt lat="42.41542" lon="0.10862">
        <ele>621.63</ele>
        <time>2014-06-04T11:00:02Z</time>
      </trkpt>
      <trkpt lat="42.41542" lon="0.10862">
        <ele>621.63</ele>
        <time>2014-06-04T11:00:30Z</time>
      </trkpt>
      <trkpt lat="42.41542" lon="0.10863">
        <ele>621.15</ele>
        <time>2014-06-04T11:00:57Z</time>
      </trkpt>
      <trkpt lat="42.41539" lon="0.10858">
        <ele>621.15</ele>
        <time>2014-06-04T11:01:01Z</time>
      </trkpt>
      <trkpt lat="42.41497" lon="0.10849">
        <ele>624.03</ele>
        <time>2014-06-04T11:01:16Z</time>
      </trkpt>
      <trkpt lat="42.41471" lon="0.10852">
        <ele>624.99</ele>
        <time>2014-06-04T11:01:26Z</time>
      </trkpt>
      <trkpt lat="42.41467" lon="0.10868">
        <ele>622.11</ele>
        <time>2014-06-04T11:01:31Z</time>
      </trkpt>
      <trkpt lat="42.41458" lon="0.10894">
        <ele>616.82</ele>
        <time>2014-06-04T11:01:35Z</time>
      </trkpt>
      <trkpt lat="42.41454" lon="0.10914">
        <ele>614.42</ele>
        <time>2014-06-04T11:01:38Z</time>
      </trkpt>
      <trkpt lat="42.41455" lon="0.10939">
        <ele>612.5</ele>
        <time>2014-06-04T11:01:41Z</time>
      </trkpt>
      <trkpt lat="42.41459" lon="0.10957">
        <ele>609.13</ele>
        <time>2014-06-04T11:01:43Z</time>
      </trkpt>
      <trkpt lat="42.41463" lon="0.10974">
        <ele>607.69</ele>
        <time>2014-06-04T11:01:45Z</time>
      </trkpt>
      <trkpt lat="42.41474" lon="0.10993">
        <ele>605.29</ele>
        <time>2014-06-04T11:01:49Z</time>
      </trkpt>
      <trkpt lat="42.41483" lon="0.11014">
        <ele>602.88</ele>
        <time>2014-06-04T11:01:52Z</time>
      </trkpt>
      <trkpt lat="42.41488" lon="0.11028">
        <ele>600.48</ele>
        <time>2014-06-04T11:01:54Z</time>
      </trkpt>
      <trkpt lat="42.41477" lon="0.11057">
        <ele>596.64</ele>
        <time>2014-06-04T11:01:59Z</time>
      </trkpt>
      <trkpt lat="42.41467" lon="0.1107">
        <ele>593.27</ele>
        <time>2014-06-04T11:02:01Z</time>
      </trkpt>
      <trkpt lat="42.41457" lon="0.11084">
        <ele>589.43</ele>
        <time>2014-06-04T11:02:03Z</time>
      </trkpt>
      <trkpt lat="42.4144" lon="0.11103">
        <ele>584.62</ele>
        <time>2014-06-04T11:02:07Z</time>
      </trkpt>
      <trkpt lat="42.4143" lon="0.11126">
        <ele>580.29</ele>
        <time>2014-06-04T11:02:10Z</time>
      </trkpt>
      <trkpt lat="42.41427" lon="0.11134">
        <ele>578.85</ele>
        <time>2014-06-04T11:02:11Z</time>
      </trkpt>
      <trkpt lat="42.41415" lon="0.11159">
        <ele>575.97</ele>
        <time>2014-06-04T11:02:18Z</time>
      </trkpt>
      <trkpt lat="42.41408" lon="0.11177">
        <ele>574.04</ele>
        <time>2014-06-04T11:02:25Z</time>
      </trkpt>
      <trkpt lat="42.41414" lon="0.1119">
        <ele>574.04</ele>
        <time>2014-06-04T11:02:30Z</time>
      </trkpt>
      <trkpt lat="42.41442" lon="0.11214">
        <ele>574.04</ele>
        <time>2014-06-04T11:02:41Z</time>
      </trkpt>
      <trkpt lat="42.41478" lon="0.11248">
        <ele>575.01</ele>
        <time>2014-06-04T11:02:52Z</time>
      </trkpt>
      <trkpt lat="42.41489" lon="0.11259">
        <ele>576.45</ele>
        <time>2014-06-04T11:02:56Z</time>
      </trkpt>
      <trkpt lat="42.41529" lon="0.11271">
        <ele>577.41</ele>
        <time>2014-06-04T11:03:08Z</time>
      </trkpt>
      <trkpt lat="42.41545" lon="0.11292">
        <ele>574.53</ele>
        <time>2014-06-04T11:03:14Z</time>
      </trkpt>
      <trkpt lat="42.41547" lon="0.11295">
        <ele>574.04</ele>
        <time>2014-06-04T11:03:15Z</time>
      </trkpt>
      <trkpt lat="42.41554" lon="0.11305">
        <ele>572.6</ele>
        <time>2014-06-04T11:03:17Z</time>
      </trkpt>
      <trkpt lat="42.41573" lon="0.11319">
        <ele>572.6</ele>
        <time>2014-06-04T11:03:20Z</time>
      </trkpt>
      <trkpt lat="42.41631" lon="0.11344">
        <ele>573.56</ele>
        <time>2014-06-04T11:03:33Z</time>
      </trkpt>
      <trkpt lat="42.41652" lon="0.11353">
        <ele>574.04</ele>
        <time>2014-06-04T11:03:38Z</time>
      </trkpt>
      <trkpt lat="42.41669" lon="0.11362">
        <ele>574.04</ele>
        <time>2014-06-04T11:03:42Z</time>
      </trkpt>
      <trkpt lat="42.41684" lon="0.11371">
        <ele>573.56</ele>
        <time>2014-06-04T11:03:46Z</time>
      </trkpt>
      <trkpt lat="42.41692" lon="0.11384">
        <ele>573.08</ele>
        <time>2014-06-04T11:03:49Z</time>
      </trkpt>
      <trkpt lat="42.41731" lon="0.11411">
        <ele>573.08</ele>
        <time>2014-06-04T11:04:01Z</time>
      </trkpt>
      <trkpt lat="42.41734" lon="0.11414">
        <ele>573.08</ele>
        <time>2014-06-04T11:04:02Z</time>
      </trkpt>
      <trkpt lat="42.41741" lon="0.11422">
        <ele>572.12</ele>
        <time>2014-06-04T11:04:04Z</time>
      </trkpt>
      <trkpt lat="42.41772" lon="0.11433">
        <ele>571.16</ele>
        <time>2014-06-04T11:04:11Z</time>
      </trkpt>
      <trkpt lat="42.41781" lon="0.11438">
        <ele>569.72</ele>
        <time>2014-06-04T11:04:13Z</time>
      </trkpt>
      <trkpt lat="42.41786" lon="0.11453">
        <ele>567.8</ele>
        <time>2014-06-04T11:04:16Z</time>
      </trkpt>
      <trkpt lat="42.41775" lon="0.11494">
        <ele>565.39</ele>
        <time>2014-06-04T11:04:21Z</time>
      </trkpt>
      <trkpt lat="42.41765" lon="0.11622">
        <ele>562.51</ele>
        <time>2014-06-04T11:04:34Z</time>
      </trkpt>
      <trkpt lat="42.41751" lon="0.11689">
        <ele>562.03</ele>
        <time>2014-06-04T11:04:42Z</time>
      </trkpt>
      <trkpt lat="42.4172" lon="0.11742">
        <ele>561.07</ele>
        <time>2014-06-04T11:04:50Z</time>
      </trkpt>
      <trkpt lat="42.41681" lon="0.11867">
        <ele>559.62</ele>
        <time>2014-06-04T11:05:06Z</time>
      </trkpt>
      <trkpt lat="42.41673" lon="0.12002">
        <ele>558.18</ele>
        <time>2014-06-04T11:05:22Z</time>
      </trkpt>
      <trkpt lat="42.41632" lon="0.12116">
        <ele>557.22</ele>
        <time>2014-06-04T11:05:37Z</time>
      </trkpt>
      <trkpt lat="42.41585" lon="0.12234">
        <ele>556.26</ele>
        <time>2014-06-04T11:05:54Z</time>
      </trkpt>
      <trkpt lat="42.41564" lon="0.12316">
        <ele>552.9</ele>
        <time>2014-06-04T11:06:04Z</time>
      </trkpt>
      <trkpt lat="42.41561" lon="0.12326">
        <ele>552.9</ele>
        <time>2014-06-04T11:06:05Z</time>
      </trkpt>
      <trkpt lat="42.41531" lon="0.1239">
        <ele>549.05</ele>
        <time>2014-06-04T11:06:12Z</time>
      </trkpt>
      <trkpt lat="42.41515" lon="0.12419">
        <ele>547.61</ele>
        <time>2014-06-04T11:06:15Z</time>
      </trkpt>
      <trkpt lat="42.41441" lon="0.12552">
        <ele>548.09</ele>
        <time>2014-06-04T11:06:30Z</time>
      </trkpt>
      <trkpt lat="42.41388" lon="0.12645">
        <ele>549.53</ele>
        <time>2014-06-04T11:06:44Z</time>
      </trkpt>
      <trkpt lat="42.41374" lon="0.12669">
        <ele>550.01</ele>
        <time>2014-06-04T11:06:48Z</time>
      </trkpt>
      <trkpt lat="42.41366" lon="0.12715">
        <ele>549.53</ele>
        <time>2014-06-04T11:06:56Z</time>
      </trkpt>
      <trkpt lat="42.4139" lon="0.12817">
        <ele>548.57</ele>
        <time>2014-06-04T11:07:10Z</time>
      </trkpt>
      <trkpt lat="42.41417" lon="0.12971">
        <ele>545.69</ele>
        <time>2014-06-04T11:07:28Z</time>
      </trkpt>
      <trkpt lat="42.41441" lon="0.13111">
        <ele>544.24</ele>
        <time>2014-06-04T11:07:45Z</time>
      </trkpt>
      <trkpt lat="42.41467" lon="0.13244">
        <ele>543.76</ele>
        <time>2014-06-04T11:08:02Z</time>
      </trkpt>
      <trkpt lat="42.41469" lon="0.13284">
        <ele>542.8</ele>
        <time>2014-06-04T11:08:07Z</time>
      </trkpt>
      <trkpt lat="42.41449" lon="0.13408">
        <ele>541.84</ele>
        <time>2014-06-04T11:08:22Z</time>
      </trkpt>
      <trkpt lat="42.41408" lon="0.13538">
        <ele>540.88</ele>
        <time>2014-06-04T11:08:39Z</time>
      </trkpt>
      <trkpt lat="42.41357" lon="0.13636">
        <ele>540.4</ele>
        <time>2014-06-04T11:08:54Z</time>
      </trkpt>
      <trkpt lat="42.4131" lon="0.13728">
        <ele>539.44</ele>
        <time>2014-06-04T11:09:08Z</time>
      </trkpt>
      <trkpt lat="42.41278" lon="0.13827">
        <ele>538.48</ele>
        <time>2014-06-04T11:09:21Z</time>
      </trkpt>
      <trkpt lat="42.41273" lon="0.13929">
        <ele>537.99</ele>
        <time>2014-06-04T11:09:34Z</time>
      </trkpt>
      <trkpt lat="42.41247" lon="0.1397">
        <ele>538.96</ele>
        <time>2014-06-04T11:09:43Z</time>
      </trkpt>
      <trkpt lat="42.41244" lon="0.13972">
        <ele>538.96</ele>
        <time>2014-06-04T11:09:44Z</time>
      </trkpt>
      <trkpt lat="42.41237" lon="0.13976">
        <ele>538.96</ele>
        <time>2014-06-04T11:09:46Z</time>
      </trkpt>
      <trkpt lat="42.41252" lon="0.13999">
        <ele>538.96</ele>
        <time>2014-06-04T11:09:53Z</time>
      </trkpt>
      <trkpt lat="42.41257" lon="0.14008">
        <ele>537.99</ele>
        <time>2014-06-04T11:09:55Z</time>
      </trkpt>
      <trkpt lat="42.41268" lon="0.14039">
        <ele>539.92</ele>
        <time>2014-06-04T11:10:04Z</time>
      </trkpt>
      <trkpt lat="42.4133" lon="0.14034">
        <ele>534.63</ele>
        <time>2014-06-04T11:10:20Z</time>
      </trkpt>
      <trkpt lat="42.41334" lon="0.14034">
        <ele>539.92</ele>
        <time>2014-06-04T11:10:21Z</time>
      </trkpt>
      <trkpt lat="42.41348" lon="0.14033">
        <ele>543.28</ele>
        <time>2014-06-04T11:10:25Z</time>
      </trkpt>
      <trkpt lat="42.41353" lon="0.14033">
        <ele>538.48</ele>
        <time>2014-06-04T11:10:27Z</time>
      </trkpt>
      <trkpt lat="42.41356" lon="0.14033">
        <ele>539.44</ele>
        <time>2014-06-04T11:10:28Z</time>
      </trkpt>
      <trkpt lat="42.41358" lon="0.14032">
        <ele>536.07</ele>
        <time>2014-06-04T11:10:29Z</time>
      </trkpt>
      <trkpt lat="42.41365" lon="0.14032">
        <ele>538.96</ele>
        <time>2014-06-04T11:10:33Z</time>
      </trkpt>
    </trkseg>
  </trk>
</gpx>